Date StartTime U_cm/s V_cm/s W_cm/s Ustd_cm/s Vstd_cm/s Wstd_cm/s Uvar_(cm/s)^2 Vvar_(cm/s)^2 Wvar_(cm/s)^2 KE_(m/s)^2 TurbulentKE_(m/s)^2 HorizWindSpeed_cm/s FrictionSpeec_cm/s DragCoef SpeedOfSound_m/s SonicTemperature_C Pressure_mb 
10/15/2013  00:00:00      -95.643      -20.930      -12.664       20.224       11.230       12.391      408.990      126.107      153.534        0.522        0.034       97.906       11.374        0.013      335.521        6.210      866.272
10/15/2013  00:01:00      -76.570      -22.045      -17.861       13.295       17.885       14.502      176.746      319.889      210.313        0.369        0.035       79.680       13.541        0.029      335.524        6.216      866.264
10/15/2013  00:02:00      -60.702      -17.265      -17.419       23.886       14.724       14.917      570.525      216.806      222.529        0.265        0.050       63.109        6.013        0.009      335.512        6.194      866.267
10/15/2013  00:03:00      -71.669       -5.136      -14.122       13.897       11.448       11.669      193.135      131.048      136.164        0.291        0.023       71.853        7.920        0.012      335.387        5.987      866.262
10/15/2013  00:04:00      -37.599      -22.979       -5.679       33.195       18.695       16.125     1101.914      349.504      260.022        0.184        0.086       44.065       14.907        0.114      335.428        6.056      866.261
10/15/2013  00:05:00      -40.382      -25.059        8.782       37.312       22.844       20.553     1392.196      521.856      422.414        0.234        0.117       47.525       22.916        0.233      335.378        5.971      866.261
10/15/2013  00:06:00      -90.190      -31.697      -12.763       13.853       19.142       13.524      191.910      366.427      182.899        0.502        0.037       95.598        7.040        0.005      335.335        5.900      866.271
10/15/2013  00:07:00      -76.922      -17.920      -10.876       13.462       11.063       11.433      181.222      122.400      130.716        0.340        0.022       78.981        5.853        0.005      335.329        5.891      866.274
10/15/2013  00:08:00      -60.093      -16.764      -11.866       18.339       14.822       12.833      336.304      219.687      164.680        0.238        0.036       62.388        7.201        0.013      335.429        6.058      866.264
10/15/2013  00:09:00      -59.908      -21.838       -9.325       14.326       12.508       11.061      205.225      156.462      122.335        0.232        0.024       63.764        8.892        0.019      335.414        6.032      866.249
10/15/2013  00:10:00      -90.803      -21.241      -15.811       12.862       10.585        7.137      165.438      112.037       50.932        0.464        0.016       93.255        5.953        0.004      335.323        5.881      866.246
10/15/2013  00:11:00      -97.931      -15.735      -18.540       13.612       12.945       11.500      185.282      167.578      132.256        0.533        0.024       99.187        6.055        0.004      335.278        5.805      866.240
10/15/2013  00:12:00      -86.700      -38.268      -12.071       16.093       15.892       15.967      258.976      252.545      254.945        0.495        0.038       94.770        2.599        0.001      335.335        5.899      866.238
10/15/2013  00:13:00      -76.539      -44.178      -16.450       15.120       14.133       13.078      228.606      199.731      171.026        0.434        0.030       88.373        8.364        0.009      335.291        5.826      866.256
10/15/2013  00:14:00      -73.572      -25.937       -7.973       23.841       18.865       13.415      568.384      355.871      179.971        0.363        0.055       78.010       12.341        0.025      335.274        5.798      866.282
10/15/2013  00:15:00      -90.738      -32.637      -10.884       16.061       16.931       13.633      257.961      286.670      185.848        0.507        0.037       96.429       11.156        0.013      335.246        5.752      866.286
10/15/2013  00:16:00      -76.326      -43.516      -17.624       16.997       19.382       11.250      288.886      375.673      126.554        0.441        0.040       87.860        5.374        0.004      335.294        5.831      866.282
10/15/2013  00:17:00      -93.375      -12.384      -15.293       13.050       16.145       11.688      170.308      260.669      136.613        0.484        0.028       94.193        8.934        0.009      335.255        5.766      866.285
10/15/2013  00:18:00      -95.937      -28.601      -16.099       10.550       21.291       12.445      111.305      453.298      154.875        0.550        0.036      100.110        2.413        0.001      335.316        5.868      866.290
10/15/2013  00:19:00      -94.040      -51.423      -18.850       18.527       21.863       12.949      343.266      477.986      167.684        0.642        0.049      107.182        5.964        0.003      335.267        5.785      866.270
10/15/2013  00:20:00     -102.604      -42.071      -11.725       17.701       18.207       13.347      313.328      331.496      178.143        0.663        0.041      110.895        9.753        0.008      335.197        5.669      866.257
10/15/2013  00:21:00      -85.271      -45.541      -10.179       15.988       17.288       11.634      255.626      298.868      135.352        0.507        0.034       96.671        3.481        0.001      335.220        5.710      866.263
10/15/2013  00:22:00      -92.664      -62.347      -10.125       35.454       21.011       20.988     1257.018      441.449      440.498        0.736        0.107      111.686       15.410        0.019      335.194        5.666      866.272
10/15/2013  00:23:00     -119.578      -58.677       -7.574       18.388       12.884       13.583      338.111      165.992      184.494        0.924        0.034      133.199       12.691        0.009      335.149        5.592      866.266
10/15/2013  00:24:00     -116.477      -32.545      -12.402       22.138       27.334       14.099      490.101      747.158      198.794        0.811        0.072      120.938       11.919        0.010      335.202        5.679      866.253
10/15/2013  00:25:00     -105.098      -24.178      -10.465       23.388       15.929       11.735      547.014      253.734      137.710        0.634        0.047      107.844       11.816        0.012      335.179        5.639      866.235
10/15/2013  00:26:00     -109.697      -15.075       -9.848       18.175       17.651       14.118      330.332      311.568      199.308        0.660        0.042      110.728        6.784        0.004      335.155        5.601      866.236
10/15/2013  00:27:00     -109.910      -19.505      -16.603       10.391        8.828        9.088      107.973       77.925       82.594        0.650        0.013      111.627        6.554        0.003      335.194        5.665      866.211
10/15/2013  00:28:00     -122.739       -9.309      -20.155       24.377        9.057       12.476      594.244       82.031      155.660        0.819        0.042      123.091       13.552        0.012      335.150        5.594      866.201
10/15/2013  00:29:00      -99.473      -27.125       -5.231       23.475       17.135       11.912      551.076      293.620      141.899        0.582        0.049      103.105       12.564        0.015      335.091        5.496      866.209
10/15/2013  00:30:00     -103.665      -23.444      -16.178        8.968       10.903        9.346       80.421      118.865       87.340        0.592        0.014      106.283        5.822        0.003      335.149        5.593      866.211
10/15/2013  00:31:00     -115.752      -25.684      -21.771       12.899        9.460        9.221      166.393       89.498       85.026        0.744        0.017      118.567        7.009        0.003      335.237        5.737      866.210
10/15/2013  00:32:00     -125.374      -22.684      -14.500       20.471       13.965       14.208      419.061      195.031      201.863        0.863        0.041      127.410        9.409        0.005      335.264        5.781      866.232
10/15/2013  00:33:00      -93.817      -36.873      -11.478       18.920       16.334       14.967      357.948      266.799      224.023        0.557        0.042      100.803        8.989        0.008      335.198        5.671      866.247
10/15/2013  00:34:00      -93.249      -58.964      -17.331       22.317       26.237       13.955      498.069      688.398      194.747        0.693        0.069      110.327        9.240        0.007      335.102        5.515      866.255
10/15/2013  00:35:00      -85.050      -49.770      -13.813       26.949       18.532       16.210      726.242      343.431      262.762        0.562        0.067       98.542       14.177        0.021      335.064        5.451      866.271
10/15/2013  00:36:00     -101.520      -30.385      -14.283       31.195       32.516       16.414      973.124     1057.258      269.416        0.687        0.115      105.969       15.663        0.022      335.044        5.417      866.287
10/15/2013  00:37:00     -104.031      -39.714      -12.371       31.650       28.827       20.990     1001.697      831.014      440.567        0.741        0.114      111.353        5.488        0.002      335.028        5.390      866.308
10/15/2013  00:38:00      -67.320      -18.743      -10.592       26.945       20.273       20.733      726.007      411.010      429.837        0.328        0.078       69.880       11.583        0.027      335.045        5.420      866.326
10/15/2013  00:39:00      -45.972      -33.177      -11.639       53.956       33.624       22.397     2911.286     1130.595      501.605        0.395        0.227       56.694       18.184        0.103      335.008        5.358      866.357
10/15/2013  00:40:00      -45.788      -17.355       -9.012       32.739       22.546       16.271     1071.841      508.322      264.744        0.216        0.092       48.966       12.735        0.068      335.009        5.359      866.369
10/15/2013  00:41:00      -72.829      -25.756      -20.054       28.135       17.739       15.832      791.575      314.676      250.659        0.386        0.068       77.249       11.064        0.021      334.954        5.267      866.382
10/15/2013  00:42:00      -73.634      -20.317      -20.273       27.317       19.291       18.319      746.224      372.155      335.580        0.385        0.073       76.385        6.296        0.007      334.971        5.296      866.388
10/15/2013  00:43:00      -45.157      -29.049       -3.371       39.565       23.379       20.701     1565.424      546.568      428.526        0.272        0.127       53.693        4.962        0.009      334.942        5.247      866.368
10/15/2013  00:44:00      -24.814      -35.879       -0.409       30.210       23.095       27.240      912.668      533.386      742.000        0.205        0.109       43.624       22.305        0.261      334.878        5.141      866.346
10/15/2013  00:45:00      -36.811      -46.553       -9.791       37.334       22.665       17.098     1393.817      513.709      292.331        0.291        0.110       59.348       10.717        0.033      334.862        5.115      866.341
10/15/2013  00:46:00      -48.111      -67.593      -13.097       26.029       21.770       14.118      677.534      473.943      199.325        0.420        0.068       82.967       12.147        0.021      334.886        5.154      866.331
10/15/2013  00:47:00      -75.838      -39.850      -21.491       13.420       24.268       11.070      180.105      588.951      122.554        0.435        0.045       85.670        9.876        0.013      335.045        5.418      866.305
10/15/2013  00:48:00      -81.680      -23.754      -16.655       15.527       15.166       13.663      241.099      230.021      186.691        0.409        0.033       85.064        9.449        0.012      334.959        5.275      866.292
10/15/2013  00:49:00      -88.156       -5.584       -9.849       12.925       10.962       11.550      167.064      120.174      133.413        0.416        0.021       88.333        9.664        0.012      334.960        5.279      866.283
10/15/2013  00:50:00      -88.059      -19.479      -15.011       12.408       13.809       10.208      153.958      190.695      104.195        0.440        0.022       90.188        8.462        0.009      334.898        5.174      866.267
10/15/2013  00:51:00      -88.317      -20.302      -15.644       18.687       15.635       12.058      349.187      244.459      145.396        0.460        0.037       90.621       12.585        0.019      334.865        5.119      866.280
10/15/2013  00:52:00      -93.329      -14.459      -18.036       13.880       16.596       11.890      192.652      275.432      141.383        0.493        0.030       94.442        9.155        0.009      334.911        5.196      866.280
10/15/2013  00:53:00     -105.950      -10.610      -16.724       14.585       21.012       15.798      212.709      441.505      249.579        0.626        0.045      106.480        9.829        0.009      334.869        5.128      866.281
10/15/2013  00:54:00     -119.104      -24.953      -14.351       21.446       20.670       14.485      459.948      427.240      209.827        0.806        0.055      121.689       10.581        0.008      334.803        5.017      866.288
10/15/2013  00:55:00     -108.445      -35.520      -16.827       10.811       13.993        8.502      116.870      195.793       72.291        0.684        0.019      114.114        5.405        0.002      334.798        5.009      866.284
10/15/2013  00:56:00     -112.077      -36.183      -11.430       14.226       19.366       10.297      202.391      375.059      106.024        0.734        0.034      117.773        5.227        0.002      334.806        5.020      866.281
10/15/2013  00:57:00     -100.842      -30.674      -17.303       10.517       15.901       10.330      110.602      252.854      106.707        0.594        0.024      105.404        8.638        0.007      334.768        4.958      866.298
10/15/2013  00:58:00      -97.381      -30.155      -19.203       17.879       10.140       10.938      319.676      102.816      119.641        0.565        0.027      101.943        4.459        0.002      334.726        4.887      866.309
10/15/2013  00:59:00      -65.112      -36.822       -8.783       17.657       24.432       17.153      311.771      596.944      294.213        0.344        0.060       74.803       13.236        0.031      334.821        5.047      866.319
10/15/2013  01:00:00      -81.082      -21.600       -8.821       25.306       11.997       11.773      640.404      143.922      138.606        0.402        0.046       83.909       12.639        0.023      334.787        4.990      866.315
10/15/2013  01:01:00      -97.592      -25.257      -12.693       14.827       13.149       10.425      219.826      172.887      108.680        0.541        0.025      100.808        7.575        0.006      334.824        5.052      866.314
10/15/2013  01:02:00     -107.742      -17.703      -16.091       11.949       12.590       10.412      142.777      158.514      108.412        0.630        0.020      109.187        7.696        0.005      334.780        4.978      866.306
10/15/2013  01:03:00     -105.655      -22.630      -17.554       10.031       11.700        8.593      100.621      136.879       73.840        0.615        0.016      108.051        4.198        0.002      334.757        4.938      866.292
10/15/2013  01:04:00     -114.636      -21.248      -23.136       10.099       10.918        8.174      101.987      119.193       66.808        0.721        0.014      116.588        4.673        0.002      334.735        4.905      866.286
10/15/2013  01:05:00     -100.335      -19.929      -22.555       24.031        8.956       10.953      577.475       80.208      119.965        0.588        0.039      102.295       11.927        0.014      334.694        4.836      866.261
10/15/2013  01:06:00      -63.754      -22.326       -5.591       16.047       16.344       16.938      257.512      267.139      286.899        0.270        0.041       67.550       10.778        0.025      334.691        4.830      866.246
10/15/2013  01:07:00      -53.906      -32.274      -12.383       15.124       19.347       12.599      228.725      374.300      158.742        0.243        0.038       62.829        3.164        0.003      334.773        4.968      866.251
10/15/2013  01:08:00      -76.135      -17.098      -14.105       14.737       15.854       11.118      217.177      251.335      123.606        0.344        0.030       78.032        5.886        0.006      334.853        5.099      866.252
10/15/2013  01:09:00      -67.822      -13.387      -10.542       17.138       20.488       15.484      293.701      419.763      239.761        0.292        0.048       69.130       11.020        0.025      334.774        4.969      866.248
10/15/2013  01:10:00      -63.077      -19.864       -5.871       27.473       17.610       14.708      754.753      310.113      216.336        0.284        0.064       66.131       10.507        0.025      334.678        4.809      866.245
10/15/2013  01:11:00      -83.326      -34.766      -20.899       13.234       14.916       12.782      175.131      222.497      163.367        0.457        0.028       90.288        5.832        0.004      334.690        4.828      866.247
10/15/2013  01:12:00      -80.052      -31.674      -12.946       14.615       13.382       13.520      213.584      179.082      182.799        0.408        0.029       86.091        4.289        0.002      334.693        4.834      866.245
10/15/2013  01:13:00      -91.378      -42.037      -11.586       16.112       17.050        9.845      259.591      290.691       96.929        0.545        0.032      100.584        8.543        0.007      334.746        4.920      866.235
10/15/2013  01:14:00      -91.776      -42.600      -16.520       17.930       12.309       10.486      321.478      151.500      109.959        0.555        0.029      101.180        6.470        0.004      334.705        4.853      866.231
10/15/2013  01:15:00      -99.629      -35.818      -15.388       14.352       14.083       11.569      205.985      198.341      133.834        0.599        0.027      105.872        6.380        0.004      334.772        4.965      866.237
10/15/2013  01:16:00      -80.921      -32.283       -4.705       27.947       23.949       14.519      781.057      573.533      210.813        0.459        0.078       87.123       12.262        0.020      334.827        5.057      866.240
10/15/2013  01:17:00      -72.104      -23.410      -13.656       11.739       11.692        8.540      137.800      136.696       72.937        0.314        0.017       75.809        4.578        0.004      334.882        5.149      866.240
10/15/2013  01:18:00      -76.566      -27.472      -17.081        9.092        9.668        6.623       82.657       93.476       43.861        0.356        0.011       81.345        4.358        0.003      334.928        5.225      866.239
10/15/2013  01:19:00      -88.169      -24.477       -9.952       14.008       13.239       11.027      196.232      175.260      121.602        0.448        0.025       91.503        5.503        0.004      334.981        5.312      866.226
10/15/2013  01:20:00     -108.572      -42.479       -8.051       10.943       13.646        9.164      119.748      186.223       83.974        0.702        0.019      116.586        5.687        0.002      334.913        5.198      866.218
10/15/2013  01:21:00      -95.676      -26.414      -10.873       12.210       12.846        8.245      149.074      165.010       67.980        0.518        0.019       99.255        4.261        0.002      334.867        5.123      866.222
10/15/2013  01:22:00      -99.349      -23.266      -11.715       12.911       11.721       10.033      166.698      137.384      100.657        0.548        0.020      102.037        5.810        0.003      334.866        5.119      866.249
10/15/2013  01:23:00     -114.831      -17.339      -19.704       15.423       10.218        8.818      237.872      104.415       77.753        0.715        0.021      116.132        4.665        0.002      334.809        5.028      866.264
10/15/2013  01:24:00     -117.630      -18.543      -19.252       12.121       10.574       11.583      146.925      111.810      134.175        0.747        0.020      119.083        6.517        0.003      334.694        4.833      866.265
10/15/2013  01:25:00     -101.764      -29.233      -13.761       16.390       16.711        9.594      268.621      279.244       92.044        0.602        0.032      105.879        8.164        0.006      334.647        4.757      866.263
10/15/2013  01:26:00      -90.403      -44.258      -20.058       20.975       23.976       16.269      439.957      574.835      264.664        0.591        0.064      100.656       11.162        0.012      334.701        4.847      866.270
10/15/2013  01:27:00      -62.399      -49.719      -12.572       21.306       26.905       19.440      453.930      723.905      377.908        0.404        0.078       79.785       13.478        0.029      334.751        4.930      866.275
10/15/2013  01:28:00      -68.094      -13.221      -10.711       27.547       19.138       16.732      758.828      366.267      279.949        0.317        0.070       69.366       14.447        0.043      334.763        4.952      866.272
10/15/2013  01:29:00      -78.623      -22.715      -10.417       27.403       19.966       12.863      750.942      398.646      165.450        0.406        0.066       81.839       12.106        0.022      334.849        5.094      866.270
10/15/2013  01:30:00      -56.236      -15.240       -3.243       29.396       23.216       13.890      864.097      539.001      192.928        0.250        0.080       58.264       14.154        0.059      334.791        4.997      866.280
10/15/2013  01:31:00      -49.019      -23.299       -6.506       15.439       16.210       11.326      238.371      262.780      128.278        0.181        0.031       54.275       10.516        0.038      334.770        4.962      866.300
10/15/2013  01:32:00      -47.009      -39.359       -5.624       17.523       15.171       12.846      307.072      230.147      165.021        0.225        0.035       61.311        6.513        0.011      334.806        5.021      866.306
10/15/2013  01:33:00      -34.136      -36.819        0.049       27.006       14.935       16.648      729.334      223.048      277.168        0.187        0.061       50.209       14.826        0.087      334.864        5.118      866.314
10/15/2013  01:34:00       -7.972      -18.501        0.134       10.820       11.697        8.757      117.067      136.824       76.681        0.037        0.017       20.146        4.546        0.051      334.873        5.132      866.325
10/15/2013  01:35:00      -18.925      -14.975       -5.759       14.368        9.743        7.401      206.428       94.930       54.778        0.049        0.018       24.133        5.525        0.052      334.876        5.136      866.334
10/15/2013  01:36:00      -27.427      -20.553       -7.105       17.419       12.579       13.382      303.423      158.242      179.087        0.093        0.032       34.273       12.528        0.134      334.918        5.209      866.339
10/15/2013  01:37:00      -30.794      -32.105      -15.940       20.540       15.517       13.041      421.883      240.769      170.060        0.153        0.042       44.486       12.021        0.073      335.048        5.424      866.340
10/15/2013  01:38:00      -37.125      -13.098       -6.491       14.439       12.404       12.775      208.497      153.852      163.197        0.106        0.026       39.368       10.505        0.071      335.135        5.568      866.342
10/15/2013  01:39:00      -54.010      -22.384      -13.363       24.943       14.706       16.989      622.172      216.277      288.621        0.236        0.056       58.464       15.045        0.066      335.090        5.494      866.354
10/15/2013  01:40:00      -36.699      -31.502       -9.735       21.797       13.805       12.480      475.120      190.568      155.747        0.163        0.041       48.365        9.148        0.036      335.028        5.391      866.353
10/15/2013  01:41:00      -42.037      -29.594      -10.461       27.458       15.216       18.879      753.948      231.526      356.414        0.205        0.067       51.409       10.863        0.045      335.049        5.427      866.344
10/15/2013  01:42:00      -87.266       -9.587      -11.591       10.201       11.834        8.000      104.066      140.049       63.997        0.407        0.015       87.791        4.237        0.002      335.136        5.571      866.335
10/15/2013  01:43:00      -76.721       -5.403      -11.077       19.713       21.292       14.497      388.592      453.364      210.156        0.354        0.053       76.911       11.064        0.021      335.026        5.388      866.326
10/15/2013  01:44:00      -52.957      -39.402      -12.114       22.425       18.902       13.852      502.874      357.299      191.886        0.278        0.053       66.007        4.908        0.006      334.896        5.172      866.332
10/15/2013  01:45:00      -58.221      -36.414       -9.630       16.075       13.059       12.797      258.402      170.539      163.758        0.270        0.030       68.671        6.369        0.009      334.897        5.174      866.347
10/15/2013  01:46:00      -31.132      -30.229       -7.966       25.289       17.294       18.887      639.524      299.074      356.711        0.162        0.065       43.394        5.903        0.019      334.915        5.202      866.357
10/15/2013  01:47:00      -45.911      -34.826        1.668       27.071       18.631       17.481      732.854      347.132      305.593        0.235        0.069       57.625       14.679        0.065      334.819        5.043      866.358
10/15/2013  01:48:00      -83.793      -58.864       -4.540       38.087       25.936       20.304     1450.652      672.674      412.253        0.652        0.127      102.402       17.017        0.028      334.711        4.864      866.356
10/15/2013  01:49:00      -45.910      -48.631        1.313       41.543       24.413       24.020     1725.837      595.992      576.957        0.369        0.145       66.878       23.634        0.125      334.676        4.805      866.350
10/15/2013  01:50:00      -54.469      -42.709       -0.639       25.096       27.299       17.583      629.823      745.263      309.149        0.324        0.084       69.216       12.630        0.033      334.702        4.850      866.355
10/15/2013  01:51:00      -40.912      -21.079        0.458       27.798       16.235       13.104      772.718      263.573      171.703        0.166        0.060       46.023        8.000        0.030      334.732        4.898      866.366
10/15/2013  01:52:00      -29.606      -26.535        7.617       22.874       21.016       13.077      523.218      441.652      171.016        0.139        0.057       39.757       14.666        0.136      334.702        4.849      866.372
10/15/2013  01:53:00      -62.570      -62.299       -0.563       26.668       21.704       19.334      711.202      471.084      373.788        0.468        0.078       88.296       12.311        0.019      334.806        5.021      866.373
10/15/2013  01:54:00      -46.986      -40.121        3.990       27.968       28.003       15.566      782.213      784.167      242.315        0.282        0.090       61.785       14.145        0.052      334.802        5.014      866.356
10/15/2013  01:55:00      -46.084      -42.861        0.509       26.080       24.307       13.132      680.179      590.851      172.450        0.270        0.072       62.935        8.594        0.019      334.829        5.060      866.336
10/15/2013  01:56:00      -74.368      -54.495       -2.800       25.626       24.556       14.392      656.704      603.009      207.143        0.499        0.073       92.197        2.653        0.001      334.870        5.127      866.321
10/15/2013  01:57:00      -48.584      -41.877        0.104       29.294       20.277       16.318      858.160      411.168      266.261        0.282        0.077       64.142       11.650        0.033      334.809        5.027      866.318
10/15/2013  01:58:00      -32.613      -31.217        6.319       44.329       22.849       20.047     1965.024      522.072      401.871        0.248        0.144       45.145       22.131        0.240      334.725        4.888      866.330
10/15/2013  01:59:00      -63.902      -59.620        0.157       36.412       28.624       19.146     1325.806      819.316      366.561        0.507        0.126       87.395       19.310        0.049      334.765        4.954      866.354
10/15/2013  02:00:00      -77.810      -45.814        0.912       36.446       23.139       15.676     1328.342      535.418      245.729        0.513        0.105       90.295       10.521        0.014      334.705        4.853      866.369
10/15/2013  02:01:00      -59.593      -48.808        0.915       30.462       24.912       16.876      927.919      620.600      284.808        0.388        0.092       77.030       15.420        0.040      334.708        4.858      866.379
10/15/2013  02:02:00      -63.568      -40.998       -0.393       30.843       18.392       14.864      951.291      338.254      220.940        0.362        0.076       75.642        9.794        0.017      334.650        4.763      866.380
10/15/2013  02:03:00      -41.518      -31.444        0.043       30.662       20.945       17.174      940.176      438.707      294.930        0.219        0.084       52.081       15.915        0.093      334.710        4.863      866.380
10/15/2013  02:04:00      -38.039      -33.200       11.124       38.683       22.475       19.067     1496.338      505.133      363.568        0.252        0.118       50.490       21.081        0.174      334.657        4.775      866.385
10/15/2013  02:05:00      -77.912      -30.912       -1.145       41.400       15.920       15.902     1713.987      253.433      252.871        0.462        0.111       83.820       20.051        0.057      334.630        4.728      866.388
10/15/2013  02:06:00      -89.921      -33.212      -11.862       14.015       12.962       12.643      196.426      168.018      159.836        0.493        0.026       95.859        6.990        0.005      334.657        4.773      866.389
10/15/2013  02:07:00      -88.340      -17.697      -10.425        9.261       14.402       10.842       85.763      207.412      117.543        0.432        0.021       90.095        3.159        0.001      334.567        4.623      866.383
10/15/2013  02:08:00      -84.786      -12.529      -10.701       18.756       15.275       11.756      351.788      233.311      138.199        0.409        0.036       85.706        9.194        0.012      334.639        4.743      866.375
10/15/2013  02:09:00      -92.970      -24.509      -11.256       11.077       11.490        6.815      122.692      132.010       46.442        0.484        0.015       96.146        3.220        0.001      334.671        4.798      866.365
10/15/2013  02:10:00      -94.871      -16.716      -15.107        9.915        8.231        9.882       98.304       67.746       97.658        0.489        0.013       96.333        3.278        0.001      334.618        4.709      866.362
10/15/2013  02:11:00      -91.577      -16.905      -12.448       11.790       10.071        8.123      139.005      101.427       65.983        0.457        0.015       93.125        5.948        0.004      334.610        4.696      866.357
10/15/2013  02:12:00      -87.367      -27.162      -11.358       10.531       10.092        8.737      110.900      101.851       76.338        0.439        0.014       91.492        4.435        0.002      334.584        4.653      866.343
10/15/2013  02:13:00      -91.191      -29.438       -8.635        8.870       11.134        7.369       78.684      123.972       54.296        0.476        0.013       95.825        2.313        0.001      334.618        4.710      866.335
10/15/2013  02:14:00      -78.108      -35.782       -7.963       14.035       13.732       12.466      196.977      188.580      155.410        0.399        0.027       85.914        8.724        0.010      334.602        4.683      866.347
10/15/2013  02:15:00      -90.288      -37.049      -12.506       12.392       11.436        7.026      153.550      130.777       49.367        0.501        0.017       97.594        4.167        0.002      334.490        4.496      866.362
10/15/2013  02:16:00      -76.563      -37.673       -6.900       10.889       10.057        8.071      118.577      101.145       65.149        0.381        0.014       85.329        4.655        0.003      334.510        4.531      866.371
10/15/2013  02:17:00      -28.797      -29.007        3.083       41.729       20.244       16.176     1741.341      409.810      261.663        0.205        0.121       40.874       19.669        0.232      334.422        4.387      866.363
10/15/2013  02:18:00      -83.455      -47.539       -4.494       36.088       21.535       15.430     1302.311      463.772      238.078        0.562        0.100       96.045       17.826        0.034      334.379        4.314      866.337
10/15/2013  02:19:00      -96.123      -38.702       -9.329        9.538       10.115        8.992       90.965      102.304       80.854        0.555        0.014      103.622        5.695        0.003      334.358        4.279      866.310
10/15/2013  02:20:00      -77.567      -29.318      -10.653        6.424        6.990        5.824       41.268       48.854       33.918        0.356        0.006       82.923        3.516        0.002      334.377        4.309      866.302
10/15/2013  02:21:00      -81.776      -25.576      -10.871       11.650       10.840        7.806      135.721      117.503       60.935        0.389        0.016       85.683        3.689        0.002      334.387        4.326      866.303
10/15/2013  02:22:00     -102.802      -39.210      -17.856        8.881       10.805        7.926       78.873      116.754       62.825        0.634        0.013      110.026        4.169        0.001      334.428        4.394      866.309
10/15/2013  02:23:00     -118.896      -44.948      -17.360        8.768        9.583        7.347       76.875       91.829       53.976        0.834        0.011      127.108        5.067        0.002      334.290        4.165      866.312
10/15/2013  02:24:00     -103.760      -51.527      -11.141       10.255       14.110        9.910      105.164      199.097       98.201        0.697        0.020      115.849        5.675        0.002      334.312        4.203      866.321
10/15/2013  02:25:00     -103.049      -45.457      -14.711       14.079       11.941       11.842      198.218      142.595      140.233        0.669        0.024      112.629        6.434        0.003      334.242        4.086      866.330
10/15/2013  02:26:00      -81.732      -42.846       -7.801       17.750       10.840       12.224      315.049      117.497      149.433        0.458        0.029       92.282       10.653        0.013      334.248        4.095      866.343
10/15/2013  02:27:00      -60.354      -26.735      -10.698       11.521        7.384        7.587      132.740       54.524       57.561        0.236        0.012       66.010        1.270        0.000      334.300        4.181      866.353
10/15/2013  02:28:00      -50.222      -20.851       -6.432       14.574        9.351        6.589      212.402       87.450       43.420        0.167        0.017       54.379        5.266        0.009      334.278        4.144      866.355
10/15/2013  02:29:00      -72.180      -23.171       -7.049        9.410       14.555       12.541       88.546      211.834      157.277        0.313        0.023       75.807        8.853        0.014      334.316        4.208      866.350
10/15/2013  02:30:00      -64.474      -27.687      -13.511       10.386       14.439        9.701      107.865      208.489       94.105        0.276        0.021       70.168        8.598        0.015      334.224        4.055      866.345
10/15/2013  02:31:00      -63.697      -43.839      -19.437       19.342       15.486       11.763      374.130      239.822      138.362        0.355        0.038       77.325        9.524        0.015      334.279        4.148      866.355
10/15/2013  02:32:00      -58.379      -49.920      -14.266       25.253       20.797       18.344      637.701      432.508      336.503        0.375        0.070       76.812       17.001        0.049      334.238        4.078      866.362
10/15/2013  02:33:00      -60.527      -58.550       -9.197       27.068       17.399       18.446      732.651      302.710      340.251        0.428        0.069       84.212       16.334        0.038      334.225        4.057      866.370
10/15/2013  02:34:00      -66.825      -65.732      -15.210       19.992       17.812       15.174      399.685      317.252      230.252        0.498        0.047       93.735        9.099        0.009      334.205        4.025      866.364
10/15/2013  02:35:00      -44.092      -58.860       -3.734       31.019       27.572       23.834      962.187      760.202      568.043        0.386        0.115       73.544       22.916        0.097      334.173        3.970      866.352
10/15/2013  02:36:00      -67.411      -28.326       -6.994       33.720       15.994       18.020     1137.063      255.794      324.733        0.356        0.086       73.120       19.177        0.069      334.149        3.931      866.345
10/15/2013  02:37:00      -69.802      -47.891      -11.416       14.517       21.199       11.467      210.750      449.394      131.491        0.404        0.040       84.652        2.915        0.001      334.137        3.910      866.342
10/15/2013  02:38:00      -88.926      -33.877      -12.883       18.346       17.061       14.686      336.590      291.063      215.691        0.503        0.042       95.161        9.604        0.010      334.122        3.886      866.327
10/15/2013  02:39:00      -65.792      -33.393      -12.634       13.594       16.473       11.443      184.802      271.366      130.938        0.310        0.029       73.781        7.856        0.011      334.163        3.953      866.321
10/15/2013  02:40:00      -68.551      -28.301      -10.571       23.400       18.958       15.101      547.548      359.404      228.050        0.337        0.057       74.163       11.330        0.023      334.283        4.155      866.301
10/15/2013  02:41:00      -67.674      -10.992       -6.766       14.170       13.501       10.171      200.797      182.282      103.458        0.262        0.024       68.561        7.952        0.013      334.203        4.021      866.295
10/15/2013  02:42:00      -81.260      -26.302      -11.818       15.401       16.674       11.478      237.177      278.017      131.753        0.404        0.032       85.411        5.201        0.004      334.284        4.156      866.303
10/15/2013  02:43:00      -70.597      -29.144       -9.522       15.714       13.764       10.555      246.941      189.452      111.415        0.324        0.027       76.376        5.960        0.006      334.221        4.051      866.300
10/15/2013  02:44:00      -36.559      -28.710       -4.662       15.490       17.740       13.334      239.938      314.697      177.805        0.146        0.037       46.485        8.237        0.031      334.278        4.147      866.297
10/15/2013  02:45:00      -14.068      -35.083       -0.769       18.051       15.877       13.825      325.830      252.068      191.125        0.110        0.038       37.798        9.104        0.058      334.441        4.416      866.288
10/15/2013  02:46:00      -38.945      -40.795       -6.739       21.594       14.884       11.110      466.287      221.548      123.431        0.202        0.041       56.400        3.980        0.005      334.418        4.378      866.287
10/15/2013  02:47:00      -46.175      -19.127       -9.253       12.228       15.840        8.833      149.527      250.915       78.029        0.153        0.024       49.980        6.170        0.015      334.579        4.645      866.296
10/15/2013  02:48:00      -52.608      -27.283       -6.880       10.881       12.876        8.422      118.390      165.781       70.922        0.196        0.018       59.262        4.264        0.005      334.488        4.494      866.288
10/15/2013  02:49:00      -44.488      -24.477       -6.501       12.854       11.364        9.719      165.215      129.135       94.458        0.150        0.019       50.777        7.528        0.022      334.498        4.511      866.289
10/15/2013  02:50:00      -44.404      -28.282      -11.950       12.276        9.175        8.233      150.706       84.174       67.780        0.161        0.015       52.645        6.061        0.013      334.536        4.573      866.296
10/15/2013  02:51:00      -45.294      -30.617       -3.053       17.579       14.310       11.878      309.037      204.782      141.095        0.183        0.033       54.671        7.988        0.021      334.493        4.502      866.304
10/15/2013  02:52:00      -58.283      -34.915       -6.267       18.557       13.782       10.173      344.344      189.947      103.498        0.265        0.032       67.940        8.165        0.014      334.325        4.225      866.298
10/15/2013  02:53:00      -70.439      -21.797      -10.132        6.799       11.055        7.524       46.226      122.210       56.608        0.288        0.011       73.735        5.401        0.005      334.414        4.371      866.294
10/15/2013  02:54:00      -71.280      -23.694      -13.107        9.300        9.343        7.483       86.497       87.287       55.998        0.302        0.011       75.114        4.365        0.003      334.444        4.420      866.289
10/15/2013  02:55:00      -94.838      -33.227      -13.807        7.725        9.036        7.512       59.675       81.653       56.429        0.524        0.010      100.490        4.070        0.002      334.342        4.253      866.275
10/15/2013  02:56:00      -98.261      -34.084      -11.647       14.194       11.346        8.811      201.461      128.738       77.633        0.568        0.020      104.004        3.942        0.001      334.373        4.303      866.269
10/15/2013  02:57:00      -50.324      -37.341        0.806       29.012       20.591       18.267      841.723      423.991      333.667        0.276        0.080       62.665       16.300        0.068      334.196        4.011      866.250
10/15/2013  02:58:00      -22.787      -22.628        8.676       29.224       16.532       13.698      854.020      273.295      187.645        0.121        0.066       32.113       14.879        0.215      334.158        3.945      866.244
10/15/2013  02:59:00      -22.007      -32.232        9.721       25.583       17.618       15.555      654.464      310.393      241.972        0.141        0.060       39.029       13.529        0.120      334.189        3.998      866.241
10/15/2013  03:00:00      -66.722      -53.366       -1.904       30.139       22.703       18.809      908.349      515.415      353.796        0.454        0.089       85.439       12.475        0.021      334.238        4.079      866.255
10/15/2013  03:01:00      -69.924      -65.810        1.576       26.613       31.434       17.885      708.230      988.076      319.868        0.562        0.101       96.023        8.766        0.008      334.343        4.254      866.263
10/15/2013  03:02:00      -67.094      -47.044        1.566       40.962       30.981       26.419     1677.857      959.808      697.975        0.503        0.167       81.943       15.694        0.037      334.192        4.003      866.267
10/15/2013  03:03:00      -83.670      -54.332        5.625       46.947       26.426       20.754     2203.980      698.307      430.708        0.666        0.167       99.763       17.740        0.032      334.162        3.953      866.263
10/15/2013  03:04:00      -57.282      -51.484        6.801       43.977       33.584       20.282     1933.994     1127.896      411.378        0.472        0.174       77.019       19.949        0.067      334.141        3.918      866.267
10/15/2013  03:05:00      -73.491      -72.656        1.897       37.656       54.793       24.938     1417.996     3002.319      621.904        0.786        0.252      103.344       24.831        0.058      334.128        3.897      866.280
10/15/2013  03:06:00      -73.379      -97.172       -9.165       45.958       42.799       23.273     2112.157     1831.723      541.640        0.970        0.224      121.766       22.217        0.033      334.232        4.069      866.294
10/15/2013  03:07:00     -114.704      -61.495      -20.032       39.815       32.189       25.050     1585.229     1036.104      627.508        1.029        0.162      130.148       15.059        0.013      334.164        3.956      866.286
10/15/2013  03:08:00     -133.520      -82.041      -10.590       42.735       48.930       26.402     1826.259     2394.178      697.056        1.479        0.246      156.711       25.518        0.027      334.129        3.896      866.278
10/15/2013  03:09:00     -126.172      -78.231        0.108       55.342       34.928       25.007     3062.742     1219.986      625.361        1.347        0.245      148.457       27.665        0.035      334.030        3.735      866.266
10/15/2013  03:10:00      -95.321      -65.219       -5.081       44.531       31.657       25.392     1983.023     1002.197      644.730        0.850        0.181      115.497       20.030        0.030      333.967        3.630      866.257
10/15/2013  03:11:00     -115.210      -71.322       -1.582       41.496       29.932       26.601     1721.893      895.946      707.591        1.084        0.166      135.500       28.934        0.046      333.954        3.608      866.266
10/15/2013  03:12:00     -112.230      -61.151        3.306       42.087       27.142       23.011     1771.356      736.664      529.522        0.969        0.152      127.809       18.564        0.021      333.910        3.536      866.266
10/15/2013  03:13:00     -121.974      -64.172       -1.931       33.841       32.315       21.057     1145.239     1044.260      443.383        1.082        0.132      137.825       18.747        0.019      333.879        3.484      866.257
10/15/2013  03:14:00     -110.633      -69.699       -2.168       36.662       34.500       21.810     1344.098     1190.244      475.664        1.006        0.151      130.758       13.270        0.010      333.863        3.457      866.256
10/15/2013  03:15:00     -101.749      -72.814       -7.928       45.437       28.154       23.168     2064.513      792.653      536.777        0.956        0.170      125.118       16.537        0.017      333.864        3.459      866.253
10/15/2013  03:16:00     -141.203     -101.680       -8.836       30.506       31.518       23.576      930.631      993.358      555.848        1.642        0.124      174.003       16.285        0.009      333.857        3.448      866.238
10/15/2013  03:17:00     -143.206      -82.118       -9.487       31.164       22.738       20.702      971.164      517.008      428.575        1.463        0.096      165.080       13.599        0.007      333.847        3.430      866.232
10/15/2013  03:18:00     -134.775      -83.965      -16.304       29.585       33.146       19.167      875.252     1098.646      367.391        1.391        0.117      158.790       11.552        0.005      333.862        3.455      866.225
10/15/2013  03:19:00      -97.174      -67.519       -3.520       39.396       27.043       21.769     1552.023      731.309      473.897        0.839        0.138      118.328       16.764        0.020      333.883        3.490      866.233
10/15/2013  03:20:00      -88.028      -75.478       11.194       51.683       31.819       25.655     2671.156     1012.443      658.154        0.896        0.217      115.957       25.374        0.048      333.841        3.420      866.241
10/15/2013  03:21:00     -148.805      -91.311        0.995       39.819       38.034       28.015     1585.588     1446.576      784.862        1.715        0.191      174.588       24.394        0.020      333.777        3.313      866.233
10/15/2013  03:22:00     -107.046      -79.963       -6.256       51.902       44.154       29.494     2693.827     1949.610      869.894        1.170        0.276      133.615       27.610        0.043      333.766        3.296      866.225
10/15/2013  03:23:00     -135.896      -58.516       -0.569       40.667       26.945       19.731     1653.845      726.022      389.331        1.233        0.138      147.959       17.920        0.015      333.666        3.130      866.238
10/15/2013  03:24:00     -120.934      -71.666       -3.875       49.292       29.448       23.163     2429.723      867.162      536.509        1.180        0.192      140.574       24.168        0.030      333.726        3.230      866.223
10/15/2013  03:25:00     -110.562      -55.053        8.035       46.215       41.975       24.647     2135.809     1761.890      607.491        0.991        0.225      123.511       22.896        0.034      333.719        3.219      866.200
10/15/2013  03:26:00      -78.475      -67.674        6.456       66.225       37.695       31.368     4385.715     1420.913      983.937        0.878        0.340      103.625       33.900        0.107      333.774        3.310      866.188
10/15/2013  03:27:00      -65.211      -56.130       15.428       70.642       42.092       30.125     4990.246     1771.697      907.518        0.765        0.383       86.041       30.896        0.129      333.836        3.412      866.164
10/15/2013  03:28:00      -95.630      -58.096        7.531       58.065       36.482       29.226     3371.559     1330.927      854.147        0.907        0.278      111.894       29.895        0.071      333.880        3.484      866.142
10/15/2013  03:29:00      -77.388      -64.808        9.346       60.617       47.722       29.740     3674.481     2277.357      884.453        0.855        0.342      100.940       28.617        0.080      333.874        3.476      866.139
10/15/2013  03:30:00     -123.881      -76.806        5.684       44.720       40.053       24.062     1999.921     1604.238      578.994        1.273        0.209      145.759       20.799        0.020      333.918        3.548      866.133
10/15/2013  03:31:00     -137.200      -49.223        0.978       50.857       32.350       26.227     2586.419     1046.511      687.840        1.278        0.216      145.763       18.599        0.016      333.958        3.613      866.134
10/15/2013  03:32:00     -148.943      -58.095        6.292       32.854       25.837       19.729     1079.361      667.571      389.252        1.387        0.107      159.872       19.409        0.015      333.953        3.605      866.139
10/15/2013  03:33:00     -137.339      -37.449       -0.311       31.364       35.996       21.979      983.691     1295.724      483.090        1.151        0.138      142.353       17.614        0.015      333.809        3.367      866.150
10/15/2013  03:34:00      -99.812      -27.743        6.968       42.333       32.500       18.525     1792.068     1056.231      343.166        0.699        0.160      103.596       13.981        0.018      333.767        3.297      866.145
10/15/2013  03:35:00      -97.076      -44.850        6.328       45.618       27.443       19.954     2081.034      753.093      398.165        0.735        0.162      106.936       21.418        0.040      333.812        3.373      866.146
10/15/2013  03:36:00     -112.942      -53.090       -1.557       41.501       28.221       15.131     1722.368      796.451      228.958        0.916        0.137      124.798       10.485        0.007      333.841        3.421      866.156
10/15/2013  03:37:00      -61.017      -45.618        8.777       44.218       24.520       23.899     1955.242      601.218      571.163        0.450        0.156       76.184       26.518        0.121      333.800        3.352      866.159
10/15/2013  03:38:00     -100.997      -56.936        4.746       46.480       26.268       20.580     2160.373      690.005      423.527        0.837        0.164      115.940       22.911        0.039      333.726        3.230      866.149
10/15/2013  03:39:00     -102.319      -68.650       -4.577       44.936       25.466       20.081     2019.247      648.530      403.243        0.914        0.154      123.215        4.517        0.001      333.701        3.189      866.154
10/15/2013  03:40:00     -121.706      -81.806       -0.881       28.603       24.615       17.063      818.147      605.884      291.149        1.161        0.086      146.645       10.662        0.005      333.627        3.065      866.150
10/15/2013  03:41:00      -86.309      -64.060        6.855       50.341       43.547       28.701     2534.217     1896.357      823.722        0.843        0.263      107.485       29.152        0.074      333.642        3.091      866.142
10/15/2013  03:42:00      -83.659      -60.455        6.304       52.158       41.420       28.595     2720.412     1715.639      817.647        0.797        0.263      103.216       33.208        0.104      333.669        3.136      866.147
10/15/2013  03:43:00     -101.428      -53.799        5.324       58.926       35.910       26.089     3472.280     1289.560      680.661        0.933        0.272      114.813       27.986        0.059      333.710        3.204      866.164
10/15/2013  03:44:00      -76.594      -49.454       10.012       51.476       30.716       24.726     2649.732      943.479      611.395        0.631        0.210       91.173       25.710        0.080      333.687        3.164      866.173
10/15/2013  03:45:00      -95.543      -64.076        5.362       42.768       25.978       23.092     1829.115      674.859      533.224        0.815        0.152      115.040       23.169        0.041      333.909        3.533      866.181
10/15/2013  03:46:00      -98.907      -47.117        5.195       29.678       19.257       15.195      880.798      370.831      230.903        0.676        0.074      109.557       10.004        0.008      333.972        3.637      866.184
10/15/2013  03:47:00     -115.397      -42.739        1.051       34.136       25.837       16.604     1165.264      667.565      275.690        0.863        0.105      123.057       10.945        0.008      333.908        3.531      866.179
10/15/2013  03:48:00     -115.631      -34.128       -7.555       27.049       22.329       14.995      731.622      498.580      224.860        0.802        0.073      120.562       10.774        0.008      333.787        3.331      866.175
10/15/2013  03:49:00     -142.044      -44.755       -7.763       15.754       16.982       12.080      248.192      288.377      145.928        1.146        0.034      148.928       10.183        0.005      333.729        3.234      866.172
10/15/2013  03:50:00     -133.095      -33.368       -2.647       35.344       23.051       19.983     1249.211      531.351      399.326        1.051        0.109      137.214       22.064        0.026      333.704        3.192      866.187
10/15/2013  03:51:00     -136.805      -19.830      -12.015       22.622       15.861       14.342      511.741      251.569      205.690        1.011        0.048      138.235       11.815        0.007      333.671        3.137      866.197
10/15/2013  03:52:00     -114.257      -40.569      -12.299       22.717       16.784       16.846      516.045      281.687      283.780        0.797        0.054      121.245       13.960        0.013      333.587        2.999      866.210
10/15/2013  03:53:00     -103.027      -47.446      -11.098       14.859       16.904       11.839      220.803      285.741      140.166        0.682        0.032      113.427        8.061        0.005      333.607        3.033      866.221
10/15/2013  03:54:00      -65.780      -54.176      -22.697       31.335       21.646       17.881      981.860      468.556      319.727        0.477        0.089       85.218       12.899        0.023      333.602        3.025      866.239
10/15/2013  03:55:00      -98.747      -59.798       -8.816       20.768       19.055       13.921      431.290      363.108      193.795        0.720        0.049      115.442        5.821        0.003      333.588        3.001      866.232
10/15/2013  03:56:00      -93.057      -42.159       -1.262       23.034       27.170       14.375      530.551      738.207      206.629        0.596        0.074      102.161       11.033        0.012      333.611        3.039      866.219
10/15/2013  03:57:00      -96.167      -23.216      -10.065       24.131       25.055       13.957      582.320      627.771      194.812        0.565        0.070       98.930       11.172        0.013      333.712        3.205      866.216
10/15/2013  03:58:00      -70.520      -39.898        1.130       25.397       32.111       15.675      644.995     1031.090      245.710        0.424        0.096       81.024        9.165        0.013      333.742        3.257      866.215
10/15/2013  03:59:00     -101.460      -30.632       -8.004       22.652       17.438       12.677      513.113      304.067      160.698        0.614        0.049      105.983       10.706        0.010      333.712        3.205      866.211
10/15/2013  04:00:00      -96.876      -20.734      -10.682       20.111       21.577       13.606      404.455      465.551      185.130        0.549        0.053       99.069        9.908        0.010      333.733        3.242      866.219
10/15/2013  04:01:00     -103.488      -17.681       -8.047       24.204       31.299       17.552      585.821      979.632      308.078        0.648        0.094      104.988        8.785        0.007      333.814        3.375      866.235
10/15/2013  04:02:00     -100.635      -15.004       -0.610       31.395       24.429       15.884      985.629      596.778      252.301        0.609        0.092      101.748       12.607        0.015      333.884        3.492      866.248
10/15/2013  04:03:00      -88.746      -42.581       -4.987       21.124       21.442       18.137      446.221      459.751      328.958        0.547        0.062       98.433       12.383        0.016      333.873        3.473      866.253
10/15/2013  04:04:00      -87.169      -19.412       -4.660       29.273       22.303       16.902      856.918      497.416      285.676        0.482        0.082       89.305       13.410        0.023      333.827        3.397      866.259
10/15/2013  04:05:00     -121.526       12.946       -9.375       44.516       33.633       23.208     1981.678     1131.180      538.634        0.934        0.183      122.214       22.229        0.033      334.027        3.730      866.272
10/15/2013  04:06:00     -117.826       12.190       -8.162       36.390       30.831       21.763     1324.229      950.523      473.641        0.842        0.137      118.455       16.456        0.019      333.970        3.635      866.287
10/15/2013  04:07:00     -150.273       24.408      -12.759       29.691       23.611       15.640      881.561      557.475      244.597        1.251        0.084      152.243       12.382        0.007      334.028        3.730      866.296
10/15/2013  04:08:00      -95.900       -3.794       -2.511       29.519       25.355       12.711      871.353      642.855      161.565        0.545        0.084       95.975        7.965        0.007      333.942        3.590      866.305
10/15/2013  04:09:00     -111.479       11.121      -12.033       37.468       25.530       18.699     1403.876      651.780      349.657        0.755        0.120      112.032       15.052        0.018      333.967        3.630      866.309
10/15/2013  04:10:00     -126.147      -19.719       -5.988       31.287       41.696       23.773      978.864     1738.568      565.161        0.981        0.164      127.679       17.878        0.020      334.010        3.700      866.320
10/15/2013  04:11:00     -137.536      -30.026       -7.737       35.269       32.337       21.902     1243.869     1045.709      479.707        1.132        0.138      140.776       16.541        0.014      333.935        3.576      866.322
10/15/2013  04:12:00     -122.703      -37.135       -8.248       35.097       37.700       23.600     1231.779     1421.315      556.938        0.986        0.161      128.199       18.314        0.020      333.881        3.486      866.320
10/15/2013  04:13:00     -136.950      -12.542      -11.714       33.442       27.111       19.945     1118.352      734.987      397.786        1.065        0.113      137.524       16.467        0.014      333.786        3.329      866.323
10/15/2013  04:14:00     -121.570      -20.483       -9.627       22.944       33.860       17.009      526.414     1146.480      289.317        0.863        0.098      123.284       14.929        0.015      333.728        3.233      866.335
10/15/2013  04:15:00     -127.513      -20.403       -9.456       39.469       21.949       17.943     1557.764      481.752      321.954        0.956        0.118      129.135       13.306        0.011      333.786        3.330      866.341
10/15/2013  04:16:00     -137.192      -34.164       -2.285       37.119       23.789       19.162     1377.844      565.939      367.191        1.115        0.116      141.382       18.140        0.016      333.729        3.234      866.365
10/15/2013  04:17:00     -155.318      -33.711      -10.213       27.788       21.257       14.432      772.186      451.854      208.292        1.340        0.072      158.934        7.373        0.002      333.769        3.302      866.381
10/15/2013  04:18:00     -145.481      -53.019       -5.208       39.176       24.107       23.113     1534.733      581.163      534.222        1.333        0.133      154.841       24.848        0.026      333.679        3.152      866.392
10/15/2013  04:19:00     -109.386      -60.633      -11.726       54.232       20.756       18.670     2941.086      430.811      348.558        0.975        0.186      125.066       18.185        0.021      333.738        3.248      866.398
10/15/2013  04:20:00     -102.235      -56.060       -0.648       48.257       32.596       22.373     2328.757     1062.527      500.571        0.874        0.195      116.597       23.489        0.041      333.698        3.183      866.404
10/15/2013  04:21:00      -48.831      -45.695        5.697       47.435       33.397       22.996     2250.052     1115.387      528.834        0.420        0.195       66.877       21.956        0.108      333.616        3.048      866.415
10/15/2013  04:22:00      -31.974      -30.690       -0.736       47.245       23.952       18.741     2232.085      573.677      351.222        0.256        0.158       44.320       17.774        0.161      333.667        3.132      866.425
10/15/2013  04:23:00      -68.451      -32.278        7.041       34.678       24.022       16.538     1202.581      577.038      273.515        0.391        0.103       75.680       11.467        0.023      333.606        3.031      866.427
10/15/2013  04:24:00      -66.287      -43.296       12.056       50.074       36.935       22.892     2507.424     1364.195      524.055        0.540        0.220       79.173       18.207        0.053      333.536        2.914      866.428
10/15/2013  04:25:00      -86.939      -57.183        6.550       45.363       40.048       22.004     2057.799     1603.851      484.183        0.751        0.207      104.059       23.868        0.053      333.473        2.810      866.419
10/15/2013  04:26:00     -109.385      -61.386       -3.622       34.959       19.463       18.841     1222.123      378.818      354.977        0.885        0.098      125.433       18.190        0.021      333.437        2.750      866.413
10/15/2013  04:27:00      -71.986      -50.345        8.145       54.612       23.367       22.525     2982.446      545.994      507.378        0.591        0.202       87.844       28.942        0.109      333.361        2.625      866.415
10/15/2013  04:28:00      -87.904      -74.055        0.336       27.281       23.595       16.181      744.239      556.726      261.840        0.739        0.078      114.940       13.417        0.014      333.405        2.697      866.431
10/15/2013  04:29:00      -88.127      -60.737        2.017       38.195       25.630       18.422     1458.883      656.902      339.359        0.696        0.123      107.030       21.607        0.041      333.417        2.716      866.445
10/15/2013  04:30:00      -83.503      -48.407        1.177       49.151       28.380       19.501     2415.811      805.398      380.296        0.646        0.180       96.519       18.917        0.038      333.397        2.684      866.450
10/15/2013  04:31:00      -90.309      -48.391        0.759       31.639       23.584       17.700     1001.014      556.212      313.281        0.618        0.094      102.457       14.329        0.020      333.391        2.676      866.451
10/15/2013  04:32:00      -64.577      -37.630       10.333       39.657       29.819       19.617     1572.682      889.197      384.820        0.427        0.142       74.741       18.733        0.063      333.399        2.687      866.453
10/15/2013  04:33:00      -66.146      -41.265        5.217       41.243       23.373       19.139     1700.947      546.310      366.284        0.436        0.131       77.962       18.342        0.055      333.461        2.791      866.451
10/15/2013  04:34:00      -90.314      -33.293       -8.214       16.669       19.639        9.329      277.868      385.706       87.035        0.504        0.038       96.255        1.524        0.000      333.439        2.754      866.464
10/15/2013  04:35:00      -92.684      -31.112       -4.483       22.772       28.443       13.426      518.558      808.981      180.271        0.554        0.075       97.766        8.194        0.007      333.440        2.755      866.478
10/15/2013  04:36:00      -84.574      -28.391      -11.922       17.592       13.855       13.798      309.486      191.958      190.396        0.440        0.035       89.212        4.986        0.003      333.487        2.833      866.482
10/15/2013  04:37:00      -61.760      -42.921       -3.654       33.919       26.105       15.601     1150.486      681.459      243.388        0.387        0.104       75.210       14.717        0.038      333.571        2.972      866.484
10/15/2013  04:38:00      -75.343      -41.176       -2.120       31.558       20.026       14.198      995.876      401.034      201.578        0.449        0.080       85.861       14.005        0.027      333.514        2.878      866.475
10/15/2013  04:39:00      -57.261      -39.705       -4.058       25.449       17.247       14.617      647.649      297.471      213.654        0.302        0.058       69.681        9.390        0.018      333.482        2.824      866.476
10/15/2013  04:40:00      -59.064      -37.469       -5.238       21.181       19.637       15.256      448.634      385.602      232.750        0.299        0.053       69.946        9.771        0.020      333.480        2.821      866.487
10/15/2013  04:41:00        6.472      -23.324        3.326       16.980       15.441       11.267      288.333      238.439      126.948        0.063        0.033       24.205        4.686        0.037      333.458        2.786      866.487
10/15/2013  04:42:00       -1.929      -19.871        3.630       23.859       14.226       12.184      569.256      202.386      148.454        0.067        0.046       19.965       11.168        0.313      333.425        2.730      866.488
10/15/2013  04:43:00      -53.689      -54.119       -3.302       18.157       12.730       10.341      329.690      162.056      106.943        0.321        0.030       76.233        5.056        0.004      333.418        2.719      866.482
10/15/2013  04:44:00      -60.141      -41.178        2.431       28.777       23.757       20.747      828.087      564.391      430.424        0.357        0.091       72.888       19.698        0.073      333.400        2.690      866.477
10/15/2013  04:45:00      -68.892      -39.898       -9.928       15.708       13.055        8.599      246.731      170.433       73.940        0.346        0.025       79.611        1.484        0.000      333.385        2.665      866.470
10/15/2013  04:46:00      -51.399      -47.630       -5.887       22.335       13.986       13.542      498.843      195.608      183.394        0.291        0.044       70.075        7.641        0.012      333.410        2.706      866.469
10/15/2013  04:47:00      -59.763      -47.672       -4.934       20.948       16.018       13.847      438.836      256.575      191.750        0.338        0.044       76.448       11.398        0.022      333.434        2.746      866.460
10/15/2013  04:48:00      -62.036      -52.736       -8.673       17.463       12.721       10.787      304.948      161.834      116.357        0.364        0.029       81.422        9.250        0.013      333.404        2.695      866.448
10/15/2013  04:49:00      -71.008      -48.000      -10.647       16.660       12.998        8.655      277.545      168.937       74.906        0.399        0.026       85.710        6.091        0.005      333.374        2.647      866.432
10/15/2013  04:50:00      -57.030      -27.772        0.044       30.260       14.821       11.315      915.692      219.672      128.019        0.264        0.063       63.433       15.728        0.061      333.386        2.667      866.420
10/15/2013  04:51:00      -43.999      -28.492       -4.111       31.032       17.163       13.745      962.960      294.560      188.938        0.211        0.072       52.419       12.280        0.055      333.384        2.664      866.420
10/15/2013  04:52:00      -36.468      -27.730       -4.781       15.503       11.716        8.801      240.335      137.276       77.456        0.129        0.023       45.813        3.260        0.005      333.409        2.704      866.436
10/15/2013  04:53:00      -42.443      -31.678       -4.683       19.957        9.568        6.766      398.296       91.549       45.779        0.168        0.027       52.961        3.750        0.005      333.349        2.606      866.451
10/15/2013  04:54:00      -18.935      -17.769       -1.979       19.749       11.949        8.655      390.027      142.790       74.905        0.064        0.030       25.967        6.204        0.057      333.388        2.671      866.464
10/15/2013  04:55:00      -15.914      -16.653        2.353       19.760       12.654       11.494      390.460      160.112      132.109        0.061        0.034       23.034        7.433        0.104      333.456        2.783      866.468
10/15/2013  04:56:00      -56.655      -31.760       -2.035       22.538       18.307       12.353      507.953      335.139      152.600        0.261        0.050       64.950        9.769        0.023      333.362        2.628      866.470
10/15/2013  04:57:00      -55.812      -41.298        2.927       27.023       14.308       16.215      730.252      204.732      262.920        0.301        0.060       69.430       14.921        0.046      333.349        2.606      866.478
10/15/2013  04:58:00      -20.312      -17.573        1.731       21.771       14.379       12.285      473.987      206.745      150.911        0.078        0.042       26.859       12.672        0.223      333.342        2.593      866.484
10/15/2013  04:59:00      -47.123      -28.363       -4.817       15.436       11.149        9.583      238.278      124.292       91.843        0.175        0.023       55.000        6.268        0.013      333.338        2.586      866.480
10/15/2013  05:00:00      -54.317      -20.712       -2.205       16.975       12.415       10.363      288.159      154.126      107.390        0.197        0.027       58.132        8.709        0.022      333.325        2.567      866.480
10/15/2013  05:01:00      -17.255      -25.054        8.023       24.481       14.746       12.921      599.319      217.451      166.964        0.099        0.049       30.421       13.596        0.200      333.265        2.466      866.472
10/15/2013  05:02:00      -48.546      -27.774       -2.133       29.215       17.691       11.337      853.533      312.968      128.533        0.221        0.065       55.930       13.023        0.054      333.261        2.459      866.463
10/15/2013  05:03:00      -23.303      -17.538        5.587       26.655       14.505       12.407      710.488      210.407      153.930        0.098        0.054       29.166       13.605        0.218      333.236        2.418      866.458
10/15/2013  05:04:00      -27.353      -19.876        9.079       33.060       12.667       13.415     1092.946      160.445      179.950        0.133        0.072       33.812       12.743        0.142      333.246        2.434      866.468
10/15/2013  05:05:00      -14.509       -4.531        5.134       13.978       12.052        7.778      195.382      145.241       60.491        0.033        0.020       15.200        3.875        0.065      333.288        2.504      866.468
10/15/2013  05:06:00      -20.821      -11.491        3.189       25.037       12.395        7.329      626.863      153.645       53.718        0.070        0.042       23.781        7.214        0.092      333.302        2.528      866.458
10/15/2013  05:07:00      -15.724      -11.837        4.143       26.674       15.957       11.645      711.480      254.632      135.611        0.075        0.055       19.682        7.535        0.147      333.283        2.496      866.446
10/15/2013  05:08:00      -35.164      -23.390       -0.836       29.951       16.836       13.401      897.035      283.451      179.575        0.157        0.068       42.233       10.847        0.066      333.275        2.482      866.448
10/15/2013  05:09:00      -20.453      -19.389        3.992       17.615       18.190       17.123      310.298      330.885      293.197        0.087        0.047       28.182       10.836        0.148      333.258        2.454      866.463
10/15/2013  05:10:00       -3.724      -49.115      -12.838       13.198       13.922       12.272      174.191      193.811      150.608        0.155        0.026       49.256        8.277        0.028      333.192        2.344      866.482
10/15/2013  05:11:00      -13.767      -31.692        0.893       13.620       17.685       11.128      185.518      312.767      123.839        0.091        0.031       34.553        6.142        0.032      333.300        2.525      866.486
10/15/2013  05:12:00       -9.237      -18.171        9.664       14.603       19.593       12.402      213.243      383.905      153.812        0.063        0.038       20.384        7.587        0.139      333.286        2.501      866.497
10/15/2013  05:13:00        1.179      -19.482        2.898       12.950       16.253       11.832      167.710      264.150      139.993        0.048        0.029       19.518       11.404        0.341      333.165        2.300      866.497
10/15/2013  05:14:00      -48.941      -25.809        0.199       37.415       22.819       15.604     1399.846      520.709      243.473        0.261        0.108       55.329       10.308        0.035      333.209        2.374      866.500
10/15/2013  05:15:00      -46.359      -37.507        0.416       33.522       19.542       13.601     1123.714      381.902      184.980        0.262        0.085       59.631        7.971        0.018      333.226        2.401      866.511
10/15/2013  05:16:00      -40.264      -41.329       -1.810       30.745       23.135       16.963      945.236      535.214      287.734        0.255        0.088       57.700       14.967        0.067      333.208        2.370      866.520
10/15/2013  05:17:00      -71.758      -39.166       -7.352       28.603       12.803       14.541      818.124      163.909      211.447        0.397        0.060       81.751       10.417        0.016      333.202        2.361      866.511
10/15/2013  05:18:00      -31.629      -25.594        3.911       31.544       20.084       13.323      994.999      403.386      177.503        0.162        0.079       40.687       10.312        0.064      333.150        2.275      866.509
10/15/2013  05:19:00      -54.699      -23.564       -0.619       32.717       16.002       11.859     1070.379      256.051      140.643        0.251        0.073       59.559       11.908        0.040      333.098        2.192      866.508
10/15/2013  05:20:00      -53.044      -23.878       -3.828       19.242       19.636        9.246      370.240      385.564       85.487        0.212        0.042       58.170        9.374        0.026      333.097        2.189      866.515
10/15/2013  05:21:00      -61.585      -37.487       -8.142       15.089       14.617        9.246      227.678      213.646       85.490        0.290        0.026       72.097        6.573        0.008      333.045        2.103      866.521
10/15/2013  05:22:00      -57.403      -35.979       -3.011       16.913       13.398       13.938      286.057      179.501      194.270        0.263        0.033       67.747       10.027        0.022      333.048        2.109      866.520
10/15/2013  05:23:00      -62.015      -34.487       -6.766       17.738       12.160       12.482      314.652      147.859      155.800        0.285        0.031       70.959        8.397        0.014      333.052        2.116      866.528
10/15/2013  05:24:00      -53.152      -42.395       -5.123       22.329       17.233       14.594      498.606      296.987      212.979        0.283        0.050       67.988       14.848        0.048      333.008        2.042      866.527
10/15/2013  05:25:00      -67.828      -37.495       -2.171       14.893       21.103       11.955      221.814      445.354      142.926        0.341        0.041       77.502        6.520        0.007      333.057        2.123      866.528
10/15/2013  05:26:00      -60.047      -38.671       -5.686       19.406       14.212       14.242      376.599      201.982      202.825        0.296        0.039       71.422       10.591        0.022      333.009        2.043      866.532
10/15/2013  05:27:00      -65.180      -23.429       -3.956       18.400       17.193       11.347      338.545      295.585      128.763        0.279        0.038       69.263        5.007        0.005      333.014        2.051      866.538
10/15/2013  05:28:00      -66.477      -29.280       -4.084       17.030       13.588       11.762      290.035      184.641      138.339        0.295        0.031       72.639        8.939        0.015      333.075        2.152      866.534
10/15/2013  05:29:00      -28.444      -27.081       -1.079       17.349       15.445       10.982      300.989      238.547      120.602        0.110        0.033       39.274        9.065        0.053      333.060        2.129      866.536
10/15/2013  05:30:00      -33.647      -23.499        2.213       29.326       17.951       13.218      859.987      322.245      174.710        0.152        0.068       41.040        7.999        0.038      333.045        2.102      866.540
10/15/2013  05:31:00      -47.273      -15.520        0.458       27.109       16.573       12.746      734.873      274.681      162.453        0.182        0.059       49.755       12.391        0.062      332.990        2.011      866.532
10/15/2013  05:32:00      -74.467      -23.387       -6.529       12.954       13.480       10.590      167.811      181.706      112.142        0.330        0.023       78.053        6.340        0.007      332.997        2.023      866.519
10/15/2013  05:33:00      -34.386      -24.303        3.145       34.747       21.902       17.962     1207.331      479.708      322.625        0.190        0.100       42.107       20.645        0.240      333.017        2.056      866.510
10/15/2013  05:34:00      -38.435      -16.731        4.589       27.413       17.532       15.804      751.468      307.376      249.762        0.154        0.065       41.918       16.655        0.158      332.982        1.999      866.513
10/15/2013  05:35:00      -40.160      -21.319        2.130       20.145       16.075       14.362      405.810      258.408      206.274        0.147        0.044       45.468       12.808        0.079      332.972        1.982      866.516
10/15/2013  05:36:00      -66.688      -22.068       -4.335       15.848       19.269        7.977      251.162      371.284       63.634        0.282        0.034       70.244        3.357        0.002      333.032        2.080      866.522
10/15/2013  05:37:00      -73.523      -17.450       -2.305       20.650       19.774       15.320      426.409      391.020      234.692        0.338        0.053       75.565       12.961        0.029      333.037        2.090      866.532
10/15/2013  05:38:00      -56.166      -27.197        1.402       26.373       14.829       13.960      695.560      219.898      194.872        0.250        0.056       62.404        9.877        0.025      332.988        2.010      866.543
10/15/2013  05:39:00      -49.817      -23.881       -3.015       20.216       20.852       14.366      408.704      434.801      206.396        0.206        0.052       55.245        9.499        0.030      333.010        2.046      866.564
10/15/2013  05:40:00      -86.859      -45.612       -4.546       17.447       12.375       11.223      304.398      153.143      125.956        0.511        0.029       98.107        8.289        0.007      332.944        1.936      866.580
10/15/2013  05:41:00      -88.766      -37.241       -7.057       18.909       15.081        8.075      357.553      227.445       65.210        0.498        0.033       96.262        5.457        0.003      332.997        2.022      866.578
10/15/2013  05:42:00      -64.476      -34.062       -9.500       18.634       18.235       14.889      347.214      332.522      221.695        0.315        0.045       72.920        9.255        0.016      332.972        1.983      866.569
10/15/2013  05:43:00      -83.872      -30.939       -6.718       15.180       14.007        9.646      230.432      196.200       93.046        0.428        0.026       89.397        4.887        0.003      332.988        2.008      866.565
10/15/2013  05:44:00      -73.965      -31.151        1.362       22.871       16.886       11.226      523.060      285.151      126.033        0.369        0.047       80.257        9.145        0.013      332.884        1.837      866.566
10/15/2013  05:45:00      -54.256      -23.373        0.353       22.176       18.746       14.078      491.796      351.397      198.191        0.227        0.052       59.076       10.725        0.033      332.900        1.864      866.562
10/15/2013  05:46:00      -47.259      -31.091        3.637       27.523       13.362       14.144      757.506      178.552      200.043        0.217        0.057       56.569        8.461        0.022      332.938        1.927      866.557
10/15/2013  05:47:00      -60.881      -41.451       -1.338       38.459       18.005       14.952     1479.072      324.185      223.553        0.373        0.101       73.652       10.373        0.020      332.854        1.787      866.556
10/15/2013  05:48:00      -54.204      -29.286        3.899       39.054       20.996       16.112     1525.179      440.829      259.611        0.302        0.111       61.609       18.101        0.086      332.749        1.614      866.570
10/15/2013  05:49:00      -55.380      -31.582        5.109       37.415       26.500       20.977     1399.885      702.260      440.034        0.332        0.127       63.752       18.950        0.088      332.732        1.586      866.583
10/15/2013  05:50:00      -54.965      -30.213       -1.905       34.757       20.336       15.985     1208.055      413.566      255.526        0.291        0.094       62.721       13.022        0.043      332.803        1.704      866.599
10/15/2013  05:51:00      -68.645      -50.524       -6.729       37.190       23.197       18.590     1383.127      538.103      345.585        0.479        0.113       85.234       13.399        0.025      332.836        1.759      866.614
10/15/2013  05:52:00      -52.122      -39.039       -3.197       38.313       19.336       18.604     1467.848      373.887      346.107        0.322        0.109       65.121       15.501        0.057      332.847        1.778      866.613
10/15/2013  05:53:00      -38.755      -27.027       -4.225       25.431       15.093       16.132      646.737      227.799      260.245        0.169        0.057       47.249       16.900        0.128      332.761        1.635      866.617
10/15/2013  05:54:00      -42.200      -26.457       -3.230       11.806        7.286       13.540      139.373       53.091      183.326        0.143        0.019       49.808        4.753        0.009      332.827        1.745      866.626
10/15/2013  05:55:00      -60.401      -21.177       -8.577       24.232        9.483        9.470      587.192       89.928       89.679        0.247        0.038       64.006       10.578        0.027      332.855        1.789      866.634
10/15/2013  05:56:00      -87.638      -30.021      -11.776       11.350       10.930        7.841      128.825      119.460       61.484        0.452        0.015       92.637        2.741        0.001      332.766        1.642      866.639
10/15/2013  05:57:00      -63.971      -32.911       -5.062       28.615       16.850       13.038      818.796      283.914      169.995        0.324        0.064       71.941       13.690        0.036      332.820        1.732      866.640
10/15/2013  05:58:00      -59.351      -38.776        1.022       25.163       19.878       13.208      633.182      395.153      174.447        0.311        0.060       70.895        8.050        0.013      332.778        1.663      866.646
10/15/2013  05:59:00      -64.395      -36.702       -3.551       28.131       13.449       11.737      791.328      180.862      137.763        0.331        0.055       74.119       10.628        0.021      332.754        1.623      866.659
10/15/2013  06:00:00      -51.595      -25.953       -0.714       31.152       16.594       15.232      970.435      275.357      232.000        0.241        0.074       57.755       10.616        0.034      332.744        1.607      866.657
10/15/2013  06:01:00      -47.180      -31.084        4.245       33.309       19.934       17.506     1109.460      397.379      306.451        0.251        0.091       56.499       18.893        0.112      332.770        1.650      866.642
10/15/2013  06:02:00      -61.594      -48.081       -1.515       38.371       21.277       16.785     1472.354      452.700      281.736        0.416        0.110       78.138       15.481        0.039      332.711        1.551      866.628
10/15/2013  06:03:00      -33.002      -27.750        0.068       32.253       18.182       19.347     1040.226      330.579      374.291        0.180        0.087       43.119       13.220        0.094      332.752        1.619      866.611
10/15/2013  06:04:00      -35.022      -49.133        5.412       47.095       33.664       26.704     2217.944     1133.275      713.111        0.387        0.203       60.337       31.561        0.274      332.701        1.535      866.606
10/15/2013  06:05:00      -32.188      -34.432       14.939       39.301       24.367       21.728     1544.599      593.734      472.114        0.253        0.131       47.134       21.925        0.216      332.746        1.608      866.600
10/15/2013  06:06:00      -18.523      -25.920       15.398       32.784       29.469       26.513     1074.793      868.397      702.956        0.195        0.132       31.859       21.163        0.441      332.688        1.512      866.594
10/15/2013  06:07:00      -41.062      -45.222       12.745       38.891       21.494       20.956     1512.484      461.987      439.166        0.315        0.121       61.083       19.577        0.103      332.642        1.436      866.585
10/15/2013  06:08:00      -66.590      -44.411        6.433       40.538       30.081       18.980     1643.328      904.887      360.251        0.468        0.145       80.041       20.663        0.067      332.616        1.395      866.588
10/15/2013  06:09:00      -60.460      -60.783        6.144       46.400       33.175       23.727     2152.971     1100.567      562.980        0.560        0.191       85.732       25.762        0.090      332.713        1.556      866.592
10/15/2013  06:10:00      -55.820      -48.091       17.707       48.971       36.946       20.477     2398.119     1364.995      419.293        0.496        0.209       73.679       20.122        0.075      332.694        1.523      866.590
10/15/2013  06:11:00      -64.975      -33.395        5.962       39.124       30.054       23.421     1530.681      903.250      548.535        0.418        0.149       73.054       22.930        0.099      332.584        1.342      866.578
10/15/2013  06:12:00      -45.094      -30.967        6.557       32.476       26.426       20.990     1054.674      698.355      440.566        0.261        0.110       54.703       19.400        0.126      332.684        1.507      866.572
10/15/2013  06:13:00      -25.324      -29.192       12.921       35.211       20.674       21.086     1239.817      427.404      444.621        0.189        0.106       38.646       19.039        0.243      332.638        1.431      866.572
10/15/2013  06:14:00      -90.021      -64.764       -4.644       42.211       25.374       19.752     1781.747      643.834      390.158        0.757        0.141      110.897        7.160        0.004      332.634        1.423      866.564
10/15/2013  06:15:00     -117.984      -74.074       -2.717       36.746       24.223       21.044     1350.292      586.768      442.842        1.090        0.119      139.310       19.894        0.020      332.555        1.294      866.556
10/15/2013  06:16:00      -69.551      -48.777        5.202       41.580       28.268       21.766     1728.913      799.084      473.750        0.512        0.150       84.950       13.361        0.025      332.619        1.399      866.561
10/15/2013  06:17:00      -35.658      -24.903        9.244       37.630       24.208       16.156     1416.028      586.018      261.014        0.212        0.113       43.493       16.026        0.136      332.659        1.466      866.581
10/15/2013  06:18:00      -13.222      -39.411       16.826       33.414       27.212       22.033     1116.520      740.505      485.441        0.218        0.117       41.570       14.839        0.127      332.626        1.412      866.599
10/15/2013  06:19:00      -43.865      -42.529       13.776       31.191       20.726       19.201      972.903      429.582      368.666        0.285        0.089       61.097        8.354        0.019      332.634        1.423      866.615
10/15/2013  06:20:00      -95.112      -64.370       -3.606       29.359       31.353       15.891      861.973      982.997      252.523        0.765        0.105      114.847       14.065        0.015      332.680        1.500      866.610
10/15/2013  06:21:00      -86.398      -59.927        0.337       49.475       44.250       20.544     2447.797     1958.047      422.044        0.794        0.241      105.147       20.833        0.039      332.674        1.489      866.606
10/15/2013  06:22:00      -87.785      -67.038        7.438       48.407       33.557       28.014     2343.204     1126.073      784.786        0.825        0.213      110.454       24.075        0.048      332.643        1.439      866.599
10/15/2013  06:23:00     -108.815      -53.945       -7.012       32.044       25.478       15.906     1026.835      649.149      252.998        0.836        0.096      121.453       10.331        0.007      332.641        1.435      866.603
10/15/2013  06:24:00      -78.306      -48.437        1.526       33.883       20.350       17.667     1148.064      414.119      312.114        0.518        0.094       92.076       15.569        0.029      332.682        1.503      866.610
10/15/2013  06:25:00      -67.250      -39.299        1.160       39.446       22.452       21.907     1556.019      504.095      479.898        0.430        0.127       77.891       23.579        0.092      332.592        1.355      866.626
10/15/2013  06:26:00      -92.321      -58.095       -1.849       30.063       21.873       15.961      903.773      478.432      254.758        0.677        0.082      109.079        8.818        0.007      332.657        1.462      866.641
10/15/2013  06:27:00      -90.217      -44.393       -7.019       31.984       26.355       19.539     1022.980      694.568      381.783        0.613        0.105      100.548       18.401        0.033      332.677        1.494      866.644
10/15/2013  06:28:00     -111.357      -39.600      -14.150       17.232       18.996       11.781      296.953      360.833      138.794        0.748        0.040      118.188        4.666        0.002      332.714        1.556      866.642
10/15/2013  06:29:00      -92.905      -44.861      -14.757       16.995       12.044       10.981      288.841      145.052      120.576        0.571        0.028      103.169        6.838        0.004      332.749        1.614      866.640
10/15/2013  06:30:00      -83.142      -26.173      -13.148       23.266       19.869       13.860      541.287      394.784      192.108        0.445        0.056       87.164        9.457        0.012      332.701        1.534      866.641
10/15/2013  06:31:00      -68.674      -19.581       -1.860       22.574       13.021       11.714      509.592      169.559      137.213        0.296        0.041       71.411       12.536        0.031      332.637        1.428      866.637
10/15/2013  06:32:00      -73.270      -17.382       -3.334       18.063       15.895       10.202      326.266      252.653      104.072        0.318        0.034       75.304        9.335        0.015      332.667        1.478      866.637
10/15/2013  06:33:00      -61.683      -12.795        0.760       21.435       21.673       15.717      459.441      469.705      247.028        0.257        0.059       62.996       13.627        0.047      332.538        1.266      866.635
10/15/2013  06:34:00      -59.241       -7.111        2.116       26.354       11.375       11.181      694.531      129.385      125.010        0.226        0.047       59.666        9.293        0.024      332.525        1.242      866.637
10/15/2013  06:35:00      -75.111       -3.568       -6.370       29.437       13.049       11.097      866.551      170.287      123.138        0.343        0.058       75.196       11.988        0.025      332.536        1.262      866.636
10/15/2013  06:36:00      -70.251       -7.764        1.376       19.990       15.633       14.301      399.589      244.377      204.506        0.292        0.042       70.678       12.888        0.033      332.445        1.112      866.653
10/15/2013  06:37:00      -49.397      -14.031       -3.928       17.330       14.544       11.317      300.325      211.515      128.081        0.165        0.032       51.351        7.949        0.024      332.468        1.149      866.661
10/15/2013  06:38:00      -81.956      -33.689       -4.110       19.223       20.094       11.501      369.534      403.787      132.282        0.439        0.045       88.610       11.265        0.016      332.550        1.285      866.656
10/15/2013  06:39:00      -95.917      -41.849       -6.307       27.188       18.704       11.929      739.184      349.845      142.310        0.611        0.062      104.649        7.160        0.005      332.679        1.498      866.652
10/15/2013  06:40:00      -27.989      -24.778       -3.039       30.165       23.511       15.718      909.945      552.748      247.044        0.156        0.085       37.381       14.268        0.146      332.634        1.425      866.653
10/15/2013  06:41:00      -15.975      -12.980        2.236       16.957       11.270       12.651      287.538      127.015      160.049        0.050        0.029       20.583       10.322        0.251      332.593        1.357      866.658
10/15/2013  06:42:00      -17.630       -9.693        3.547       14.835       10.264       10.147      220.075      105.344      102.957        0.042        0.021       20.119       10.020        0.248      332.531        1.254      866.662
10/15/2013  06:43:00      -42.930       -9.719       -2.798       14.235       12.427       13.186      202.622      154.433      173.882        0.124        0.027       44.017        7.534        0.029      332.637        1.429      866.661
10/15/2013  06:44:00      -60.163      -13.391       -9.484       12.101       13.251        8.480      146.433      175.582       71.903        0.214        0.020       61.635        4.772        0.006      332.645        1.443      866.663
10/15/2013  06:45:00      -29.224      -24.684       -5.950       27.256       12.318       11.495      742.882      151.721      132.125        0.126        0.051       38.254       12.788        0.112      332.657        1.461      866.668
10/15/2013  06:46:00      -46.983       -5.811        0.878       22.137       16.620       10.195      490.030      276.213      103.933        0.156        0.044       47.341       10.519        0.049      332.619        1.401      866.676
10/15/2013  06:47:00     -111.906        7.811      -13.648       26.446       14.087       11.619      699.390      198.446      135.011        0.690        0.052      112.178       12.206        0.012      332.533        1.256      866.677
10/15/2013  06:48:00      -88.717      -16.197       -4.762       28.481       18.951       14.117      811.179      359.134      199.299        0.476        0.068       90.183       16.826        0.035      332.453        1.126      866.685
10/15/2013  06:49:00      -82.855      -23.327      -12.554       15.103       16.256       11.956      228.088      264.268      142.955        0.410        0.032       86.077        5.774        0.004      332.460        1.137      866.707
10/15/2013  06:50:00      -91.086       -6.028      -11.165       17.372       12.684       10.485      301.798      160.888      109.929        0.452        0.029       91.286        6.481        0.005      332.486        1.181      866.696
10/15/2013  06:51:00      -84.628      -21.192      -10.241       25.949       19.454       12.770      673.329      378.458      163.084        0.447        0.061       87.241       13.066        0.022      332.497        1.195      866.691
10/15/2013  06:52:00      -86.697       -0.211       -3.626       34.124       22.562       17.318     1164.450      509.028      299.900        0.475        0.099       86.697       18.445        0.045      332.468        1.149      866.691
10/15/2013  06:53:00      -92.419       -5.493       -7.377       28.860       16.025       19.495      832.919      256.816      380.065        0.505        0.073       92.582       15.983        0.030      332.457        1.131      866.704
10/15/2013  06:54:00      -58.897      -19.868       -9.335       20.299       16.019       12.231      412.030      256.593      149.590        0.238        0.041       62.157        9.706        0.024      332.395        1.030      866.716
10/15/2013  06:55:00      -67.353      -26.943       -6.812       23.667       20.210       11.131      560.145      408.455      123.900        0.320        0.055       72.542        8.056        0.012      332.416        1.065      866.725
10/15/2013  06:56:00      -66.542      -47.316      -13.596       23.513       15.575       17.119      552.866      242.581      293.068        0.397        0.054       81.650       17.602        0.046      332.498        1.200      866.720
10/15/2013  06:57:00      -72.088      -47.510       -4.515       25.077       17.024       17.723      628.835      289.808      314.109        0.435        0.062       86.336       12.294        0.020      332.432        1.090      866.713
10/15/2013  06:58:00      -77.091      -33.033       -7.421       30.416       12.686       10.681      925.156      160.939      114.087        0.414        0.060       83.870       11.455        0.019      332.416        1.066      866.715
10/15/2013  06:59:00      -70.937      -11.361       -8.374       13.736       12.737        9.944      188.671      162.231       98.882        0.284        0.022       71.841        5.991        0.007      332.458        1.135      866.729
10/15/2013  07:00:00      -84.967      -19.097       -9.794       10.034       19.418        9.518      100.689      377.047       90.599        0.412        0.028       87.086        6.257        0.005      332.521        1.237      866.732
10/15/2013  07:01:00      -91.792      -11.917       -9.898       28.755       21.198       12.787      826.826      449.347      163.510        0.505        0.072       92.562        8.229        0.008      332.531        1.253      866.726
10/15/2013  07:02:00      -49.197      -29.164       -2.473       41.995       20.657       13.095     1763.613      426.697      171.470        0.282        0.118       57.192       17.996        0.099      332.531        1.254      866.737
10/15/2013  07:03:00      -21.732       -5.023       -0.657       18.111        8.905        8.726      327.993       79.306       76.150        0.049        0.024       22.305        4.597        0.042      332.493        1.191      866.756
10/15/2013  07:04:00      -76.131      -17.134      -12.850       23.602       18.572       11.539      557.037      344.920      133.143        0.364        0.052       78.035       10.402        0.018      332.545        1.277      866.745
10/15/2013  07:05:00     -117.577      -43.429      -12.939       30.737       21.604       14.606      944.733      466.732      213.337        0.875        0.081      125.341        4.543        0.001      332.576        1.327      866.713
10/15/2013  07:06:00      -78.270      -53.257        1.868       52.797       34.449       17.648     2787.490     1186.732      311.435        0.662        0.214       94.671       21.067        0.050      332.560        1.303      866.701
10/15/2013  07:07:00      -17.605      -18.791        5.404       15.365       12.813       14.589      236.097      164.161      212.840        0.065        0.031       25.749        8.509        0.109      332.540        1.268      866.720
10/15/2013  07:08:00      -40.237      -27.461      -21.123       15.665       11.421        9.074      245.392      130.432       82.342        0.164        0.023       48.714        8.807        0.033      332.685        1.509      866.727
10/15/2013  07:09:00      -43.046      -17.483       -8.006       26.653       11.485        9.918      710.394      131.908       98.371        0.158        0.047       46.461        6.422        0.019      332.773        1.654      866.712
10/15/2013  07:10:00      -96.207      -39.910       -7.642       16.292       18.278       13.182      265.441      334.097      173.774        0.584        0.039      104.156        8.928        0.007      332.725        1.574      866.684
10/15/2013  07:11:00      -46.017      -26.787        5.145       26.206       19.935       13.798      686.731      397.403      190.397        0.207        0.064       53.246       10.087        0.036      332.648        1.447      866.680
10/15/2013  07:12:00       -3.743      -27.184       -7.895       20.728       13.877       13.553      429.665      192.583      183.679        0.081        0.040       27.441        6.116        0.050      332.769        1.646      866.687
10/15/2013  07:13:00      -45.762      -44.249       -5.703       34.669       21.329       16.209     1201.935      454.917      262.738        0.300        0.096       63.657       11.979        0.035      332.723        1.570      866.696
10/15/2013  07:14:00      -96.124      -68.635       -2.471       23.396       24.787       14.670      547.366      614.382      215.213        0.767        0.069      118.112       10.263        0.008      332.621        1.401      866.698
10/15/2013  07:15:00      -44.131      -33.780       10.563       36.681       24.506       21.735     1345.479      600.529      472.397        0.281        0.121       55.576       18.727        0.114      332.490        1.187      866.698
10/15/2013  07:16:00      -30.638      -40.190        3.861       34.274       19.361       16.686     1174.733      374.848      278.408        0.220        0.091       50.536       16.007        0.100      332.557        1.296      866.708
10/15/2013  07:17:00       -9.758      -33.477       17.536       40.792       26.910       20.600     1664.008      724.136      424.355        0.217        0.141       34.870       25.605        0.539      332.628        1.414      866.719
10/15/2013  07:18:00      -39.176      -20.604       14.369       37.505       24.539       19.905     1406.633      602.148      396.226        0.228        0.120       44.264       17.509        0.156      332.569        1.317      866.724
10/15/2013  07:19:00      -41.813      -31.152        8.292       41.500       25.892       20.950     1722.265      670.419      438.914        0.281        0.142       52.142       13.565        0.068      332.571        1.319      866.734
10/15/2013  07:20:00      -19.544      -46.929       15.770       43.903       22.504       18.789     1927.484      506.408      353.035        0.281        0.139       50.836       21.382        0.177      332.565        1.309      866.747
10/15/2013  07:21:00      -86.907      -26.169       -1.361       45.089       18.195       15.140     2033.010      331.061      229.213        0.542        0.130       90.762       20.702        0.052      332.613        1.390      866.745
10/15/2013  07:22:00     -125.969      -59.402       -6.666       31.903       29.360       18.722     1017.817      862.028      350.499        1.084        0.112      139.272       17.237        0.015      332.613        1.389      866.714
10/15/2013  07:23:00     -133.323      -34.095       -7.597       28.713       26.532       21.047      824.457      703.926      442.961        1.048        0.099      137.613       20.369        0.022      332.534        1.258      866.699
10/15/2013  07:24:00     -123.197      -68.970       -7.435       32.130       29.948       14.836     1032.363      896.905      220.113        1.107        0.107      141.189       15.107        0.011      332.505        1.211      866.712
10/15/2013  07:25:00      -87.245      -33.709        0.031       49.227       30.944       17.852     2423.275      957.540      318.701        0.622        0.185       93.531       18.369        0.039      332.483        1.174      866.733
10/15/2013  07:26:00     -105.602      -32.065       -4.797       25.619       25.857       18.330      656.331      668.593      335.984        0.693        0.083      110.363       14.220        0.017      332.543        1.273      866.756
10/15/2013  07:27:00      -82.941      -45.482        0.907       26.939       27.222       15.811      725.726      741.034      249.993        0.533        0.086       94.593       15.405        0.027      332.625        1.409      866.764
10/15/2013  07:28:00      -84.679      -34.470        0.077       27.550       17.377       17.551      759.001      301.959      308.050        0.486        0.068       91.426       18.180        0.040      332.660        1.468      866.771
10/15/2013  07:29:00      -69.850      -31.088       -2.225       22.636       18.940       12.455      512.405      358.707      155.137        0.344        0.051       76.456       13.579        0.032      332.690        1.518      866.785
10/15/2013  07:30:00      -67.181      -21.988        1.374       26.605       18.248       16.603      707.812      332.980      275.662        0.316        0.066       70.687       16.931        0.057      332.685        1.509      866.796
10/15/2013  07:31:00      -91.725      -22.573       -2.253       28.251       20.070       15.217      798.138      402.804      231.547        0.518        0.072       94.461       15.327        0.026      332.641        1.435      866.788
10/15/2013  07:32:00      -89.007      -41.806       -2.172       21.148       19.823       14.214      447.223      392.965      202.040        0.536        0.052       98.336       11.371        0.013      332.680        1.501      866.783
10/15/2013  07:33:00      -63.057      -41.283       -4.952       31.960       17.171       12.473     1021.412      294.833      155.579        0.359        0.074       75.369       10.369        0.019      332.763        1.638      866.775
10/15/2013  07:34:00      -59.139      -16.611       -2.858       16.345       17.018        9.259      267.169      289.624       85.724        0.221        0.032       61.428        6.237        0.010      332.767        1.644      866.772
10/15/2013  07:35:00      -43.855      -22.046       -2.967       22.402       12.798        9.792      501.858      163.781       95.876        0.159        0.038       49.084        7.678        0.024      332.862        1.802      866.776
10/15/2013  07:36:00      -89.738       -4.461      -10.597       17.121       13.614       11.065      293.115      185.346      122.436        0.439        0.030       89.849        8.094        0.008      332.726        1.577      866.767
10/15/2013  07:37:00      -95.900      -11.942       -7.940       26.632       15.451       13.707      709.260      238.738      187.893        0.527        0.057       96.641       12.157        0.016      332.684        1.506      866.772
10/15/2013  07:38:00      -81.813      -14.697       -4.212       16.897       13.554        8.379      285.498      183.716       70.212        0.373        0.027       83.123        4.452        0.003      332.661        1.469      866.785
10/15/2013  07:39:00      -13.610       -6.068        4.535       23.463       12.874       14.257      550.529      165.739      203.272        0.058        0.046       14.901       17.376        1.360      332.887        1.843      866.794
10/15/2013  07:40:00       -8.731       14.841       25.018        8.355        8.135        9.137       69.804       66.179       83.478        0.057        0.011       17.219        5.662        0.108      333.109        2.209      866.822
10/15/2013  07:41:00      -22.629        1.659       -0.945       13.336       14.874       11.961      177.846      221.237      143.055        0.053        0.027       22.690        9.088        0.160      332.907        1.877      866.827
10/15/2013  07:42:00      -74.973      -15.229       -9.053       22.041       19.482       11.425      485.793      379.547      130.536        0.347        0.050       76.504       11.756        0.024      332.860        1.798      866.829
10/15/2013  07:43:00      -42.043      -15.873       -3.348       22.643        9.455       11.137      512.696       89.391      124.035        0.138        0.036       44.939        9.815        0.048      332.886        1.841      866.841
10/15/2013  07:44:00      -32.193       -5.350       -3.724       11.660       10.718        5.661      135.947      114.866       32.051        0.068        0.014       32.634        2.169        0.004      332.977        1.992      866.852
10/15/2013  07:45:00      -34.240        0.245       -3.229       13.966       15.442       10.613      195.052      238.444      112.638        0.086        0.027       34.241        5.194        0.023      332.962        1.967      866.866
10/15/2013  07:46:00      -33.734        8.819       -3.075       22.169        8.576       10.453      491.459       73.553      109.262        0.095        0.034       34.868       10.269        0.087      332.989        2.009      866.878
10/15/2013  07:47:00      -45.145        1.435       -9.773       14.348        6.564        5.967      205.873       43.087       35.600        0.121        0.014       45.168        5.049        0.012      333.049        2.109      866.899
10/15/2013  07:48:00      -18.664      -11.834       -0.503        5.132        7.981        4.393       26.335       63.700       19.301        0.030        0.005       22.099        3.410        0.024      333.113        2.215      866.918
10/15/2013  07:49:00      -41.794      -18.855       -7.498        9.544        8.137        8.150       91.079       66.206       66.429        0.119        0.011       45.851        4.161        0.008      333.153        2.280      866.926
10/15/2013  07:50:00      -45.673      -12.782       -1.169       18.480       13.039        9.154      341.498      170.020       83.793        0.142        0.030       47.428        6.979        0.022      333.111        2.212      866.914
10/15/2013  07:51:00      -45.352      -21.389       -4.791        9.160       11.333        7.317       83.900      128.448       53.546        0.140        0.013       50.143        4.919        0.010      333.106        2.205      866.901
10/15/2013  07:52:00      -45.633       -3.992       -5.252        8.202        4.937        6.414       67.274       24.377       41.135        0.113        0.007       45.807        4.240        0.009      333.186        2.335      866.896
10/15/2013  07:53:00      -47.609      -19.061       -5.022       10.434       10.112        6.548      108.859      102.246       42.880        0.145        0.013       51.283        5.052        0.010      333.241        2.425      866.900
10/15/2013  07:54:00      -43.732      -26.202       -3.474       25.435       11.375       10.552      646.955      129.401      111.339        0.175        0.044       50.981        8.359        0.027      333.221        2.394      866.908
10/15/2013  07:55:00      -29.348       -3.178       -3.892        6.887        7.877        4.254       47.436       62.045       18.092        0.051        0.006       29.520        2.570        0.008      333.242        2.427      866.921
10/15/2013  07:56:00      -24.351        6.689       -3.953        3.717        3.190        2.915       13.819       10.179        8.496        0.034        0.002       25.253        1.868        0.005      333.346        2.601      866.932
10/15/2013  07:57:00      -24.661        5.253        2.756        4.446        5.705        5.258       19.767       32.545       27.644        0.036        0.004       25.214        3.123        0.015      333.450        2.772      866.936
10/15/2013  07:58:00      -32.317       11.495       -3.356        7.609        6.107        4.475       57.891       37.290       20.025        0.065        0.006       34.301        2.949        0.007      333.433        2.744      866.931
10/15/2013  07:59:00      -18.857        8.909        8.168        8.317        4.946       10.042       69.173       24.458      100.836        0.035        0.010       20.855        8.129        0.152      333.688        3.167      866.937
10/15/2013  08:00:00       -5.276       10.280        7.227        7.979       10.253        7.655       63.668      105.130       58.600        0.021        0.011       11.555        5.610        0.236      333.952        3.606      866.939
10/15/2013  08:01:00      -15.664       13.560        7.175       12.892        6.310        9.106      166.192       39.815       82.917        0.038        0.014       20.718        6.712        0.105      333.826        3.396      866.942
10/15/2013  08:02:00      -15.212        1.955        0.070        4.590        4.013        3.068       21.067       16.108        9.415        0.014        0.002       15.338        2.117        0.019      333.730        3.236      866.945
10/15/2013  08:03:00       14.769       13.253        4.658       22.656       12.041       11.648      513.299      144.987      135.673        0.060        0.040       19.843        9.794        0.244      333.969        3.633      866.941
10/15/2013  08:04:00       26.483       15.674       -3.547       13.217       10.431       14.984      174.688      108.812      224.516        0.073        0.025       30.774        4.535        0.022      333.888        3.498      866.944
10/15/2013  08:05:00        7.827       12.611        9.653       17.577       12.780       15.431      308.941      163.332      238.118        0.051        0.036       14.843        9.125        0.378      334.052        3.771      866.946
10/15/2013  08:06:00       17.673       22.087       34.409       20.714       22.709       13.254      429.084      515.700      175.660        0.155        0.056       28.288        5.507        0.038      334.147        3.928      866.956
10/15/2013  08:07:00       18.300        9.956       34.792       14.583       10.078       17.024      212.661      101.574      289.831        0.112        0.030       20.833        5.609        0.072      334.194        4.006      866.975
10/15/2013  08:08:00       16.465       17.628       23.413       18.538       14.209       17.343      343.676      201.904      300.785        0.099        0.042       24.122        9.051        0.141      334.147        3.928      866.975
10/15/2013  08:09:00       45.856       25.582        7.760       13.345       11.611       13.022      178.085      134.808      169.561        0.165        0.024       52.510        8.832        0.028      334.041        3.752      866.979
10/15/2013  08:10:00       20.611       26.293       18.660       18.227       14.330       14.784      332.239      205.344      218.559        0.111        0.038       33.408        8.029        0.058      334.200        4.017      866.986
10/15/2013  08:11:00       29.906       19.938       16.300       25.145       14.966       20.987      632.290      223.992      440.438        0.143        0.065       35.943       18.170        0.256      334.165        3.958      866.997
10/15/2013  08:12:00       -1.980       22.000       37.648       11.521       14.996       12.009      132.728      224.888      144.208        0.120        0.025       22.089       11.000        0.248      334.433        4.402      866.995
10/15/2013  08:13:00        7.684      -14.430       22.999       13.903       30.630       17.880      193.293      938.169      319.683        0.112        0.073       16.348       20.020        1.500      334.476        4.474      866.985
10/15/2013  08:14:00        5.066       11.227       39.420       16.522       27.277       11.466      272.990      744.012      131.473        0.143        0.057       12.317       12.554        1.039      334.569        4.629      867.003
10/15/2013  08:15:00        0.616       33.614       46.855       17.801       24.060       17.397      316.881      578.863      302.644        0.226        0.060       33.620       16.884        0.252      334.445        4.422      867.014
10/15/2013  08:16:00      -19.315        9.180       22.748       26.690       21.832       14.898      712.349      476.639      221.962        0.119        0.071       21.385       10.356        0.235      334.298        4.179      867.019
10/15/2013  08:17:00       12.671        4.658       24.504       16.786       19.243       17.006      281.760      370.300      289.203        0.086        0.047       13.500       14.086        1.089      334.559        4.612      867.013
10/15/2013  08:18:00       -3.900       10.174       12.583       14.610        9.285       11.656      213.449       86.219      135.854        0.036        0.022       10.896        7.904        0.526      334.553        4.602      867.015
10/15/2013  08:19:00      -17.807       20.253       19.587       13.283       17.503       13.155      176.429      306.362      173.064        0.088        0.033       26.968        5.014        0.035      334.562        4.617      867.022
10/15/2013  08:20:00        3.142       17.832       31.299       16.344       15.320       16.095      267.110      234.713      259.052        0.103        0.038       18.106       13.478        0.554      334.743        4.918      867.019
10/15/2013  08:21:00      -12.785       12.718       27.804       15.746       17.885       13.913      247.939      319.869      193.579        0.093        0.038       18.033       10.777        0.357      334.709        4.860      867.019
10/15/2013  08:22:00      -14.596       10.940       26.507       13.140       13.978       12.655      172.653      195.396      160.151        0.078        0.026       18.241        8.387        0.211      334.787        4.990      867.023
10/15/2013  08:23:00        2.672       19.645       18.449       13.063       23.651       17.614      170.636      559.353      310.238        0.089        0.052       19.826       13.634        0.473      334.788        4.992      867.022
10/15/2013  08:24:00       12.458       23.617       37.017       21.757       23.261       14.691      473.370      541.064      215.820        0.166        0.062       26.702       13.170        0.243      334.853        5.099      867.023
10/15/2013  08:25:00       16.011       29.697       42.063       31.251       25.904       17.251      976.598      670.995      297.580        0.243        0.097       33.738       13.780        0.167      334.730        4.894      867.035
10/15/2013  08:26:00       17.245       41.724       39.273       31.347       25.372       14.474      982.634      643.750      209.503        0.271        0.092       45.147       11.542        0.065      334.706        4.856      867.045
10/15/2013  08:27:00       21.769       37.395       46.892       27.257       20.749       16.295      742.922      430.536      265.524        0.275        0.072       43.269       11.284        0.068      334.641        4.746      867.056
10/15/2013  08:28:00        9.321       39.990       35.349       25.076       24.827       15.687      628.785      616.357      246.080        0.221        0.075       41.061       14.145        0.119      334.564        4.620      867.075
10/15/2013  08:29:00      -12.351        2.670        6.704       11.486       15.679       11.842      131.921      245.842      140.240        0.036        0.026       12.636       10.192        0.651      334.849        5.093      867.087
10/15/2013  08:30:00      -27.376       25.384        1.318       18.780       15.794       17.811      352.703      249.436      317.239        0.116        0.046       37.333       10.634        0.081      334.638        4.744      867.077
10/15/2013  08:31:00        4.272       23.874       34.145       23.088       23.053       14.586      533.045      531.463      212.762        0.152        0.064       24.253        9.633        0.158      335.035        5.402      867.061
10/15/2013  08:32:00       49.112       39.131       18.593       33.139       23.367       22.758     1098.181      546.027      517.938        0.323        0.108       62.796       22.754        0.131      334.820        5.045      867.054
10/15/2013  08:33:00       50.337       39.301        8.321       17.026       23.437       18.438      289.884      549.288      339.955        0.266        0.059       63.862       12.852        0.040      334.793        5.000      867.058
10/15/2013  08:34:00       50.008       33.278       -2.005       19.372       19.476       20.483      375.274      379.300      419.568        0.239        0.059       60.068        9.064        0.023      334.701        4.846      867.063
10/15/2013  08:35:00       38.597       29.925        4.321       29.535       17.841       20.218      872.320      318.319      408.755        0.200        0.080       48.839       12.211        0.063      334.765        4.954      867.062
10/15/2013  08:36:00       59.442       48.484       11.869       37.425       32.301       26.718     1400.668     1043.368      713.849        0.459        0.158       76.707       20.905        0.074      334.839        5.076      867.068
10/15/2013  08:37:00       64.848       25.603       -2.974       21.312       16.810       21.202      454.212      282.574      449.528        0.303        0.059       69.720       15.643        0.050      334.663        4.785      867.084
10/15/2013  08:38:00       25.501       41.214       31.311       29.288       26.075       28.118      857.776      679.908      790.625        0.283        0.116       48.466       20.752        0.183      335.014        5.367      867.088
10/15/2013  08:39:00       -2.445       40.325       52.610       28.609       33.744       25.641      818.493     1138.660      657.472        0.351        0.131       40.399       24.215        0.359      335.177        5.639      867.096
10/15/2013  08:40:00       15.106       31.277       46.685       27.928       28.656       24.794      779.965      821.157      614.740        0.280        0.111       34.734       17.933        0.267      335.227        5.721      867.091
10/15/2013  08:41:00       35.839       15.861       10.039       28.781       39.913       22.403      828.337     1593.065      501.899        0.228        0.146       39.192       16.464        0.176      335.130        5.561      867.082
10/15/2013  08:42:00       74.379       41.939       -4.913       22.204       21.389       19.978      492.996      457.473      399.103        0.433        0.067       85.388        8.663        0.010      334.837        5.073      867.090
10/15/2013  08:43:00       83.722       40.587        6.554       25.321       24.646       24.089      641.129      607.434      580.285        0.526        0.091       93.041       12.160        0.017      334.844        5.084      867.096
10/15/2013  08:44:00       27.413       42.526        7.829       28.790       35.700       24.508      828.847     1274.498      600.620        0.266        0.135       50.595       20.282        0.161      335.281        5.810      867.110
10/15/2013  08:45:00       64.475       46.782       17.520       52.664       37.090       37.172     2773.532     1375.684     1381.760        0.609        0.277       79.659       32.895        0.171      335.142        5.580      867.125
10/15/2013  08:46:00       79.366       55.696       13.309       35.626       21.524       26.071     1269.181      463.304      679.694        0.599        0.121       96.959       10.594        0.012      335.131        5.561      867.137
10/15/2013  08:47:00       65.341       38.949        0.555       31.785       31.016       14.980     1010.287      962.003      224.395        0.399        0.110       76.069       10.030        0.017      334.934        5.236      867.140
10/15/2013  08:48:00       12.359       33.940       38.755       33.183       28.962       30.253     1101.101      838.796      915.266        0.283        0.143       36.121       28.242        0.611      335.582        6.312      867.138
10/15/2013  08:49:00       36.407       20.238       37.302       42.187       37.203       39.973     1779.725     1384.034     1597.839        0.394        0.238       41.654       38.612        0.859      335.239        5.741      867.146
10/15/2013  08:50:00       36.598       35.070       57.107       30.007       32.192       24.428      900.397     1036.330      596.719        0.418        0.127       50.688       19.639        0.150      335.323        5.882      867.142
10/15/2013  08:51:00       17.118       51.602       62.899       21.119       29.515       17.499      446.029      871.120      306.201        0.427        0.081       54.367       17.541        0.104      335.324        5.881      867.142
10/15/2013  08:52:00       12.277       -5.481       47.924       27.467       37.979       20.344      754.453     1442.411      413.888        0.254        0.131       13.444       12.941        0.927      335.543        6.245      867.143
10/15/2013  08:53:00        3.882       -1.185       40.256       16.019       24.205       13.213      256.596      585.891      174.572        0.133        0.051        4.059       11.511        8.044      335.637        6.402      867.146
10/15/2013  08:54:00       21.715       31.683       35.130       32.982       25.953       31.412     1087.817      673.538      986.703        0.273        0.137       38.410       27.485        0.512      335.429        6.058      867.156
10/15/2013  08:55:00       72.128       38.925        0.042       18.997       30.735       18.377      360.890      944.654      337.704        0.418        0.082       81.961       14.883        0.033      335.204        5.682      867.167
10/15/2013  08:56:00       85.252       61.343       17.360       16.902       23.023       19.608      285.686      530.072      384.476        0.627        0.060      105.028        8.088        0.006      335.213        5.697      867.185
10/15/2013  08:57:00       48.698       55.257       26.661       21.692       22.742       22.314      470.535      517.190      497.906        0.381        0.074       73.654       11.185        0.023      335.521        6.210      867.204
10/15/2013  08:58:00       17.701       34.749       15.664       20.076       17.391       22.342      403.050      302.445      499.157        0.149        0.060       38.997       15.884        0.166      335.790        6.658      867.214
10/15/2013  08:59:00       38.652       43.448       21.386       29.320       26.002       21.869      859.657      676.092      478.259        0.293        0.101       58.152       17.407        0.090      335.677        6.469      867.221
10/15/2013  09:00:00       43.717       36.506        0.678       22.514       23.548       26.097      506.868      554.514      681.046        0.249        0.087       56.955       20.232        0.126      335.472        6.128      867.229
10/15/2013  09:01:00       21.151       14.163       30.905       26.736       19.940       16.156      714.800      397.593      261.021        0.149        0.069       25.455       13.326        0.274      335.898        6.839      867.239
10/15/2013  09:02:00       60.669       18.361        7.728       34.511       16.047       28.103     1190.976      257.496      789.761        0.316        0.112       63.387       19.384        0.094      335.375        5.967      867.248
10/15/2013  09:03:00      -23.042       -9.906       -1.878       30.629       32.044       16.066      938.156     1026.828      258.106        0.143        0.111       25.081        9.122        0.132      335.456        6.102      867.249
10/15/2013  09:04:00       35.036       -7.171        8.212       29.795       20.106       21.665      887.739      404.240      469.378        0.155        0.088       35.762       22.900        0.410      335.720        6.542      867.237
10/15/2013  09:05:00       29.582       31.331       34.523       35.938       26.971       27.591     1291.529      727.457      761.275        0.291        0.139       43.090       21.305        0.244      335.715        6.533      867.219
10/15/2013  09:06:00       65.712       41.830       23.930       31.474       23.067       18.436      990.638      532.068      339.899        0.425        0.093       77.896        9.656        0.015      335.628        6.388      867.199
10/15/2013  09:07:00       76.128       46.981       14.326       31.179       25.997       26.431      972.108      675.843      698.595        0.528        0.117       89.457       15.784        0.031      335.798        6.672      867.194
10/15/2013  09:08:00       51.627       51.320       22.352       48.101       31.317       34.638     2313.739      980.727     1199.821        0.515        0.225       72.795       27.930        0.147      336.087        7.154      867.205
10/15/2013  09:09:00       57.004       56.730       54.873       39.448       34.610       26.486     1556.134     1197.846      701.519        0.647        0.173       80.422        9.452        0.014      335.812        6.696      867.215
10/15/2013  09:10:00       59.135       17.742       33.674       39.457       39.613       28.136     1556.887     1569.170      791.641        0.443        0.196       61.739       26.907        0.190      335.867        6.788      867.201
10/15/2013  09:11:00       29.110       51.682       43.970       35.199       26.775       38.257     1238.964      716.919     1463.612        0.443        0.171       59.317       29.908        0.254      336.039        7.073      867.193
10/15/2013  09:12:00       62.792       39.829       21.110       40.644       35.709       36.017     1651.912     1275.167     1297.236        0.510        0.211       74.358       20.394        0.075      336.084        7.149      867.186
10/15/2013  09:13:00       66.763       76.137        0.184       19.775       26.285       32.055      391.039      690.905     1027.544        0.618        0.105      101.263       13.231        0.017      335.652        6.428      867.188
10/15/2013  09:14:00       26.651       65.668      -11.403       22.595       25.574       26.539      510.556      654.031      704.319        0.351        0.093       70.870       21.667        0.093      335.796        6.667      867.197
10/15/2013  09:15:00      -17.730       48.715        0.700       18.138       31.018       19.742      328.975      962.113      389.734        0.218        0.084       51.841       17.243        0.111      336.028        7.056      867.200
10/15/2013  09:16:00        4.484       -2.272        9.385        9.259       14.409       11.832       85.724      207.617      139.998        0.027        0.022        5.027        8.325        2.742      336.368        7.624      867.211
10/15/2013  09:17:00        1.920       -5.420       43.016       26.967       47.038       30.492      727.223     2212.538      929.756        0.288        0.193        5.750       21.619       14.133      336.558        7.940      867.216
10/15/2013  09:18:00       42.787       -6.895       38.241       37.002       38.218       32.053     1369.124     1460.647     1027.369        0.360        0.193       43.339       25.142        0.337      336.438        7.739      867.220
10/15/2013  09:19:00       40.497       72.792       68.745       54.606       53.481       48.364     2981.800     2860.241     2339.082        0.992        0.409       83.299       42.501        0.260      336.305        7.516      867.218
10/15/2013  09:20:00       35.499       32.987       48.203       30.684       47.574       31.240      941.511     2263.281      975.941        0.443        0.209       48.459       24.111        0.248      336.257        7.438      867.225
10/15/2013  09:21:00       62.827       58.727       43.947       36.153       36.158       32.257     1307.055     1307.435     1040.523        0.649        0.183       86.001       10.898        0.016      336.162        7.279      867.220
10/15/2013  09:22:00       25.615       39.148       59.240       43.832       41.457       27.657     1921.248     1718.701      764.927        0.505        0.220       46.783       19.411        0.172      336.577        7.973      867.214
10/15/2013  09:23:00       77.585       87.770       59.192       63.237       42.996       48.903     3998.893     1848.648     2391.488        1.273        0.412      117.145       47.923        0.167      336.135        7.232      867.215
10/15/2013  09:24:00      103.649       60.865       -5.089       47.913       32.070       33.153     2295.694     1028.470     1099.098        0.945        0.221      120.199       20.993        0.031      336.110        7.192      867.239
10/15/2013  09:25:00       48.335       56.588        6.182       29.216       33.571       30.755      853.558     1127.041      945.862        0.425        0.146       74.421       22.896        0.095      336.174        7.299      867.254
10/15/2013  09:26:00       51.378       46.475        9.720       22.845       23.491       30.079      521.897      551.807      904.773        0.344        0.099       69.279       11.887        0.029      336.285        7.484      867.270
10/15/2013  09:27:00       54.832       53.840        7.498       42.290       25.414       19.142     1788.433      645.865      366.417        0.438        0.140       76.846       12.718        0.027      336.285        7.485      867.274
10/15/2013  09:28:00       22.166       33.537       27.233       49.471       38.686       37.455     2447.339     1496.613     1402.912        0.385        0.267       40.200       34.788        0.749      336.750        8.261      867.270
10/15/2013  09:29:00       57.294       66.402       41.931       46.859       45.563       32.959     2195.754     2075.948     1086.291        0.740        0.268       87.703       14.032        0.026      336.619        8.042      867.264
10/15/2013  09:30:00      106.812       81.780       70.389       56.384       48.707       41.968     3179.110     2372.415     1761.312        1.518        0.366      134.524       29.898        0.049      336.296        7.501      867.265
10/15/2013  09:31:00      144.641       77.122       23.602       29.550       21.748       28.716      873.223      472.975      824.610        1.480        0.109      163.918       11.608        0.005      336.082        7.145      867.264
10/15/2013  09:32:00      107.434       83.052       28.200       57.595       39.130       43.740     3317.189     1531.123     1913.185        1.300        0.338      135.793       34.082        0.063      336.273        7.464      867.256
10/15/2013  09:33:00      144.084       84.656        0.339       28.478       32.218       32.959      810.999     1038.000     1086.291        1.543        0.147      167.113       15.841        0.009      336.193        7.331      867.257
10/15/2013  09:34:00       91.965       66.239       28.557       36.521       31.137       39.668     1333.791      969.540     1573.523        0.877        0.194      113.337       24.441        0.047      336.307        7.521      867.254
10/15/2013  09:35:00       37.023       24.429       48.669       36.629       34.403       23.093     1341.689     1183.553      533.284        0.370        0.153       44.356        6.228        0.020      336.731        8.229      867.255
10/15/2013  09:36:00       95.505       57.019       19.952       45.578       35.842       36.850     2077.331     1284.640     1357.914        0.874        0.236      111.231       19.329        0.030      336.438        7.739      867.260
10/15/2013  09:37:00      113.421       76.679        8.843       38.685       31.898       31.278     1496.551     1017.501      978.317        1.116        0.175      136.908       18.744        0.019      336.237        7.404      867.254
10/15/2013  09:38:00       47.798       21.358       42.734       55.758       73.398       42.770     3108.928     5387.259     1829.312        0.744        0.516       52.353       47.333        0.817      336.693        8.168      867.273
10/15/2013  09:39:00       30.642      -35.240       25.836       40.180       67.904       43.414     1614.402     4610.889     1884.775        0.548        0.406       46.699       47.990        1.056      336.929        8.562      867.283
10/15/2013  09:40:00       40.017       -3.701       55.858       45.602       65.386       43.068     2079.533     4275.280     1854.874        0.647        0.410       40.188       41.218        1.052      337.024        8.718      867.287
10/15/2013  09:41:00       74.905       19.009       57.667       67.695       86.212       51.629     4582.607     7432.504     2665.517        1.199        0.734       77.280       39.974        0.268      336.870        8.461      867.306
10/15/2013  09:42:00       38.619       -4.406       53.600       41.863       78.166       39.232     1752.479     6109.998     1539.188        0.689        0.470       38.869       35.554        0.837      336.939        8.578      867.311
10/15/2013  09:43:00      108.205     -126.020        3.379       56.074       70.021       36.023     3144.337     4902.987     1297.681        1.847        0.467      166.101       29.844        0.032      336.623        8.048      867.313
10/15/2013  09:44:00       98.869       11.247       58.132       53.008      137.322       60.714     2809.866    18857.438     3686.187        1.931        1.268       99.506       75.225        0.572      336.613        8.030      867.304
10/15/2013  09:45:00       70.601       61.246       40.563       45.240       29.191       43.528     2046.697      852.098     1894.670        0.759        0.240       93.464       29.348        0.099      336.409        7.690      867.313
10/15/2013  09:46:00       46.866      -18.710       37.788       31.736       66.445       27.225     1007.144     4414.914      741.206        0.507        0.308       50.463       22.496        0.199      336.732        8.230      867.316
10/15/2013  09:47:00       41.445      -36.913       24.823       39.127       65.218       39.468     1530.952     4253.333     1557.736        0.552        0.367       55.500       47.146        0.722      337.119        8.879      867.322
10/15/2013  09:48:00       34.998       65.909       82.817       36.482       43.798       32.753     1330.934     1918.291     1072.740        0.837        0.216       74.625       25.709        0.119      337.050        8.764      867.317
10/15/2013  09:49:00       14.554       29.369       34.022       27.946       35.571       24.917      781.006     1265.319      620.864        0.245        0.133       32.777       15.530        0.224      336.947        8.590      867.316
10/15/2013  09:50:00       54.271      -87.482      -11.271       56.105       60.115       37.000     3147.733     3613.782     1368.972        0.943        0.407      102.949       29.568        0.082      336.992        8.667      867.309
10/15/2013  09:51:00       49.847      -21.594       41.062       55.644      128.011       63.510     3096.308    16386.730     4033.493        1.407        1.176       54.324       85.985        2.505      336.938        8.576      867.297
10/15/2013  09:52:00       29.979       75.777      110.483       58.593       52.057       33.369     3433.113     2709.954     1113.495        1.305        0.363       81.491       40.322        0.245      337.108        8.859      867.298
10/15/2013  09:53:00       31.906       24.854       25.699       26.845       33.293       36.254      720.662     1108.454     1314.367        0.272        0.157       40.444       28.535        0.498      337.021        8.715      867.300
10/15/2013  09:54:00       63.867       73.195       55.700       74.600       44.618       52.248     5565.210     1990.764     2729.900        1.141        0.514       97.142       52.928        0.297      337.135        8.904      867.300
10/15/2013  09:55:00       86.583       65.150       14.154       20.782       21.006       25.645      431.895      441.249      657.682        0.674        0.077      108.357       13.487        0.015      336.578        7.974      867.310
10/15/2013  09:56:00       88.168       74.544       36.365       28.594       41.752       44.761      817.596     1743.194     2003.536        0.961        0.228      115.457       30.556        0.070      337.018        8.709      867.322
10/15/2013  09:57:00       99.675       87.230       96.871       54.218       52.151       39.770     2939.551     2719.729     1581.631        1.708        0.362      132.454       33.690        0.065      336.987        8.658      867.322
10/15/2013  09:58:00       70.389       48.957       46.738       45.846       40.573       37.869     2101.866     1646.191     1434.055        0.736        0.259       85.740       29.126        0.115      337.091        8.831      867.322
10/15/2013  09:59:00       85.262       60.295        7.972       40.744       40.496       36.963     1660.082     1639.963     1366.286        0.782        0.233      104.427       25.019        0.057      336.980        8.647      867.318
10/15/2013  10:00:00       68.681       42.265        9.015       52.898       48.027       29.016     2798.224     2306.572      841.948        0.626        0.297       80.644        9.723        0.015      337.244        9.088      867.315
10/15/2013  10:01:00       70.072       68.865       16.027       30.265       35.960       33.146      915.995     1293.157     1098.656        0.661        0.165       98.247       16.123        0.027      337.134        8.903      867.315
10/15/2013  10:02:00       75.725       37.020       31.370       24.452       38.000       26.526      597.907     1443.964      703.630        0.542        0.137       84.290        9.034        0.011      337.102        8.851      867.328
10/15/2013  10:03:00       48.264      -17.157       11.664       34.441       75.198       35.252     1186.151     5654.723     1242.677        0.542        0.404       51.223       23.754        0.215      337.536        9.577      867.329
10/15/2013  10:04:00       22.885       14.172       33.153       40.079       35.906       29.304     1606.295     1289.234      858.751        0.279        0.188       26.918       19.824        0.542      337.959       10.285      867.326
10/15/2013  10:05:00      139.699      105.817       60.733      100.817       65.770       82.644    10164.041     4325.646     6830.099        2.786        1.066      175.251       63.409        0.131      337.324        9.219      867.329
10/15/2013  10:06:00      110.598       82.874       67.651       81.986       51.426       51.948     6721.777     2644.652     2698.636        1.787        0.603      138.203       43.540        0.099      337.210        9.029      867.334
10/15/2013  10:07:00      118.043      110.999       56.833       63.332       43.258       50.007     4010.982     1871.278     2500.652        1.893        0.419      162.034       37.555        0.054      337.005        8.686      867.348
10/15/2013  10:08:00       89.679       68.550       59.907       77.182       44.890       58.196     5957.001     2015.079     3386.760        1.384        0.568      112.878       56.119        0.247      337.209        9.029      867.354
10/15/2013  10:09:00      103.426      126.275       91.343       90.479       67.394       66.881     8186.448     4541.973     4473.007        2.609        0.860      163.225       66.436        0.166      337.022        8.713      867.360
10/15/2013  10:10:00      111.923       93.618       35.020       44.923       52.342       43.024     2018.071     2739.681     1851.064        1.456        0.330      145.915       31.187        0.046      336.972        8.632      867.366
10/15/2013  10:11:00       48.591       36.442       36.975       43.483       36.146       41.861     1890.750     1306.556     1752.345        0.500        0.247       60.738       28.484        0.220      337.577        9.645      867.349
10/15/2013  10:12:00       50.930       11.163       13.642       53.563       33.558       28.985     2868.985     1126.126      840.155        0.387        0.242       52.139       16.584        0.101      337.880       10.152      867.339
10/15/2013  10:13:00       38.404       18.277       20.171       55.068       57.385       36.901     3032.464     3292.989     1361.675        0.495        0.384       42.531       29.775        0.490      337.930       10.237      867.331
10/15/2013  10:14:00       87.279       -8.917       18.362       79.515       87.470       43.217     6322.582     7650.926     1867.724        1.193        0.792       87.733       41.296        0.222      337.790       10.002      867.341
10/15/2013  10:15:00       70.118       -3.515       60.181       48.807      104.893       56.144     2382.112    11002.587     3152.202        1.254        0.827       70.206       64.098        0.834      337.839       10.083      867.325
10/15/2013  10:16:00       14.217        8.876       64.895       49.258       67.265       38.820     2426.399     4524.639     1506.965        0.647        0.423       16.760       41.139        6.025      338.164       10.630      867.322
10/15/2013  10:17:00       46.749       39.368       88.079       46.456       91.664       49.024     2158.130     8402.215     2403.356        1.223        0.648       61.117       57.804        0.895      337.878       10.150      867.336
10/15/2013  10:18:00      131.836      -12.981       52.934       87.583      134.520       69.369     7670.850    18095.626     4812.099        2.546        1.529      132.474       85.548        0.417      337.477        9.476      867.324
10/15/2013  10:19:00      160.402     -117.776        2.640       91.311      117.738       65.930     8337.610    13862.133     4346.706        3.307        1.327      198.998       80.707        0.164      337.505        9.521      867.313
10/15/2013  10:20:00       51.241      -40.071       36.730       60.729       77.777       45.067     3688.020     6049.286     2031.039        0.867        0.588       65.048       40.098        0.380      337.999       10.352      867.310
10/15/2013  10:21:00       43.086      -29.037       46.308       58.797       82.167       49.410     3457.036     6751.352     2441.326        0.874        0.632       51.957       41.812        0.648      338.286       10.835      867.311
10/15/2013  10:22:00       77.649       73.240       61.118       76.073       73.504       46.990     5787.057     5402.772     2208.069        1.426        0.670      106.740       42.185        0.156      338.046       10.431      867.327
10/15/2013  10:23:00       37.404       62.139       53.219       79.445       55.851       46.794     6311.477     3119.350     2189.715        0.985        0.581       72.528       32.266        0.198      338.292       10.844      867.341
10/15/2013  10:24:00       80.683       91.557      126.498       99.690      122.004       72.740     9938.114    14885.074     5291.080        3.050        1.506      122.035       77.250        0.401      337.903       10.189      867.336
10/15/2013  10:25:00      155.373      118.622       22.373       75.369       78.426       69.373     5680.416     6150.697     4812.580        2.767        0.832      195.479       42.263        0.047      337.894       10.175      867.333
10/15/2013  10:26:00      291.976      206.394       15.735      117.468       92.730       78.680    13798.724     8598.835     6190.619        7.834        1.429      357.559       56.585        0.025      337.600        9.680      867.319
10/15/2013  10:27:00      350.131      184.083       66.687      108.655       85.674       77.654    11806.016     7340.081     6030.121        9.305        1.259      395.574       27.360        0.005      337.491        9.498      867.308
10/15/2013  10:28:00      190.710      106.227       55.212       97.300       96.673       61.181     9467.341     9345.597     3743.085        3.662        1.128      218.298       49.215        0.051      337.608        9.695      867.337
10/15/2013  10:29:00      178.724      106.626       46.472       79.250       77.514       69.446     6280.524     6008.486     4822.698        3.129        0.856      208.114       45.247        0.047      337.855       10.109      867.338
10/15/2013  10:30:00      231.244      152.167      139.089      117.998      110.316       89.720    13923.432    12169.671     8049.693        6.505        1.707      276.819       76.796        0.077      337.788        9.995      867.343
10/15/2013  10:31:00      197.478      139.563      111.751      128.344      114.080       88.319    16472.137    13014.330     7800.293        5.412        1.864      241.817       67.005        0.077      338.024       10.394      867.335
10/15/2013  10:32:00      146.754       46.470       46.331       79.226       47.568       49.325     6276.735     2262.718     2432.923        1.841        0.549      153.936       35.927        0.054      338.143       10.592      867.370
10/15/2013  10:33:00      151.228      111.429       66.843       94.855       71.792       60.514     8997.428     5154.151     3661.910        2.878        0.891      187.847       53.750        0.082      338.242       10.759      867.359
10/15/2013  10:34:00       92.787       80.681       60.452       81.193       71.491       68.330     6592.342     5110.921     4668.931        1.757        0.819      122.959       51.419        0.175      338.352       10.944      867.364
10/15/2013  10:35:00      248.382      142.700       65.203      158.725      106.074       76.647    25193.506    11251.728     5874.715        6.431        2.116      286.456       45.818        0.026      338.013       10.373      867.361
10/15/2013  10:36:00      134.422      122.859       81.842      117.160       67.327       71.845    13726.508     4532.967     5161.753        3.164        1.171      182.108       65.785        0.130      338.221       10.724      867.355
10/15/2013  10:37:00      197.566      111.967       95.525      145.602       96.274       86.346    21199.904     9268.670     7455.601        4.930        1.896      227.088       81.892        0.130      338.034       10.409      867.349
10/15/2013  10:38:00      223.968       99.975       69.708      144.310      134.477       94.573    20825.318    18084.006     8944.069        5.642        2.393      245.268       75.686        0.095      337.924       10.224      867.338
10/15/2013  10:39:00      137.585       93.832       37.432      106.517       93.037       80.626    11345.828     8655.965     6500.537        2.781        1.325      166.536       63.508        0.145      338.288       10.836      867.343
10/15/2013  10:40:00      227.322      117.114       19.702      126.420      104.081       71.966    15982.132    10832.915     5179.060        4.888        1.600      255.717       30.672        0.014      338.277       10.816      867.351
10/15/2013  10:41:00      164.802      100.706       28.012      120.285       82.601       63.391    14468.423     6823.004     4018.444        3.169        1.265      193.136       50.979        0.070      338.306       10.866      867.363
10/15/2013  10:42:00      110.000       61.871        0.176       80.483       52.032       47.505     6477.558     2707.366     2256.753        1.368        0.572      126.206       25.381        0.040      338.597       11.357      867.352
10/15/2013  10:43:00       93.403      122.647       96.483       93.928       72.060       80.508     8822.385     5192.678     6481.556        2.678        1.025      154.164       66.891        0.188      338.389       11.005      867.358
10/15/2013  10:44:00      206.943      128.891       76.395       96.373       78.717       87.572     9287.736     6196.381     7668.933        4.421        1.158      243.800       51.052        0.044      338.258       10.785      867.368
10/15/2013  10:45:00      136.584       86.860       48.421      115.968       73.614       63.702    13448.685     5419.007     4057.974        2.573        1.146      161.863       62.428        0.149      338.242       10.759      867.357
10/15/2013  10:46:00       98.673       84.136       63.582       66.637       54.839       60.249     4440.472     3007.341     3629.894        1.597        0.554      129.674       36.521        0.079      338.462       11.130      867.354
10/15/2013  10:47:00      154.234       17.500      113.854      149.319      141.359       91.136    22296.086    19982.325     8305.686        4.381        2.529      155.224      110.522        0.507      338.253       10.776      867.361
10/15/2013  10:48:00      123.595      127.846      118.489       98.978       76.598       79.436     9796.649     5867.286     6310.064        3.381        1.099      177.821       57.029        0.103      338.237       10.750      867.356
10/15/2013  10:49:00      179.783       73.100       68.605      107.640       85.892       90.832    11586.346     7377.366     8250.483        3.479        1.361      194.076       78.529        0.164      337.991       10.338      867.376
10/15/2013  10:50:00      157.971      121.549       27.393       78.506       42.986       45.996     6163.253     1847.837     2115.657        2.530        0.506      199.321       19.961        0.010      337.942       10.253      867.351
10/15/2013  10:51:00       65.207      104.925       38.768       86.087       83.503       75.373     7410.916     6972.752     5681.135        1.841        1.003      123.537       58.095        0.221      338.249       10.772      867.320
10/15/2013  10:52:00      133.366      114.950      136.803       94.579       81.691       61.588     8945.255     6673.475     3793.036        3.456        0.971      176.068       54.571        0.096      338.010       10.370      867.332
10/15/2013  10:53:00      104.376       85.003       77.668       63.098       38.442       44.057     3981.361     1477.760     1940.996        1.577        0.370      134.610       29.988        0.050      338.177       10.650      867.340
10/15/2013  10:54:00      181.951      105.156       61.271      104.300       70.697       66.027    10878.529     4998.111     4359.620        3.407        1.012      210.152       49.360        0.055      338.276       10.813      867.334
10/15/2013  10:55:00      168.373       88.084       97.920      151.707       94.801       91.368    23014.923     8987.216     8348.053        4.302        2.018      190.022       76.866        0.164      338.351       10.941      867.333
10/15/2013  10:56:00      222.183      111.866       70.440      129.296      113.370      100.145    16717.394    12852.778    10028.970        5.321        1.980      248.756       64.907        0.068      338.245       10.761      867.315
10/15/2013  10:57:00       73.405       64.981       47.342       66.163       53.478       49.865     4377.520     2859.866     2486.472        1.079        0.486       98.035       39.279        0.161      338.569       11.310      867.292
10/15/2013  10:58:00      128.179      143.101      158.752      122.018      130.490       95.939    14888.504    17027.719     9204.230        5.161        2.056      192.114       92.743        0.233      338.672       11.480      867.274
10/15/2013  10:59:00       74.838       -3.310       73.861       91.240      136.271       71.943     8324.711    18569.911     5175.744        2.156        1.604       74.911       81.950        1.197      338.629       11.408      867.283
10/15/2013  11:00:00      179.108      115.568       56.977      111.737       84.849       62.493    12485.220     7199.344     3905.389        3.613        1.179      213.157       32.603        0.023      338.278       10.818      867.273
10/15/2013  11:01:00      237.499      150.149       77.652      116.365       69.735       65.183    13540.850     4862.985     4248.881        5.381        1.133      280.981       67.569        0.058      338.172       10.640      867.253
10/15/2013  11:02:00      217.850      126.955       54.309       91.279       72.982       70.049     8331.767     5326.421     4906.821        4.254        0.928      252.143       50.203        0.040      338.145       10.594      867.249
10/15/2013  11:03:00      165.948       92.123       27.873       76.919       63.666       44.829     5916.563     4053.309     2009.649        2.439        0.599      189.804       28.764        0.023      338.309       10.870      867.235
10/15/2013  11:04:00       51.623       31.453       66.268       47.190       60.709       47.557     2226.937     3685.597     2261.633        0.811        0.409       60.450       35.650        0.348      339.023       12.073      867.231
10/15/2013  11:05:00       95.543       84.364       75.930       85.952       82.682       76.363     7387.748     6836.297     5831.356        2.103        1.003      127.459       60.152        0.223      339.187       12.349      867.230
10/15/2013  11:06:00      152.705      171.892      159.505      140.294      135.760      100.112    19682.545    18430.726    10022.405        6.321        2.407      229.925       84.580        0.135      338.602       11.362      867.229
10/15/2013  11:07:00      128.338      122.226      135.465      121.408       99.352       80.882    14739.957     9870.748     6541.857        4.045        1.558      177.228       72.325        0.167      338.907       11.874      867.217
10/15/2013  11:08:00      113.252      125.707       95.857      103.973      114.775       86.996    10810.291    13173.212     7568.307        3.468        1.578      169.199       65.520        0.150      338.783       11.668      867.228
10/15/2013  11:09:00      180.815      171.517      150.380      117.491      109.980       87.391    13804.027    12095.524     7637.182        5.912        1.677      249.223       78.993        0.100      338.427       11.067      867.231
10/15/2013  11:10:00      125.991      137.277      152.296      139.213      104.972       76.882    19380.167    11019.159     5910.855        4.710        1.816      186.330       61.972        0.111      338.593       11.348      867.217
10/15/2013  11:11:00       74.473      126.515      136.679      121.588       98.510       76.636    14783.745     9704.168     5873.082        3.529        1.518      146.807       69.429        0.224      338.730       11.577      867.216
10/15/2013  11:12:00      161.418      118.422      117.203      132.148      105.154       87.401    17463.044    11057.425     7638.997        4.498        1.808      200.199       77.073        0.148      338.637       11.421      867.210
10/15/2013  11:13:00      118.400       65.301      144.821      136.872      105.653       96.181    18734.008    11162.630     9250.873        3.919        1.957      135.214       89.601        0.439      339.015       12.057      867.213
10/15/2013  11:14:00      137.086       51.686       84.324      113.454      104.942       80.260    12871.720    11012.724     6441.595        2.944        1.516      146.506       77.927        0.283      338.929       11.914      867.226
10/15/2013  11:15:00      109.966      -85.970       26.018      110.029       98.221       63.542    12106.458     9647.286     4037.618        2.297        1.290      139.583       34.303        0.060      338.523       11.232      867.210
10/15/2013  11:16:00       63.717       58.799       82.508       95.767       75.669       53.873     9171.248     5725.786     2902.303        1.606        0.890       86.701       50.148        0.335      338.797       11.692      867.205
10/15/2013  11:17:00      161.857      154.561      126.735      107.687       80.085       79.280    11596.438     6413.667     6285.336        4.522        1.215      223.801       53.239        0.057      338.726       11.571      867.188
10/15/2013  11:18:00      264.675      172.668       96.206      151.115      108.096       74.925    22835.682    11684.811     5613.699        7.462        2.007      316.018       68.249        0.047      338.544       11.264      867.181
10/15/2013  11:19:00      216.378       97.985       72.979      126.191      106.299       93.044    15924.177    11299.416     8657.191        4.881        1.794      237.530       75.754        0.102      338.697       11.522      867.197
10/15/2013  11:20:00      193.261      139.883      148.271      111.666       99.827       81.032    12469.353     9965.408     6566.156        5.395        1.450      238.573       67.787        0.081      338.620       11.392      867.158
10/15/2013  11:21:00       55.312      -28.298       59.189       65.257      131.048       75.723     4258.477    17173.453     5734.039        1.726        1.358       62.131       87.887        2.001      338.972       11.986      867.168
10/15/2013  11:22:00       56.795     -129.494       -2.095       63.854       93.258       56.987     4077.297     8697.105     3247.514        1.801        0.801      141.401       53.218        0.142      338.809       11.712      867.159
10/15/2013  11:23:00      103.703      -61.064       17.924       38.144      110.223       52.731     1455.002    12149.076     2780.590        1.559        0.819      120.345       67.803        0.317      338.669       11.476      867.144
10/15/2013  11:24:00       59.368       39.881       76.701       75.247      105.639       89.906     5662.073    11159.525     8083.174        1.795        1.245       71.520       83.514        1.364      339.243       12.443      867.114
10/15/2013  11:25:00      142.362       93.015       40.483      109.826       73.447       90.932    12061.789     5394.450     8268.718        2.814        1.286      170.055       47.934        0.079      338.795       11.688      867.113
10/15/2013  11:26:00      147.208       99.670       40.106      103.563       72.074       63.519    10725.319     5194.702     4034.701        2.658        0.998      177.776       33.197        0.035      338.779       11.661      867.108
10/15/2013  11:27:00      126.692      103.284       88.213      100.136       75.916       81.559    10027.260     5763.271     6651.821        2.847        1.122      163.457       79.992        0.239      339.034       12.088      867.103
10/15/2013  11:28:00      109.662      146.668      139.763      114.315       96.214       97.569    13068.033     9257.075     9519.722        4.245        1.592      183.132       89.438        0.239      339.108       12.213      867.108
10/15/2013  11:29:00      106.646      136.941      147.422      111.525       96.546       74.138    12437.879     9321.056     5496.456        3.955        1.363      173.569       73.734        0.180      338.989       12.011      867.126
10/15/2013  11:30:00      147.286      141.047      106.349      141.587      101.308       81.983    20046.902    10263.241     6721.287        4.496        1.852      203.930       82.079        0.162      338.873       11.818      867.128
10/15/2013  11:31:00      125.459       65.869       89.491      157.242       83.687       78.339    24724.928     7003.458     6137.019        3.297        1.893      141.699       76.067        0.288      339.189       12.349      867.136
10/15/2013  11:32:00      211.025      101.497       99.589      138.861      113.461       76.058    19282.402    12873.484     5784.888        5.134        1.897      234.164       74.511        0.101      339.045       12.107      867.131
10/15/2013  11:33:00      146.478       74.161       86.077      142.493      102.631       80.925    20304.170    10533.193     6548.885        3.587        1.869      164.182       56.065        0.117      338.939       11.930      867.154
10/15/2013  11:34:00      159.349      142.034      154.882      139.289       98.035       72.575    19401.315     9610.777     5267.091        5.191        1.714      213.461       82.074        0.148      338.532       11.243      867.153
10/15/2013  11:35:00       71.364       54.733       25.594      105.797       68.124       49.381    11193.104     4640.944     2438.498        1.350        0.914       89.936       24.541        0.074      338.774       11.653      867.122
10/15/2013  11:36:00       73.178      -70.605       46.405      121.432      144.737       70.083    14745.626    20948.938     4911.680        2.654        2.030      101.686       80.561        0.628      339.188       12.349      867.122
10/15/2013  11:37:00      116.608     -171.913       18.247      126.178      142.548       70.669    15920.775    20320.056     4994.172        4.235        2.062      207.729       87.996        0.179      338.857       11.792      867.090
10/15/2013  11:38:00       13.284       40.930       76.343       42.389       62.717       42.105     1796.846     3933.392     1772.850        0.759        0.375       43.032       21.197        0.243      339.402       12.711      867.099
10/15/2013  11:39:00      266.807      126.520       70.192      118.394      129.902       93.231    14017.155    16874.414     8692.022        6.584        1.979      295.285       64.073        0.047      339.064       12.140      867.112
10/15/2013  11:40:00      120.247       21.441       75.768      107.618      127.511       78.090    11581.662    16259.098     6098.097        2.729        1.697      122.144       77.857        0.406      339.153       12.289      867.118
10/15/2013  11:41:00       76.698       42.913      130.706       92.586       93.627       67.668     8572.082     8765.949     4578.893        2.336        1.096       87.887       63.169        0.517      339.249       12.452      867.128
10/15/2013  11:42:00      159.914       70.047       93.767       93.417      155.667       96.701     8726.821    24232.097     9351.138        4.078        2.116      174.583      100.325        0.330      338.987       12.010      867.099
10/15/2013  11:43:00      115.794      150.029      126.860      104.002       72.745       65.762    10816.475     5291.794     4324.664        3.622        1.022      189.518       55.186        0.085      339.223       12.405      867.095
10/15/2013  11:44:00      192.407      119.629       38.311      106.294      103.113       69.994    11298.394    10632.283     4899.155        3.981        1.341      226.565       52.035        0.053      339.182       12.337      867.105
10/15/2013  11:45:00      309.172      189.638       53.956      171.994      103.400       91.902    29581.796    10691.639     8446.015        9.158        2.436      362.698       46.846        0.017      338.834       11.753      867.114
10/15/2013  11:46:00      250.018      121.578       70.339      176.573      131.416       96.305    31178.118    17270.237     9274.711        6.997        2.886      278.011       92.138        0.110      338.875       11.820      867.155
10/15/2013  11:47:00      121.879      120.107      112.722      121.471       99.190       94.516    14755.161     9838.644     8933.216        3.775        1.676      171.115       76.374        0.199      338.871       11.815      867.156
10/15/2013  11:48:00       89.362       72.536       26.649       72.574       52.162       50.131     5267.010     2720.905     2513.094        1.223        0.525      115.096       26.272        0.052      338.810       11.713      867.126
10/15/2013  11:49:00      132.503       90.656       51.996       67.761       50.784       47.078     4591.506     2579.019     2216.371        1.893        0.469      160.547       37.641        0.055      339.011       12.050      867.113
10/15/2013  11:50:00       89.546      -33.110       37.429       72.840       92.391       46.580     5305.603     8536.044     2169.696        1.326        0.801       95.471       51.114        0.287      339.363       12.645      867.107
10/15/2013  11:51:00      142.918       12.050       45.412       87.555      107.296       74.884     7665.871    11512.481     5607.612        2.370        1.239      143.425       61.934        0.186      339.323       12.576      867.105
10/15/2013  11:52:00       78.054       36.529       76.688       88.679       97.510       63.004     7863.898     9508.172     3969.483        1.732        1.067       86.179       55.567        0.416      339.428       12.753      867.100
10/15/2013  11:53:00       75.009       55.867      101.670       92.302      117.780       86.718     8519.748    13872.068     7519.983        2.449        1.496       93.528       76.545        0.670      339.631       13.095      867.124
10/15/2013  11:54:00      150.970      125.631      128.126      140.422       93.682       80.078    19718.245     8776.280     6412.503        4.494        1.745      196.405       74.390        0.143      339.451       12.790      867.156
10/15/2013  11:55:00      201.408      -60.345       87.764      125.381      213.295      113.693    15720.308    45494.830    12926.155        6.301        3.707      210.254      119.928        0.325      339.252       12.456      867.137
10/15/2013  11:56:00      143.211      151.053       83.173      124.172       98.567      103.511    15418.694     9715.372    10714.437        4.304        1.792      208.151       86.136        0.171      339.041       12.101      867.206
10/15/2013  11:57:00      132.166      126.842       92.083       95.413       88.037       89.014     9103.697     7750.449     7923.496        3.340        1.239      183.185       56.669        0.096      339.015       12.055      867.210
10/15/2013  11:58:00      150.159      124.227       74.670      147.102       94.855       71.699    21638.920     8997.394     5140.797        3.966        1.789      194.885       72.705        0.139      339.015       12.058      867.212
10/15/2013  11:59:00      301.609      202.388       33.048      130.140       99.610       81.639    16936.412     9922.221     6665.007        8.327        1.676      363.221       34.843        0.009      338.612       11.378      867.198
10/15/2013  12:00:00      253.272      128.092       41.400      124.079       98.787       71.285    15395.587     9758.819     5081.483        5.625        1.512      283.821       50.014        0.031      338.767       11.639      867.205
10/15/2013  12:01:00      114.535       97.069       69.712      117.710       81.439       63.303    13855.625     6632.244     4007.258        2.594        1.225      150.136       58.722        0.153      339.038       12.096      867.194
10/15/2013  12:02:00      252.244      138.603       54.686      138.774       89.958       75.936    19258.257     8092.516     5766.276        5.947        1.656      287.816       58.790        0.042      339.157       12.295      867.186
10/15/2013  12:03:00      205.672      109.431       75.087      118.241      126.409       85.672    13980.893    15979.324     7339.675        4.860        1.865      232.972       71.883        0.095      339.180       12.335      867.177
10/15/2013  12:04:00      194.654      134.502      146.351      148.109      111.630       98.453    21936.247    12461.309     9692.979        6.074        2.205      236.602       92.047        0.151      338.818       11.726      867.177
10/15/2013  12:05:00      179.678      -18.620       29.902       97.982      135.231       71.075     9600.562    18287.515     5051.696        3.323        1.647      180.641       49.608        0.075      338.708       11.540      867.184
10/15/2013  12:06:00       59.788        8.105       83.959       70.185      128.061       82.996     4925.915    16399.528     6888.319        1.945        1.411       60.335       95.345        2.497      338.996       12.026      867.145
10/15/2013  12:07:00       93.042       68.879       78.097       69.246       61.011       51.747     4794.969     3722.372     2677.764        1.535        0.560      115.764       43.089        0.139      339.222       12.407      867.118
10/15/2013  12:08:00      123.841      105.341       85.811       95.745       85.460       89.073     9167.199     7303.337     7934.044        2.910        1.220      162.583       72.324        0.198      339.401       12.706      867.107
10/15/2013  12:09:00      163.814      115.249       95.953      128.074      112.587      106.207    16402.874    12675.943    11279.850        4.483        2.018      200.293       80.315        0.161      339.266       12.480      867.097
10/15/2013  12:10:00       37.474      -32.734       61.412       77.510      147.515       89.496     6007.756    21760.773     8009.510        2.101        1.789       49.758       95.234        3.663      339.609       13.059      867.104
10/15/2013  12:11:00      136.662      145.156       78.175      122.691       89.734       97.038    15053.044     8052.276     9416.403        3.918        1.626      199.366       82.554        0.171      339.414       12.728      867.107
10/15/2013  12:12:00      235.531      161.131       54.316      133.368      118.915       90.376    17787.084    14140.682     8167.786        6.223        2.005      285.374       68.496        0.058      339.262       12.472      867.091
10/15/2013  12:13:00      204.499      163.312      147.902      120.183       96.244       98.474    14443.906     9262.938     9697.159        6.188        1.670      261.708       76.905        0.086      339.223       12.406      867.099
10/15/2013  12:14:00      108.626       84.377       36.772      118.424       96.157       64.721    14024.154     9246.120     4188.774        2.386        1.373      137.547       32.429        0.056      339.540       12.941      867.112
10/15/2013  12:15:00       88.268       68.718       17.990       56.752       35.821       40.793     3220.743     1283.143     1664.064        0.950        0.308      111.863       22.275        0.040      339.660       13.146      867.098
10/15/2013  12:16:00       56.899       73.399       67.394       57.457       68.186       62.745     3301.360     4649.290     3936.968        1.252        0.594       92.870       52.904        0.325      339.819       13.415      867.079
10/15/2013  12:17:00       99.081     -125.960        9.673       98.389      187.285       74.262     9680.431    35075.590     5514.775        3.801        2.514      160.259       97.380        0.369      339.428       12.752      867.070
10/15/2013  12:18:00       63.130       17.811       57.393       77.107      126.758       65.135     5945.484    16067.573     4242.611        1.692        1.313       65.595       70.570        1.157      339.913       13.571      867.069
10/15/2013  12:19:00      209.592      121.619       27.947       94.907       87.300       75.736     9007.307     7621.265     5735.922        4.093        1.118      242.322       24.929        0.011      339.467       12.818      867.087
10/15/2013  12:20:00      157.847      100.166       80.856      119.121       99.754       82.101    14189.892     9950.789     6740.656        3.618        1.544      186.946       65.298        0.122      339.734       13.269      867.072
10/15/2013  12:21:00      278.578      165.570      111.986      127.073      124.502      108.402    16147.489    15500.648    11751.001        8.047        2.170      324.067       90.946        0.079      339.270       12.486      867.092
10/15/2013  12:22:00      125.721       94.473      116.853      112.481      132.803       92.809    12651.979    17636.598     8613.490        3.864        1.945      157.261       92.570        0.346      339.527       12.919      867.110
10/15/2013  12:23:00      114.972      -84.595       39.211       78.901       97.827       61.995     6225.439     9570.200     3843.379        2.077        0.982      142.741       44.917        0.099      339.391       12.692      867.080
10/15/2013  12:24:00       22.107      -74.029       12.847       29.445       43.288       34.288      866.993     1873.857     1175.682        0.502        0.196       77.259       23.433        0.092      339.136       12.264      867.027
10/15/2013  12:25:00       -9.871       11.565       45.040       42.563       64.321       54.168     1811.625     4137.206     2934.155        0.557        0.444       15.205       45.458        8.939      339.748       13.294      867.002
10/15/2013  12:26:00      106.634       78.964      101.044      117.745      106.309       59.256    13863.914    11301.524     3511.246        2.824        1.434      132.688       50.643        0.146      339.300       12.537      866.999
10/15/2013  12:27:00       50.687       47.872       61.882       71.515       81.732       58.571     5114.393     6680.116     3430.531        1.195        0.761       69.720       42.185        0.366      339.550       12.960      866.975
10/15/2013  12:28:00       97.013        0.761       87.885      128.688      148.014      112.217    16560.710    21908.103    12592.662        3.409        2.553       97.016      113.333        1.365      339.768       13.327      866.957
10/15/2013  12:29:00       89.394       82.218      121.032      123.569      115.649      106.521    15269.401    13374.762    11346.794        3.469        2.000      121.454       91.729        0.570      339.682       13.180      866.947
10/15/2013  12:30:00      123.855        0.251       63.107      106.531      124.350       68.673    11348.860    15462.917     4715.924        2.542        1.576      123.855       64.921        0.275      339.681       13.180      866.992
10/15/2013  12:31:00      175.179      142.858      174.078      146.281      131.074      108.229    21397.994    17180.501    11713.474        6.584        2.515      226.044       81.546        0.130      339.552       12.961      866.999
10/15/2013  12:32:00      244.065      159.104      100.780      151.649      107.099       78.026    22997.278    11470.238     6088.034        6.779        2.028      291.345       68.996        0.056      339.246       12.446      867.005
10/15/2013  12:33:00      274.257      189.886       48.741      117.424      104.249       93.421    13788.467    10867.880     8727.486        7.351        1.669      333.577       43.513        0.017      339.320       12.570      867.013
10/15/2013  12:34:00      291.612      203.951       23.310      110.215       85.104       81.079    12147.358     7242.723     6573.849        7.657        1.298      355.856       48.240        0.018      339.061       12.134      867.027
10/15/2013  12:35:00      234.034      168.435       18.222      132.313      118.159       79.428    17506.812    13961.442     6308.803        6.062        1.889      288.344       69.061        0.057      339.154       12.288      866.977
10/15/2013  12:36:00      109.731      100.158        2.718      115.432       81.320       44.824    13324.634     6612.980     2009.200        2.201        1.097      148.568       32.696        0.048      339.515       12.899      866.970
10/15/2013  12:37:00      156.156      116.930       30.133      122.957       78.010       71.251    15118.344     6085.496     5076.756        3.262        1.314      195.083       13.158        0.005      339.373       12.661      866.948
10/15/2013  12:38:00      256.621      168.485       56.646      151.380      122.533       90.863    22915.989    15014.412     8255.998        7.181        2.309      306.988       63.955        0.043      339.284       12.509      866.927
10/15/2013  12:39:00       91.242       12.875       93.296      108.738      130.940       79.891    11823.849    17145.286     6382.640        2.627        1.768       92.146       63.434        0.474      339.782       13.350      866.932
10/15/2013  12:40:00      164.610     -100.722       53.606      131.432      143.571      105.076    17274.394    20612.774    11041.006        4.451        2.446      192.980      109.425        0.322      339.469       12.822      866.940
10/15/2013  12:41:00      209.914      108.905       71.689      170.042      131.925       91.511    28914.188    17404.081     8374.214        5.787        2.735      236.483       78.396        0.110      339.471       12.825      866.929
10/15/2013  12:42:00      219.896      142.599       57.079      118.083       78.916       75.718    13943.688     6227.738     5733.240        4.892        1.295      262.085       78.170        0.089      339.218       12.398      866.921
10/15/2013  12:43:00      183.750       92.775       79.050      127.725      104.305      102.332    16313.729    10879.435    10471.743        4.313        1.883      205.842       82.543        0.161      339.077       12.163      866.899
10/15/2013  12:44:00       77.976       57.887       42.480       79.970       59.396       61.999     6395.253     3527.901     3843.854        1.250        0.688       97.114       40.811        0.177      339.594       13.034      866.846
10/15/2013  12:45:00       90.369       52.880      128.908      121.300      125.537       85.598    14713.660    15759.440     7326.952        3.268        1.890      104.703       97.857        0.873      339.676       13.170      866.859
10/15/2013  12:46:00      131.260       34.999       78.032       84.784       61.209       68.717     7188.253     3746.490     4721.961        2.010        0.783      135.846       53.589        0.156      339.442       12.775      866.856
10/15/2013  12:47:00       46.168      -32.708       29.627       63.021       96.464       53.156     3971.656     9305.335     2825.559        1.009        0.805       56.580       57.904        1.047      339.956       13.646      866.844
10/15/2013  12:48:00       63.960        1.053       66.487      102.026       86.765       58.441    10409.292     7528.103     3415.396        1.493        1.068       63.969       51.770        0.655      340.046       13.795      866.813
10/15/2013  12:49:00       91.067       76.939       76.427      106.534       92.536       62.051    11349.455     8562.988     3850.289        2.190        1.188      119.218       40.605        0.116      339.981       13.686      866.784
10/15/2013  12:50:00      202.565       23.579       65.036      148.725      126.844       82.965    22119.117    16089.459     6883.188        4.545        2.255      203.933       82.404        0.163      339.704       13.216      866.756
10/15/2013  12:51:00       61.831       71.879      157.425       97.998      189.162       98.053     9603.606    35782.112     9614.328        4.438        2.750       94.814      122.225        1.662      339.561       12.975      866.773
10/15/2013  12:52:00      113.384       83.130      128.784      119.894      134.895       74.950    14374.609    18196.722     5617.477        3.726        1.909      140.593       73.152        0.271      339.549       12.955      866.768
10/15/2013  12:53:00      154.822     -166.777        4.855      103.544      105.073       64.425    10721.361    11040.340     4150.529        3.885        1.296      227.561       69.412        0.093      339.412       12.726      866.756
10/15/2013  12:54:00      159.227      -11.365       92.110      125.209      149.807      105.854    15677.343    22442.122    11204.997        4.164        2.466      159.632      119.936        0.564      339.741       13.279      866.728
10/15/2013  12:55:00      172.757      110.608       57.493      145.072       73.958       71.283    21045.917     5469.830     5081.219        3.848        1.580      205.132       45.867        0.050      339.585       13.017      866.734
10/15/2013  12:56:00      155.044      186.064      187.548      154.192      144.217      115.431    23775.073    20798.592    13324.295        7.585        2.895      242.195       98.308        0.165      339.670       13.159      866.721
10/15/2013  12:57:00      230.057      140.315      125.765      136.275      128.113       89.233    18570.817    16412.865     7962.569        6.568        2.147      269.471       81.146        0.091      339.486       12.849      866.706
10/15/2013  12:58:00      173.781      173.458      164.110      111.268      108.262       85.826    12380.549    11720.669     7366.098        5.934        1.573      245.535       77.758        0.100      339.525       12.916      866.687
10/15/2013  12:59:00      118.620      101.765      120.733      114.980       97.323       75.597    13220.425     9471.807     5714.923        3.370        1.420      156.291       51.917        0.110      339.911       13.566      866.677
10/15/2013  13:00:00      140.581       85.083       73.594      108.079       94.681       91.666    11681.008     8964.586     8402.614        3.073        1.452      164.323       78.401        0.228      340.124       13.927      866.671
10/15/2013  13:01:00      160.193      141.539      133.669      105.918       92.179       75.433    11218.558     8496.877     5690.081        4.448        1.270      213.764       48.441        0.051      339.644       13.116      866.679
10/15/2013  13:02:00      102.999      154.955      145.538      118.804       75.525       81.784    14114.438     5703.962     6688.690        4.115        1.325      186.064       81.381        0.191      339.899       13.545      866.653
10/15/2013  13:03:00      132.961       87.900       71.203      124.539      107.669       65.301    15509.984    11592.680     4264.271        3.091        1.568      159.390       37.500        0.055      339.838       13.444      866.619
10/15/2013  13:04:00       78.132       16.174      106.204       92.883      104.488       71.080     8627.343    10917.717     5052.344        2.112        1.230       79.789       63.607        0.636      340.090       13.870      866.600
10/15/2013  13:05:00      138.753      -53.295       66.656      127.379      139.182       71.325    16225.504    19371.721     5087.269        3.360        2.034      148.637       92.616        0.388      339.725       13.254      866.610
10/15/2013  13:06:00       63.184       21.932       58.003       60.480      108.880       52.981     3657.857    11854.951     2807.028        1.308        0.916       66.882       54.524        0.665      339.990       13.703      866.590
10/15/2013  13:07:00      150.095       91.194       82.708      138.106       93.623       69.690    19073.204     8765.262     4856.708        3.518        1.635      175.627       51.396        0.086      339.925       13.591      866.571
10/15/2013  13:08:00      234.485      122.371       38.868      126.057      111.911       86.999    15890.429    12524.030     7568.850        5.372        1.799      264.496       38.000        0.021      339.557       12.969      866.578
10/15/2013  13:09:00      217.099      142.931      136.604      139.573      106.510       91.174    19480.550    11344.330     8312.647        6.267        1.957      259.925       89.458        0.118      339.512       12.891      866.581
10/15/2013  13:10:00      178.221      137.346       94.636       94.077       69.876       73.687     8850.484     4882.694     5429.718        3.937        0.958      225.004       51.040        0.051      339.260       12.468      866.577
10/15/2013  13:11:00      202.645      107.933       61.186       99.793       94.854       70.450     9958.635     8997.303     4963.205        4.018        1.196      229.597       46.031        0.040      339.232       12.421      866.569
10/15/2013  13:12:00      166.816      138.556       27.462       91.534       60.177       81.858     8378.484     3621.270     6700.782        3.324        0.935      216.853       30.590        0.020      339.201       12.370      866.556
10/15/2013  13:13:00       41.537       40.793       36.495       52.562       61.675       46.563     2762.736     3803.856     2168.073        0.673        0.437       58.218       22.976        0.156      339.566       12.985      866.524
10/15/2013  13:14:00      136.492      133.831       93.148      111.869       66.451       76.337    12514.573     4415.786     5827.378        3.398        1.138      191.157       70.605        0.136      339.581       13.009      866.507
10/15/2013  13:15:00      239.662      162.106       57.028      138.024      128.181       91.023    19050.558    16430.312     8285.130        6.536        2.188      289.338       59.847        0.043      339.611       13.060      866.500
10/15/2013  13:16:00      324.619      163.236      111.818      147.201      129.789      111.451    21668.177    16845.293    12421.291        9.772        2.547      363.351       94.706        0.068      339.351       12.623      866.501
10/15/2013  13:17:00      193.743      158.566       76.371      161.613      122.848       61.970    26118.913    15091.613     3840.262        5.677        2.253      250.359       34.506        0.019      339.582       13.011      866.523
10/15/2013  13:18:00      168.801       85.737       84.123      113.682      125.054       84.345    12923.707    15638.498     7114.111        3.929        1.784      189.327       74.867        0.156      339.434       12.762      866.499
10/15/2013  13:19:00       50.202       70.449       74.478       96.675       75.562       52.506     9346.045     5709.658     2756.916        1.542        0.891       86.507       40.601        0.220      339.865       13.491      866.467
10/15/2013  13:20:00      215.500      103.070       83.468      168.026      151.156       90.640    28232.597    22848.064     8215.582        6.165        2.965      238.881       60.874        0.065      339.911       13.567      866.443
10/15/2013  13:21:00      216.895      144.100       93.401      141.629      106.111      113.588    20058.894    11259.641    12902.212        6.037        2.211      260.401       87.950        0.114      339.642       13.113      866.462
10/15/2013  13:22:00      199.376      135.846       43.128      114.889       88.724       68.678    13199.379     7871.965     4716.681        4.292        1.289      241.257       28.921        0.014      339.504       12.881      866.465
10/15/2013  13:23:00      100.088       44.070       20.353       61.143       58.344       41.912     3738.444     3404.054     1756.657        1.063        0.445      109.361       30.827        0.079      339.667       13.156      866.440
10/15/2013  13:24:00       28.854      -35.693       47.657       67.883       81.186       43.502     4608.083     6591.175     1892.444        0.873        0.655       45.897       33.779        0.542      340.155       13.981      866.415
10/15/2013  13:25:00       91.616       76.624       48.105       72.197       83.881       67.055     5212.423     7036.083     4496.439        1.666        0.837      119.435       44.975        0.142      339.953       13.639      866.403
10/15/2013  13:26:00      147.620      111.761       90.478       86.815       92.916       95.152     7536.910     8633.387     9053.915        3.384        1.261      185.154       69.091        0.139      339.627       13.086      866.399
10/15/2013  13:27:00       98.871       65.607       82.912      105.505      105.502       62.603    11131.324    11130.648     3919.092        2.356        1.309      118.658       56.195        0.224      339.764       13.319      866.401
10/15/2013  13:28:00       99.021       78.853       64.248      116.536       76.252       61.845    13580.700     5814.415     3824.776        2.168        1.161      126.582       51.610        0.166      339.883       13.520      866.391
10/15/2013  13:29:00      132.353       51.001       88.767      117.549       75.981       74.308    13817.732     5773.067     5521.722        2.655        1.256      141.839       64.361        0.206      339.754       13.301      866.388
10/15/2013  13:30:00      248.080      174.072       57.420      174.087      100.261       95.764    30306.426    10052.298     9170.823        7.233        2.476      303.059       72.761        0.058      339.520       12.906      866.367
10/15/2013  13:31:00      129.417       81.904       21.153       66.230       63.960       49.272     4386.401     4090.846     2427.726        1.740        0.545      153.157       30.706        0.040      339.536       12.936      866.376
10/15/2013  13:32:00       53.378       -2.486       67.123       67.796      123.712       63.492     4596.326    15304.551     4031.229        1.564        1.197       53.436       72.447        1.838      340.156       13.980      866.364
10/15/2013  13:33:00      125.937        8.351        2.625      103.831       98.113       48.214    10780.792     9626.230     2324.610        1.933        1.137      126.213       32.728        0.067      339.592       13.029      866.363
10/15/2013  13:34:00      125.816      135.439       -5.200       95.010       86.369       66.055     9026.850     7459.560     4363.325        2.752        1.042      184.860       57.680        0.097      339.576       13.001      866.357
10/15/2013  13:35:00      166.193      150.805       16.846       82.582       76.541       61.489     6819.765     5858.471     3780.852        3.355        0.823      224.415       46.683        0.043      339.499       12.870      866.327
10/15/2013  13:36:00       91.578      153.821       -8.340       62.847       73.314       58.927     3949.796     5375.001     3472.402        2.245        0.640      179.018       53.010        0.088      339.554       12.965      866.320
10/15/2013  13:37:00       67.181      108.522       12.034       69.785       92.491       57.027     4869.931     8554.513     3252.080        1.655        0.834      127.634       55.564        0.190      339.669       13.159      866.298
10/15/2013  13:38:00       66.698      136.769      116.055       86.000      102.678      101.147     7395.946    10542.767    10230.669        3.239        1.408      152.166       84.809        0.311      339.838       13.443      866.292
10/15/2013  13:39:00       69.027       59.393       60.884       83.299       81.062       78.578     6938.775     6571.121     6174.461        1.584        0.984       91.062       61.354        0.454      339.740       13.280      866.286
10/15/2013  13:40:00       42.898       72.198       79.296       85.702       45.408       45.084     7344.829     2061.849     2032.606        1.239        0.572       83.981       42.554        0.257      340.096       13.878      866.265
10/15/2013  13:41:00      165.086       51.641       80.108      143.164       83.442       67.286    20495.839     6962.583     4527.353        3.416        1.599      172.974       67.319        0.151      339.886       13.524      866.270
10/15/2013  13:42:00      147.724       92.637      135.895      149.792      130.394       91.849    22437.771    17002.664     8436.311        4.836        2.394      174.367       94.504        0.294      339.726       13.255      866.267
10/15/2013  13:43:00      147.183      -60.649       42.025      104.004      140.420       85.930    10816.833    19717.679     7383.955        3.251        1.896      159.189       81.508        0.262      339.781       13.346      866.272
10/15/2013  13:44:00       70.389       67.522       80.142       98.171       92.614       70.169     9637.487     8577.421     4923.662        1.953        1.157       97.538       64.625        0.439      339.973       13.671      866.280
10/15/2013  13:45:00      133.599      103.970      106.787      118.084      124.833       88.220    13943.835    15583.240     7782.745        3.868        1.865      169.288       83.085        0.241      339.959       13.647      866.277
10/15/2013  13:46:00       91.542       36.108       94.834      106.111      130.209       74.333    11259.504    16954.477     5525.412        2.620        1.687       98.406       66.899        0.462      339.669       13.158      866.299
10/15/2013  13:47:00      125.327       89.903       64.119       90.421       71.148       70.017     8175.991     5062.082     4902.353        2.302        0.907      154.238       43.754        0.080      340.086       13.863      866.273
10/15/2013  13:48:00      142.602       84.076       36.836       93.765       68.829       70.601     8791.837     4737.444     4984.490        2.363        0.926      165.542       50.293        0.092      339.623       13.082      866.276
10/15/2013  13:49:00      142.632      104.980       32.964       89.289       87.786       77.777     7972.595     7706.394     6049.339        2.709        1.086      177.101       41.735        0.056      339.893       13.536      866.233
10/15/2013  13:50:00      261.188      121.866       26.533      164.756      107.128       84.954    27144.399    11476.332     7217.197        6.480        2.292      288.219       72.908        0.064      339.919       13.579      866.228
10/15/2013  13:51:00      214.828      122.101       66.299      123.430       79.115       67.158    15235.083     6259.154     4510.133        4.572        1.300      247.103       44.953        0.033      339.714       13.234      866.226
10/15/2013  13:52:00       51.226      -85.334       12.801       84.094       93.716       48.645     7071.832     8782.616     2366.374        1.414        0.911       99.529       43.889        0.194      339.814       13.405      866.229
10/15/2013  13:53:00       87.774       19.056       52.464       87.652       68.243       46.333     7682.856     4657.097     2146.765        1.265        0.724       89.819       43.479        0.234      339.946       13.628      866.234
10/15/2013  13:54:00       59.059       23.315       11.837       59.553       45.825       38.836     3546.552     2099.915     1508.223        0.566        0.358       63.495       29.202        0.212      339.884       13.523      866.227
10/15/2013  13:55:00      163.948      219.672      181.016      117.974      125.153      103.427    13917.755    15663.356    10697.231        7.408        2.014      274.108      103.525        0.143      339.518       12.902      866.197
10/15/2013  13:56:00      124.936       82.817       89.544       79.861       80.174       63.808     6377.710     6427.813     4071.499        2.368        0.844      149.892       46.455        0.096      339.665       13.152      866.222
10/15/2013  13:57:00      111.406      142.052      140.177       71.709       76.125       57.629     5142.209     5795.010     3321.138        3.325        0.713      180.527       45.205        0.063      339.577       13.002      866.215
10/15/2013  13:58:00       33.446      -35.657        1.654       56.998      113.957       44.740     3248.738    12986.108     2001.684        1.031        0.912       48.888       31.005        0.402      339.884       13.523      866.189
10/15/2013  13:59:00      187.074      114.985       68.852      108.083       90.704       65.274    11681.973     8227.204     4260.743        3.856        1.208      219.587       18.038        0.007      339.895       13.539      866.211
10/15/2013  14:00:00      196.623      139.499      113.767      143.683      131.352      114.869    20644.729    17253.311    13194.826        6.107        2.555      241.081      109.094        0.205      340.056       13.810      866.210
10/15/2013  14:01:00      152.470      217.567      215.812      123.155      130.540      117.887    15167.159    17040.790    13897.388        8.162        2.305      265.673       94.516        0.127      339.493       12.860      866.214
10/15/2013  14:02:00      234.049      161.603      101.378      138.105      132.639      124.846    19073.014    17592.990    15586.600        7.170        2.613      284.420      120.803        0.180      339.720       13.243      866.216
10/15/2013  14:03:00      199.037       93.673       53.548      142.774       87.082       86.102    20384.398     7583.266     7413.543        4.331        1.769      219.978       65.216        0.088      339.633       13.097      866.214
10/15/2013  14:04:00      120.973       27.230       69.692       79.503       78.397       56.775     6320.655     6146.159     3223.429        1.796        0.785      124.000       49.927        0.162      339.600       13.043      866.218
10/15/2013  14:05:00      149.470     -130.486        0.789       84.020      154.620       69.897     7059.435    23907.300     4885.642        3.760        1.793      198.413       84.048        0.179      339.765       13.320      866.173
10/15/2013  14:06:00      172.958      -81.642       30.824      118.979      189.857       85.890    14156.062    36045.636     7377.164        4.754        2.879      191.259      107.217        0.314      339.816       13.406      866.131
10/15/2013  14:07:00       47.355       52.071       72.273       79.853       92.358       56.604     6376.471     8530.023     3204.017        1.414        0.906       70.384       48.551        0.476      340.334       14.282      866.132
10/15/2013  14:08:00       79.974      103.754       67.412       74.061       71.497       61.426     5485.085     5111.761     3773.131        1.803        0.718      130.999       33.232        0.064      340.403       14.398      866.124
10/15/2013  14:09:00      230.053      148.480       24.496       80.115       54.838       64.530     6418.369     3007.243     4164.064        4.458        0.679      273.807       48.230        0.031      339.756       13.305      866.120
10/15/2013  14:10:00      143.164      109.855       11.019       80.944       71.153       43.186     6551.995     5062.695     1865.049        2.308        0.674      180.456       25.903        0.021      339.536       12.935      866.115
10/15/2013  14:11:00      177.932      107.172       40.933       64.249       47.408       54.034     4127.891     2247.496     2919.668        2.706        0.465      207.715       24.813        0.014      339.521       12.910      866.120
10/15/2013  14:12:00      199.136      119.200       98.855      151.531      107.422       96.682    22961.566    11539.455     9347.349        5.373        2.192      232.085       85.403        0.135      339.862       13.483      866.114
10/15/2013  14:13:00      197.892      142.681       88.545      148.167      111.194       94.150    21953.317    12364.153     8864.161        5.526        2.159      243.965       96.911        0.158      339.800       13.377      866.126
10/15/2013  14:14:00      113.827      -36.354       43.838      120.520      113.931       79.958    14525.099    12980.260     6393.307        2.504        1.695      119.492       66.333        0.308      340.022       13.754      866.138
10/15/2013  14:15:00      158.229      -68.610       24.042      128.005      174.779       75.092    16385.217    30547.738     5638.754        4.144        2.629      172.464       83.496        0.234      339.857       13.475      866.119
10/15/2013  14:16:00      204.389      126.347       33.071      128.766      114.591       71.167    16580.729    13131.054     5064.812        4.680        1.739      240.289       42.236        0.031      339.578       13.005      866.137
10/15/2013  14:17:00      128.324       13.744       16.013       90.491      101.915       48.536     8188.652    10386.630     2355.699        1.892        1.047      129.058       22.615        0.031      339.786       13.356      866.101
10/15/2013  14:18:00      245.703      121.263       42.891      109.993       91.806       91.718    12098.527     8428.352     8412.241        5.292        1.447      273.997       54.340        0.039      339.986       13.692      866.072
10/15/2013  14:19:00      191.079      259.403      226.477      116.602      112.640      103.856    13595.986    12687.797    10786.075        9.607        1.853      322.182       81.861        0.065      339.712       13.230      866.037
10/15/2013  14:20:00      153.588      119.547      142.093      139.675      106.317       88.878    19509.063    11303.306     7899.223        4.838        1.936      194.630       71.765        0.136      340.198       14.049      866.045
10/15/2013  14:21:00       38.434       34.021       99.444       78.823      111.369       50.060     6213.067    12402.988     2506.035        1.682        1.056       51.328       52.260        1.037      340.571       14.683      866.058
10/15/2013  14:22:00      149.452       -8.944       93.715      142.941      160.648       95.773    20432.257    25807.867     9172.432        4.329        2.771      149.719      104.824        0.490      340.284       14.195      866.084
10/15/2013  14:23:00      130.607      -31.540       74.902      126.493      156.990       92.978    16000.373    24645.708     8644.949        3.647        2.465      134.362      113.837        0.718      339.945       13.625      866.130
10/15/2013  14:24:00       72.780      119.704      123.008       85.657      102.973       63.340     7337.115    10603.520     4011.962        2.835        1.098      140.092       60.205        0.185      339.890       13.530      866.115
10/15/2013  14:25:00       61.420      -17.605       63.956       78.780      119.743       69.073     6206.247    14338.435     4771.105        1.674        1.266       63.893       80.093        1.571      340.144       13.961      866.105
10/15/2013  14:26:00      162.739      -95.883       38.989      105.951      140.064       77.610    11225.647    19617.861     6023.249        3.702        1.843      188.885       94.407        0.250      339.822       13.417      866.089
10/15/2013  14:27:00       57.658       33.797       82.053       74.690       92.625       61.876     5578.598     8579.330     3828.596        1.459        0.899       66.833       66.773        0.998      340.002       13.722      866.096
10/15/2013  14:28:00       34.344     -118.983       10.893       50.606       89.878       39.665     2560.917     8078.101     1573.326        1.383        0.611      123.840       45.478        0.135      340.087       13.864      866.082
10/15/2013  14:29:00       45.291       63.081       85.283       65.300       81.416       66.456     4264.078     6628.558     4416.342        1.430        0.765       77.656       57.831        0.555      340.166       13.998      866.095
10/15/2013  14:30:00       83.279       47.138       97.342      123.434      148.646       93.493    15235.952    22095.769     8740.863        3.234        2.304       95.694       85.263        0.794      340.056       13.810      866.090
10/15/2013  14:31:00      206.121      117.748       53.925      107.787       88.629       89.980    11617.966     7855.146     8096.322        4.341        1.378      237.382       59.485        0.063      339.673       13.165      866.087
10/15/2013  14:32:00       28.718        3.526       52.969       80.582       97.886       55.468     6493.451     9581.611     3076.674        1.139        0.958       28.933       53.429        3.410      340.309       14.241      866.088
10/15/2013  14:33:00       44.239       -2.495       74.573       45.770      108.401       48.336     2094.891    11750.751     2336.360        1.185        0.809       44.309       60.579        1.869      340.162       13.991      866.081
10/15/2013  14:34:00      103.213      -21.210       31.951       77.621       86.083       34.860     6025.078     7410.272     1215.189        1.338        0.733      105.369       33.449        0.101      339.898       13.546      866.071
10/15/2013  14:35:00      145.134     -117.740       -3.201      119.862      154.536       48.243    14366.976    23881.234     2327.397        3.775        2.029      186.887       61.181        0.107      339.821       13.415      866.039
10/15/2013  14:36:00       93.318      -87.415       38.510      113.674      144.132       79.969    12921.689    20773.939     6395.022        2.895        2.005      127.866       91.590        0.513      340.395       14.384      866.012
10/15/2013  14:37:00      119.369     -170.171        6.543       84.892      101.435       69.155     7206.573    10289.013     4782.407        3.276        1.114      207.864       68.111        0.107      339.868       13.495      866.004
10/15/2013  14:38:00       63.058     -127.430       -4.382       49.613       66.550       31.414     2461.440     4428.934      986.833        1.405        0.394      142.179       35.881        0.064      339.801       13.384      866.000
10/15/2013  14:39:00       47.175       47.700       66.988       50.680       41.847       30.940     2568.437     1751.183      957.254        0.713        0.264       67.087       22.918        0.117      340.066       13.830      865.996
10/15/2013  14:40:00      127.094      110.965      129.587      133.102      138.063      109.913    17716.137    19061.347    12080.966        4.705        2.443      168.719       91.486        0.294      340.258       14.154      865.991
10/15/2013  14:41:00      162.108      102.730       99.922      127.600      110.905      103.041    16281.810    12299.851    10617.485        4.300        1.960      191.918       81.435        0.180      339.933       13.603      865.989
10/15/2013  14:42:00       52.542       68.703       34.147       70.953       79.023       60.395     5034.265     6244.611     3647.546        1.178        0.746       86.491       57.854        0.447      339.988       13.696      865.986
10/15/2013  14:43:00       91.620     -192.837      -28.443       83.995       91.029       45.014     7055.205     8286.223     2026.301        3.188        0.868      213.496       47.574        0.050      340.114       13.909      865.957
10/15/2013  14:44:00      133.483       68.109       82.502      107.910      126.489       80.896    11644.511    15999.533     6544.086        3.172        1.709      149.855       73.132        0.238      339.812       13.400      865.952
10/15/2013  14:45:00       36.693        9.314       54.458       50.612       62.760       34.316     2561.584     3938.761     1177.581        0.604        0.384       37.857       32.302        0.728      340.081       13.856      865.972
10/15/2013  14:46:00       45.824      -68.724       21.652       44.732       99.439       43.715     2000.912     9888.206     1910.967        1.054        0.690       82.600       48.375        0.343      340.292       14.212      865.985
10/15/2013  14:47:00       42.584       40.105       97.732       53.277       71.190       49.079     2838.487     5068.032     2408.719        1.164        0.516       58.496       44.395        0.576      340.598       14.728      865.975
10/15/2013  14:48:00      145.292       84.727      131.212      117.537      117.752       73.330    13814.894    13865.577     5377.350        3.927        1.653      168.192       73.747        0.192      340.201       14.055      865.968
10/15/2013  14:49:00      162.788      112.884       52.047      128.608       82.488       79.228    16540.064     6804.205     6277.011        3.578        1.481      198.098       70.945        0.128      340.122       13.923      865.970
10/15/2013  14:50:00       32.896        5.116       73.755       77.403      116.419       71.773     5991.267    13553.416     5151.368        1.562        1.235       33.292       71.690        4.637      340.339       14.291      865.987
10/15/2013  14:51:00       40.008       -3.205       14.766       65.269       37.755       40.379     4260.103     1425.420     1630.450        0.457        0.366       40.136       33.117        0.681      339.787       13.360      865.974
10/15/2013  14:52:00      -36.267       35.307       -9.144       39.798       30.320       20.288     1583.890      919.323      411.622        0.278        0.146       50.615       16.500        0.106      339.786       13.358      865.944
10/15/2013  14:53:00       34.978       59.599       50.367       33.635       33.698       41.898     1131.309     1135.526     1755.483        0.567        0.201       69.105       29.183        0.178      340.058       13.818      865.947
10/15/2013  14:54:00      137.266       35.938      109.232      118.676      117.517       75.697    14083.941    13810.190     5729.972        3.284        1.681      141.893       79.432        0.313      340.137       13.947      865.953
10/15/2013  14:55:00       79.518     -135.254       19.194       73.264      115.842       47.918     5367.613    13419.277     2296.165        2.303        1.054      156.897       61.244        0.152      339.993       13.705      865.923
10/15/2013  14:56:00       88.139      -69.504       44.253       91.529      125.995       57.578     8377.628    15874.828     3315.244        2.106        1.378      112.246       60.200        0.288      340.070       13.837      865.903
10/15/2013  14:57:00       31.667       12.649       66.012       64.208       92.993       54.577     4122.611     8647.631     2978.625        1.063        0.787       34.100       60.913        3.191      340.461       14.496      865.904
10/15/2013  14:58:00       76.060      103.180      140.452      109.489      123.610       79.670    11987.864    15279.387     6347.278        3.488        1.681      128.185       75.915        0.351      340.381       14.360      865.885
10/15/2013  14:59:00      127.196      -48.536       38.890       85.134      148.409       66.759     7247.855    22025.274     4456.805        2.688        1.686      136.142       80.429        0.349      340.066       13.828      865.882
10/15/2013  15:00:00      131.773       10.118       77.478       98.751      118.036       76.403     9751.701    13932.585     5837.493        2.649        1.476      132.161       73.633        0.310      339.971       13.668      865.894
10/15/2013  15:01:00      171.616       81.130      137.539      110.872      142.505       90.831    12292.701    20307.538     8250.241        4.789        2.043      189.827       89.920        0.224      340.045       13.792      865.893
10/15/2013  15:02:00      135.209      195.160      164.413      130.059       94.136       88.756    16915.239     8861.644     7877.577        5.852        1.683      237.421       74.237        0.098      340.192       14.038      865.879
10/15/2013  15:03:00      321.396      170.761       95.284      163.351      115.805       96.123    26683.443    13410.733     9239.627        9.542        2.467      363.944       87.534        0.058      339.933       13.602      865.894
10/15/2013  15:04:00      142.679      101.587      144.174      133.584      115.117       95.980    17844.579    13251.980     9212.219        4.588        2.015      175.149       81.198        0.215      339.968       13.662      865.916
10/15/2013  15:05:00      239.037      171.286      110.645      145.692      123.374      100.839    21226.125    15221.223    10168.548        7.266        2.331      294.070       87.771        0.089      340.011       13.734      865.910
10/15/2013  15:06:00      232.196      100.606       36.831      110.879       86.963       74.997    12294.120     7562.531     5624.502        4.543        1.274      253.055       57.789        0.052      339.958       13.644      865.912
10/15/2013  15:07:00      203.182      121.414       34.352       85.595      105.323       67.606     7326.550    11092.894     4570.528        4.009        1.149      236.694       44.318        0.035      340.074       13.840      865.910
10/15/2013  15:08:00      214.655      124.151        7.088       87.419       90.914       63.392     7642.100     8265.421     4018.584        4.073        0.996      247.972       47.105        0.036      340.016       13.742      865.884
10/15/2013  15:09:00      176.903      143.138        8.528      115.171       85.749       40.476    13264.293     7352.912     1638.336        3.705        1.113      227.560       29.205        0.016      339.600       13.042      865.880
10/15/2013  15:10:00       50.683      137.476      -35.852       44.701       69.610       44.849     1998.207     4845.595     2011.427        1.580        0.443      146.521       32.865        0.050      339.692       13.198      865.856
10/15/2013  15:11:00       47.227       68.125        5.688       48.973       55.559       38.884     2398.342     3086.785     1511.953        0.695        0.350       82.894       26.673        0.104      339.867       13.495      865.850
10/15/2013  15:12:00      101.242       59.426       36.931       76.783       59.629       44.560     5895.568     3555.656     1985.605        1.329        0.572      117.394       28.143        0.057      340.062       13.822      865.863
10/15/2013  15:13:00       35.039        2.923       29.951       44.915       49.672       33.491     2017.374     2467.305     1121.675        0.387        0.280       35.161       15.473        0.194      340.430       14.445      865.849
10/15/2013  15:14:00      162.157       13.849       76.812      143.317      126.655       76.700    20539.792    16041.471     5882.859        3.742        2.123      162.747       92.209        0.321      340.357       14.320      865.870
10/15/2013  15:15:00      148.724       25.262       94.793      123.875       96.202       87.430    15344.929     9254.882     7644.045        3.199        1.612      150.855       63.438        0.177      340.316       14.251      865.882
10/15/2013  15:16:00      147.487      107.866      119.180      111.283      114.487       78.775    12383.902    13107.285     6205.447        3.964        1.585      182.723       83.502        0.209      340.013       13.739      865.890
10/15/2013  15:17:00       78.501      -70.905       37.056       69.843       63.009       52.219     4878.092     3970.184     2726.848        1.207        0.579      105.783       46.299        0.192      340.180       14.022      865.886
10/15/2013  15:18:00       88.309       41.951       44.854       80.544       71.692       42.016     6487.355     5139.741     1765.349        1.248        0.670       97.767       33.533        0.118      340.323       14.263      865.878
10/15/2013  15:19:00      253.190      155.380       26.180       79.252       56.390       59.731     6280.880     3179.815     3567.852        5.098        0.651      297.066       37.432        0.016      339.772       13.332      865.873
10/15/2013  15:20:00      230.389      151.803       24.396       87.115       64.999       74.700     7589.055     4224.908     5580.119        4.705        0.870      275.904       42.484        0.024      339.802       13.380      865.866
10/15/2013  15:21:00      231.556      151.317       44.269      137.821      115.929       75.415    18994.526    13439.443     5687.470        5.829        1.906      276.614       56.491        0.042      340.011       13.733      865.826
10/15/2013  15:22:00       63.473       47.422      108.887      104.687      107.866       70.839    10959.366    11635.163     5018.185        2.287        1.381       79.232       74.828        0.892      340.613       14.753      865.844
10/15/2013  15:23:00      127.594       15.676       85.667      115.072      116.265       77.345    13241.646    13517.459     5982.302        2.830        1.637      128.553       64.143        0.249      340.314       14.247      865.845
10/15/2013  15:24:00      106.134       69.610       20.458       33.585       24.187       31.872     1127.919      585.018     1015.821        0.963        0.136      126.925       15.877        0.016      339.764       13.320      865.837
10/15/2013  15:25:00       65.030       46.528       10.911       49.113       37.792       37.958     2412.132     1428.257     1440.794        0.590        0.264       79.961       33.452        0.175      339.887       13.527      865.830
10/15/2013  15:26:00       25.102       22.931       55.097       52.110       60.404       35.584     2715.445     3648.665     1266.218        0.591        0.382       33.999       42.668        1.575      340.409       14.410      865.842
10/15/2013  15:27:00       81.891      -64.787       38.459       71.730      108.704       56.385     5145.185    11816.487     3179.215        1.626        1.007      104.420       66.026        0.400      340.164       13.995      865.847
10/15/2013  15:28:00      120.735     -119.444        2.543       80.515       93.950       49.689     6482.719     8826.679     2468.976        2.331        0.889      169.834       56.742        0.112      340.133       13.940      865.853
10/15/2013  15:29:00       72.448     -105.839        8.715       56.542       85.489       47.823     3197.037     7308.342     2287.085        1.466        0.640      128.260       52.132        0.165      340.243       14.127      865.863
10/15/2013  15:30:00      175.127      -69.882       37.504       95.580      157.549       81.595     9135.620    24821.715     6657.759        3.878        2.031      188.555       94.689        0.252      340.108       13.898      865.861
10/15/2013  15:31:00      122.823       -9.645       85.947       75.917      134.203       65.993     5763.379    18010.550     4355.029        2.534        1.406      123.201       78.035        0.401      340.257       14.150      865.868
10/15/2013  15:32:00       96.153        2.505       70.638       98.589      117.374       69.661     9719.881    13776.709     4852.594        2.129        1.417       96.186       75.109        0.610      340.310       14.241      865.871
10/15/2013  15:33:00       39.743       71.226       80.591       62.733       62.007       40.604     3935.413     3844.851     1648.651        1.129        0.471       81.564       24.048        0.087      340.597       14.725      865.877
10/15/2013  15:34:00      114.261      145.202      135.000      102.354       77.724       70.428    10476.314     6041.098     4960.153        3.692        1.074      184.768       52.614        0.081      340.413       14.414      865.871
10/15/2013  15:35:00      173.380      121.681      119.959      121.620       91.420       64.020    14791.338     8357.685     4098.579        4.325        1.362      211.818       45.091        0.045      340.323       14.260      865.874
10/15/2013  15:36:00      198.132      111.151       85.117      119.877      103.128       98.475    14370.387    10635.402     9697.391        4.677        1.735      227.180       80.135        0.124      340.298       14.219      865.855
10/15/2013  15:37:00      150.370       60.031      121.479      136.280      107.415       87.901    18572.332    11537.940     7726.615        3.940        1.892      161.910       77.924        0.232      340.282       14.192      865.865
10/15/2013  15:38:00       87.182      -39.336       63.737      107.433      148.896      100.962    11541.811    22169.911    10193.276        2.855        2.195       95.645      113.703        1.413      340.502       14.564      865.858
10/15/2013  15:39:00      136.849       70.568      145.914      163.228      124.145       93.436    26643.363    15411.990     8730.267        4.788        2.539      153.972      100.117        0.423      340.250       14.138      865.867
10/15/2013  15:40:00      202.327      -10.512       62.230      132.697      148.349       82.251    17608.413    22007.410     6765.182        4.564        2.319      202.600       99.126        0.239      340.042       13.786      865.863
10/15/2013  15:41:00       58.199      109.957      149.182       96.465      117.893       86.124     9305.416    13898.790     7417.269        3.417        1.531      124.410       87.377        0.493      340.364       14.330      865.863
10/15/2013  15:42:00       71.814       79.396      118.052       76.288       86.604       60.751     5819.895     7500.235     3690.645        2.120        0.851      107.056       44.354        0.172      340.470       14.510      865.889
10/15/2013  15:43:00      110.896      -45.965       66.452      117.316      125.846       80.316    13762.957    15837.237     6450.680        2.743        1.803      120.045       90.513        0.569      340.298       14.219      865.916
10/15/2013  15:44:00      113.820      -17.888       51.669       84.746       81.976       54.092     7181.813     6720.038     2925.932        1.638        0.841      115.217       33.727        0.086      340.034       13.776      865.927
10/15/2013  15:45:00       55.622        1.166       22.874       58.589       50.369       34.807     3432.626     2536.989     1211.507        0.540        0.359       55.634       23.657        0.181      340.167       14.001      865.908
10/15/2013  15:46:00       46.344      -69.997       15.717       40.140       54.248       26.465     1611.234     2942.816      700.408        0.627        0.263       83.948       21.143        0.063      340.464       14.502      865.895
10/15/2013  15:47:00       73.921      -26.911       61.894       63.986      124.266       70.988     4094.207    15441.975     5039.233        1.729        1.229       78.667       74.065        0.886      340.173       14.011      865.874
10/15/2013  15:48:00      127.815      108.170       84.646       68.276       70.711       74.874     4661.567     5000.091     5606.147        2.523        0.763      167.444       59.208        0.125      340.113       13.907      865.875
10/15/2013  15:49:00      141.303       64.105       35.130       82.661       56.745       42.992     6832.842     3219.974     1848.321        1.860        0.595      155.164       33.916        0.048      339.999       13.715      865.865
10/15/2013  15:50:00      150.430       31.868       58.224       98.352       84.723       64.783     9673.080     7177.977     4196.831        2.404        1.052      153.769       47.754        0.096      340.137       13.949      865.852
10/15/2013  15:51:00      160.240       25.926      101.757      107.339      130.324       94.036    11521.756    16984.444     8842.681        3.702        1.867      162.324      106.243        0.428      340.018       13.745      865.849
10/15/2013  15:52:00       44.815       15.094       36.066       67.983       70.441       49.898     4621.647     4961.980     2489.804        0.780        0.604       47.289       44.823        0.898      340.243       14.129      865.831
10/15/2013  15:53:00      108.368       81.172      117.674      104.650       81.845       57.289    10951.672     6698.587     3282.041        2.655        1.047      135.397       53.494        0.156      340.137       13.948      865.820
10/15/2013  15:54:00       52.393      -98.893       42.144       81.547      165.869       97.719     6649.989    27512.613     9548.950        2.900        2.186      111.914      115.706        1.069      340.415       14.418      865.797
10/15/2013  15:55:00      132.967     -107.605       31.529       96.643      181.809       90.682     9339.784    33054.670     8223.185        4.043        2.531      171.053      108.613        0.403      340.205       14.062      865.785
10/15/2013  15:56:00       32.869       16.550       66.371       69.606       90.087       79.803     4845.002     8115.650     6368.478        1.254        0.966       36.801       60.811        2.731      340.369       14.342      865.786
10/15/2013  15:57:00      176.871       -7.974      122.901      141.644      164.608      116.151    20062.959    27095.793    13491.133        5.354        3.032      177.051       96.492        0.297      340.231       14.105      865.751
10/15/2013  15:58:00      100.995       50.682      108.569       96.393       88.062       69.639     9291.604     7754.987     4849.647        2.322        1.095      112.999       64.768        0.329      340.364       14.332      865.789
10/15/2013  15:59:00      156.569       73.968       56.222      108.790       89.244       83.664    11835.320     7964.409     6999.625        2.997        1.340      173.162       73.964        0.182      340.353       14.313      865.802
10/15/2013  16:00:00      164.935      127.623       96.017      136.385       96.087       85.228    18600.947     9232.807     7263.856        4.390        1.755      208.545       78.541        0.142      340.342       14.294      865.777
10/15/2013  16:01:00      113.632       74.207      125.216      138.073      126.743       93.647    19064.027    16063.727     8769.735        3.899        2.195      135.717       78.296        0.333      340.356       14.319      865.764
10/15/2013  16:02:00      158.530      148.372      124.384      109.346       86.866       88.667    11956.628     7545.738     7861.907        4.499        1.368      217.132       83.218        0.147      339.991       13.699      865.787
10/15/2013  16:03:00       56.065       39.964       67.823       79.099       70.860       46.933     6256.719     5021.083     2202.743        1.141        0.674       68.851       43.258        0.395      340.126       13.930      865.780
10/15/2013  16:04:00       57.728       -2.977       27.533       38.972       41.317       42.219     1518.831     1707.082     1782.454        0.455        0.250       57.805       32.628        0.319      340.033       13.775      865.766
10/15/2013  16:05:00       73.277       17.394       48.548       40.725       38.409       44.010     1658.497     1475.249     1936.910        0.655        0.254       75.313       34.693        0.212      340.107       13.899      865.755
10/15/2013  16:06:00       78.644       93.195      104.591       83.499       65.978       52.363     6972.048     4353.050     2741.901        1.994        0.703      121.944       48.970        0.161      340.295       14.215      865.754
10/15/2013  16:07:00      122.030       42.846       74.127       90.970       62.843       57.757     8275.475     3949.280     3335.916        1.889        0.778      129.333       59.470        0.211      340.389       14.375      865.759
10/15/2013  16:08:00       83.573       23.604       71.376       89.059      111.863       42.584     7931.583    12513.439     1813.407        1.744        1.113       86.842       26.959        0.096      340.431       14.445      865.743
10/15/2013  16:09:00      148.677       77.373       79.945      143.479      101.931       64.677    20586.341    10389.920     4183.114        3.481        1.758      167.606       57.739        0.119      340.422       14.429      865.715
10/15/2013  16:10:00      170.838     -210.272        0.573      135.152      129.570       67.792    18266.169    16788.351     4595.739        5.652        1.983      270.924       72.438        0.071      340.243       14.127      865.732
10/15/2013  16:11:00      161.072     -216.187        1.325      104.245      145.183       86.091    10866.984    21077.959     7411.743        5.601        1.968      269.594       95.498        0.125      340.128       13.931      865.719
10/15/2013  16:12:00       45.999       30.103       91.428       71.758      115.458       77.908     5149.233    13330.551     6069.733        1.796        1.227       54.973       85.290        2.407      340.276       14.183      865.727
10/15/2013  16:13:00      177.872      -97.753       24.059       98.007       95.913       64.989     9605.298     9199.250     4223.540        3.240        1.151      202.963       58.048        0.082      340.428       14.439      865.701
10/15/2013  16:14:00       77.327       38.531       65.264       90.838      117.586       70.917     8251.476    13826.512     5029.180        1.941        1.355       86.395       76.252        0.779      340.457       14.488      865.698
10/15/2013  16:15:00      188.912      108.077      106.679      119.799      117.056       77.093    14351.896    13702.214     5943.255        4.637        1.700      217.642       56.112        0.066      340.339       14.288      865.703
10/15/2013  16:16:00      199.791       80.330      102.506      144.792       99.095       90.002    20964.593     9819.765     8100.340        4.787        1.944      215.336       95.002        0.195      340.195       14.046      865.686
10/15/2013  16:17:00       50.127       33.394       60.205       63.893       81.454       60.042     4082.255     6634.701     3605.078        1.078        0.716       60.232       51.660        0.736      340.252       14.144      865.685
10/15/2013  16:18:00       84.263       46.282       34.828       79.763       81.871       72.581     6362.103     6702.809     5267.979        1.439        0.917       96.136       51.779        0.290      340.273       14.180      865.667
10/15/2013  16:19:00      230.869      150.202      100.586      147.225      174.924       99.934    21675.172    30598.328     9986.830        7.411        3.113      275.429       96.768        0.123      340.182       14.022      865.634
10/15/2013  16:20:00      179.945       45.200      105.578      148.321      134.275       81.525    21999.110    18029.707     6646.377        4.611        2.334      185.535       79.178        0.182      340.177       14.015      865.645
10/15/2013  16:21:00      175.930     -108.063       58.303      131.586      227.745      113.087    17314.938    51867.580    12788.730        6.398        4.099      206.468      153.652        0.554      340.201       14.056      865.623
10/15/2013  16:22:00       55.780       -9.210       87.487       82.836      119.271       66.182     6861.803    14225.552     4380.086        1.815        1.273       56.535       66.140        1.369      340.429       14.442      865.636
10/15/2013  16:23:00       88.740       31.635       61.445      135.083       92.101       49.209    18247.485     8482.677     2421.536        2.090        1.458       94.210       11.762        0.016      340.512       14.582      865.665
10/15/2013  16:24:00      164.575       63.790      118.404      133.710      142.224       82.472    17878.444    20227.780     6801.600        4.503        2.245      176.506       85.920        0.237      340.260       14.155      865.647
10/15/2013  16:25:00      120.015      116.900      105.586      114.983      104.594       93.620    13221.101    10939.856     8764.742        3.606        1.646      167.539       71.417        0.182      340.252       14.140      865.628
10/15/2013  16:26:00       79.887       50.843      102.114      108.524       85.632       74.768    11777.385     7332.861     5590.230        2.204        1.235       94.694       63.452        0.449      340.378       14.355      865.616
10/15/2013  16:27:00       94.990       38.570      101.447       81.313       84.819       64.698     6611.755     7194.218     4185.849        1.939        0.900      102.522       64.801        0.400      340.231       14.108      865.613
10/15/2013  16:28:00      143.999       50.131       77.944      124.722      110.691       81.175    15555.512    12252.443     6589.370        3.185        1.720      152.476       57.623        0.143      340.164       13.993      865.587
10/15/2013  16:29:00      227.544      133.890      110.560      130.732      116.463       85.967    17090.732    13563.708     7390.361        5.998        1.902      264.013       60.886        0.053      340.047       13.795      865.571
10/15/2013  16:30:00      220.700      103.669       84.774      117.822      103.288       97.556    13882.011    10668.477     9517.161        5.035        1.703      243.836       67.381        0.076      340.137       13.946      865.561
10/15/2013  16:31:00      148.526       98.124       88.705      117.543       73.369       75.586    13816.412     5382.948     5713.274        3.223        1.246      178.012       57.953        0.106      340.235       14.113      865.574
10/15/2013  16:32:00      133.710       81.127       90.533       81.501       69.641       63.191     6642.357     4849.893     3993.117        2.407        0.774      156.397       53.066        0.115      340.226       14.098      865.573
10/15/2013  16:33:00      135.365      110.467      107.756       81.478       84.073       65.454     6638.690     7068.332     4284.205        3.006        0.900      174.718       37.395        0.046      340.182       14.024      865.568
10/15/2013  16:34:00      167.852       99.406       96.126      112.491       93.634       90.839    12654.207     8767.313     8251.788        3.848        1.484      195.079       73.557        0.142      340.129       13.933      865.552
10/15/2013  16:35:00      195.110      133.630      113.171      115.276       81.127       89.383    13288.484     6581.548     7989.335        4.829        1.393      236.484       43.149        0.033      340.088       13.864      865.559
10/15/2013  16:36:00       82.178       73.206       87.330      115.032       96.856       62.429    13232.325     9381.108     3897.433        2.312        1.326      110.056       47.697        0.188      340.469       14.508      865.559
10/15/2013  16:37:00      106.428      -75.478       34.813       72.750       87.529       47.029     5292.555     7661.371     2211.758        1.670        0.758      130.476       48.885        0.140      340.277       14.184      865.568
10/15/2013  16:38:00       92.891      -47.759       23.510       74.581      105.136       62.306     5562.292    11053.567     3882.076        1.598        1.025      104.450       64.302        0.379      340.373       14.349      865.545
10/15/2013  16:39:00      136.896     -142.791       27.466      105.421      134.133       85.025    11113.678    17991.742     7229.249        3.810        1.817      197.813       92.691        0.220      340.157       13.982      865.526
10/15/2013  16:40:00       46.181       90.338      103.879       48.957       73.694       58.071     2396.772     5430.820     3372.216        1.614        0.560      101.458       55.065        0.295      340.205       14.066      865.515
10/15/2013  16:41:00      107.803       44.422       17.575       88.916      111.622       51.914     7906.024    12459.383     2695.112        1.848        1.153      116.597       22.864        0.038      340.258       14.152      865.501
10/15/2013  16:42:00      101.988       73.218       24.572       99.112       68.999       49.247     9823.247     4760.860     2425.269        1.668        0.850      125.548       27.637        0.048      340.263       14.161      865.501
10/15/2013  16:43:00      158.638      135.302       87.450      113.712       77.430       80.444    12930.337     5995.344     6471.278        3.825        1.270      208.501       70.411        0.114      340.177       14.016      865.495
10/15/2013  16:44:00       99.690       74.129       69.577       86.065       65.378       47.702     7407.168     4274.325     2275.483        1.711        0.698      124.231       40.181        0.105      340.260       14.157      865.501
10/15/2013  16:45:00      118.698       45.087       46.925       82.933       99.570       74.898     6877.936     9914.171     5609.651        2.036        1.120      126.973       70.180        0.305      340.390       14.375      865.504
10/15/2013  16:46:00      164.842       55.546       18.196       90.501       69.400       55.518     8190.341     4816.303     3082.241        2.334        0.804      173.949       44.878        0.067      340.282       14.193      865.493
10/15/2013  16:47:00      135.863      109.819      108.389      116.488      104.567       80.556    13569.408    10934.219     6489.234        3.662        1.550      174.697       73.254        0.176      340.331       14.276      865.478
10/15/2013  16:48:00       72.427       77.930      125.908       73.940      107.843       73.360     5467.083    11630.167     5381.690        2.482        1.124      106.389       75.382        0.502      340.472       14.514      865.482
10/15/2013  16:49:00      112.543      108.856       94.168      132.290       85.950       55.346    17500.624     7387.359     3063.184        3.066        1.398      156.575       34.745        0.049      340.375       14.351      865.501
10/15/2013  16:50:00      100.306       63.415       71.446       98.293       80.606       52.921     9661.452     6497.360     2800.656        1.907        0.948      118.671       50.228        0.179      340.326       14.269      865.513
10/15/2013  16:51:00       88.654      -50.592       40.809       74.041       86.054       51.906     5482.060     7405.373     2694.237        1.383        0.779      102.074       41.262        0.163      340.442       14.464      865.517
10/15/2013  16:52:00      110.621        8.554       54.563       93.806       88.130       65.841     8799.614     7766.955     4335.040        1.809        1.045      110.951       55.609        0.251      340.414       14.418      865.516
10/15/2013  16:53:00      169.400       52.408       81.491      152.239       92.501       75.695    23176.833     8556.483     5729.697        3.777        1.873      177.322       85.638        0.233      340.431       14.445      865.525
10/15/2013  16:54:00      206.325       54.311       65.747      159.803       99.890       79.825    25537.059     9978.110     6372.027        4.586        2.094      213.353       83.304        0.152      340.315       14.247      865.519
10/15/2013  16:55:00       54.873      -28.772       38.662       88.728      104.400       50.244     7872.633    10899.336     2524.494        1.331        1.065       61.959       52.975        0.731      340.517       14.591      865.529
10/15/2013  16:56:00       10.813       40.274       62.458       72.165      110.034       92.971     5207.811    12107.487     8643.632        1.579        1.298       41.700       81.497        3.820      340.427       14.438      865.524
10/15/2013  16:57:00       77.210       30.799       71.475       81.176      117.630       90.413     6589.547    13836.887     8174.592        2.030        1.430       83.126       91.650        1.216      340.231       14.108      865.510
10/15/2013  16:58:00      123.091      131.932      103.442      136.447      114.880       81.260    18617.778    13197.403     6603.234        4.083        1.921      180.437       52.160        0.084      340.273       14.176      865.507
10/15/2013  16:59:00      165.921      126.785      142.090      102.860      124.626       92.357    10580.181    15531.534     8529.795        4.921        1.732      208.816       92.373        0.196      340.223       14.091      865.510
10/15/2013  17:00:00      135.227      109.410      141.781      137.817      114.013       91.089    18993.588    12998.953     8297.253        4.532        2.014      173.946       78.905        0.206      340.226       14.099      865.507
10/15/2013  17:01:00       68.940       66.768       45.521       85.343       63.319       65.467     7283.419     4009.283     4285.952        1.343        0.779       95.973       57.371        0.357      340.210       14.073      865.527
10/15/2013  17:02:00      105.843       84.698       59.724       84.145       56.504       48.849     7080.339     3192.673     2386.226        1.730        0.633      135.560       34.554        0.065      340.287       14.201      865.534
10/15/2013  17:03:00      213.297      165.842      123.088      106.089       96.529      101.036    11254.927     9317.776    10208.217        5.946        1.539      270.183       82.668        0.094      340.090       13.868      865.531
10/15/2013  17:04:00      122.094       96.866      124.959      107.104       70.722       66.548    11471.216     5001.623     4428.661        3.040        1.045      155.852       60.995        0.153      340.178       14.017      865.530
10/15/2013  17:05:00      140.690      112.108       83.153      102.044       71.964       70.805    10413.068     5178.757     5013.277        2.994        1.030      179.894       58.041        0.104      340.226       14.099      865.525
10/15/2013  17:06:00      166.399       93.064       87.494      110.814       95.845       91.769    12279.685     9186.249     8421.600        3.694        1.494      190.656       70.003        0.135      340.156       13.979      865.512
10/15/2013  17:07:00      192.077      111.524       62.396      102.438       69.743       71.823    10493.574     4864.074     5158.605        3.687        1.026      222.106       53.261        0.058      340.174       14.009      865.513
10/15/2013  17:08:00      173.639       44.689       83.971      109.794       75.700       63.967    12054.768     5730.563     4091.730        3.053        1.094      179.297       64.201        0.128      340.105       13.895      865.504
10/15/2013  17:09:00      164.591      117.199       70.618       81.846       78.806       72.228     6698.803     6210.402     5216.902        3.197        0.906      202.054       52.205        0.067      340.191       14.037      865.495
10/15/2013  17:10:00      138.498       89.072      107.404      129.782      101.039       91.800    16843.495    10208.820     8427.199        3.706        1.774      164.667       90.634        0.303      340.160       13.984      865.477
10/15/2013  17:11:00      274.050      139.822       53.159      100.807       78.369       65.811    10161.977     6141.751     4331.094        5.905        1.032      307.659       51.718        0.028      340.129       13.931      865.476
10/15/2013  17:12:00      142.345       92.353       88.710      108.700       91.787       66.107    11815.784     8424.872     4370.116        3.063        1.231      169.679       58.686        0.120      340.203       14.060      865.463
10/15/2013  17:13:00      193.935       87.618       95.034      109.790       72.043       74.858    12053.789     5190.151     5603.648        3.858        1.142      212.809       61.678        0.084      340.171       14.003      865.458
10/15/2013  17:14:00      130.744       93.655       52.291       83.992       63.230       63.704     7054.678     3998.024     4058.218        2.185        0.756      160.827       61.200        0.145      340.269       14.172      865.463
10/15/2013  17:15:00       96.154       51.651       44.110       66.339       68.324       58.700     4400.914     4668.147     3445.724        1.318        0.626      109.149       41.419        0.144      340.251       14.142      865.472
10/15/2013  17:16:00      107.269       57.343       76.552      106.346       81.103       68.631    11309.476     6577.727     4710.179        2.162        1.130      121.634       56.795        0.218      340.261       14.159      865.472
10/15/2013  17:17:00      164.205      155.614      153.373      134.711      116.552      112.851    18147.159    13584.361    12735.254        5.958        2.223      226.228       97.786        0.187      340.121       13.919      865.471
10/15/2013  17:18:00      151.805      141.427      161.116      139.817      125.280       91.201    19548.908    15695.148     8317.556        5.627        2.178      207.477       77.326        0.139      340.155       13.978      865.479
10/15/2013  17:19:00       76.500       98.197      109.367       99.036       96.067       63.641     9808.178     9228.941     4050.196        2.527        1.154      124.479       48.047        0.149      340.247       14.135      865.496
10/15/2013  17:20:00       76.248      103.830      117.458      115.824       84.020       60.888    13415.265     7059.415     3707.348        2.728        1.209      128.820       39.479        0.094      340.176       14.014      865.505
10/15/2013  17:21:00      119.259       40.250       84.600      116.274       99.349       65.875    13519.533     9870.129     4339.467        2.536        1.386      125.868       83.636        0.442      340.127       13.931      865.517
10/15/2013  17:22:00      126.909       14.572       39.973       58.069       74.278       46.665     3371.983     5517.273     2177.656        1.449        0.553      127.743       40.130        0.099      340.085       13.861      865.523
10/15/2013  17:23:00      140.365       30.387       34.910       75.363       60.383       51.226     5679.562     3646.054     2624.104        1.689        0.597      143.616       43.070        0.090      340.097       13.882      865.518
10/15/2013  17:24:00       67.883       27.110       44.433       67.656       47.832       39.705     4577.361     2287.870     1576.514        0.788        0.422       73.097       36.098        0.244      340.102       13.892      865.513
10/15/2013  17:25:00       67.118       19.369       46.852       63.660       42.906       42.407     4052.636     1840.895     1798.367        0.738        0.385       69.857       31.436        0.203      340.129       13.937      865.491
10/15/2013  17:26:00       29.975       30.222       24.525       49.035       42.117       30.859     2404.399     1773.876      952.257        0.377        0.257       42.566       18.533        0.190      340.109       13.903      865.479
10/15/2013  17:27:00       47.799       17.771       42.734       67.260       38.841       34.202     4523.897     1508.596     1169.791        0.581        0.360       50.996       27.443        0.290      340.174       14.012      865.476
10/15/2013  17:28:00      144.216       65.841      108.302      124.455       94.128       76.090    15488.930     8860.007     5789.623        3.349        1.507      158.535       69.135        0.190      340.093       13.873      865.471
10/15/2013  17:29:00      157.882       64.608      112.848      120.732      144.720       77.598    14576.198    20943.855     6021.502        4.168        2.077      170.590       88.337        0.268      340.149       13.967      865.469
10/15/2013  17:30:00      121.887       -3.552       59.175       93.634       90.128       54.962     8767.305     8123.144     3020.801        1.914        0.996      121.939       66.617        0.298      340.140       13.954      865.485
10/15/2013  17:31:00       52.147       80.226       88.562       62.345       62.835       50.173     3886.845     3948.204     2517.296        1.367        0.518       95.685       37.650        0.155      340.142       13.957      865.497
10/15/2013  17:32:00       43.897       25.098       39.229       60.822       48.549       35.266     3699.265     2356.966     1243.713        0.570        0.365       50.565       22.123        0.191      340.200       14.057      865.508
10/15/2013  17:33:00       53.590      -78.716        6.214       60.303       87.896       39.331     3636.436     7725.705     1546.958        1.101        0.645       95.227       41.529        0.190      340.198       14.052      865.505
10/15/2013  17:34:00       71.906      -60.355       13.292       52.551       62.672       33.541     2761.647     3927.738     1125.023        0.840        0.391       93.878       34.415        0.134      340.172       14.009      865.501
10/15/2013  17:35:00       19.795      -38.408       26.116       32.838       53.483       34.772     1078.342     2860.424     1209.086        0.385        0.257       43.209       20.453        0.224      340.202       14.060      865.503
10/15/2013  17:36:00       36.244       30.467       39.659       32.282       61.249       28.520     1042.153     3751.491      813.381        0.471        0.280       47.349       32.106        0.460      340.116       13.915      865.502
10/15/2013  17:37:00       63.705       63.938       76.415       49.889       45.698       38.731     2488.880     2088.319     1500.083        1.003        0.304       90.258       27.571        0.093      340.073       13.842      865.498
10/15/2013  17:38:00      136.982       28.156       74.955      118.796       99.391       64.591    14112.429     9878.585     4172.003        2.666        1.408      139.845       54.792        0.154      340.057       13.812      865.486
10/15/2013  17:39:00      117.971       89.306       70.578      103.336       82.540       57.210    10678.399     6812.853     3273.000        2.381        1.038      147.962       54.390        0.135      340.008       13.731      865.482
10/15/2013  17:40:00      149.453      105.215       46.222      102.165       78.431       70.323    10437.606     6151.390     4945.340        2.853        1.077      182.774       54.714        0.090      339.974       13.674      865.483
10/15/2013  17:41:00      153.776      107.604       80.686       98.012       81.899       70.095     9606.422     6707.454     4913.280        3.148        1.061      187.685       64.096        0.117      339.974       13.671      865.496
10/15/2013  17:42:00      170.390       36.813       42.450       95.861       85.795       64.833     9189.306     7360.814     4203.380        2.647        1.038      174.322       55.854        0.103      339.973       13.671      865.499
10/15/2013  17:43:00      145.933       97.951       38.229       99.746       81.639       51.846     9949.300     6664.992     2687.975        2.582        0.965      175.758       42.988        0.060      339.934       13.605      865.505
10/15/2013  17:44:00       88.698       62.780       27.909       60.275       54.331       45.770     3633.069     2951.834     2094.907        1.063        0.434      108.668       35.430        0.106      339.944       13.624      865.493
10/15/2013  17:45:00       55.301       32.486      -11.029       43.128       29.686       25.617     1860.054      881.240      656.249        0.382        0.170       64.137       20.589        0.103      339.952       13.639      865.481
10/15/2013  17:46:00      108.773       71.209        6.163       49.067       40.767       32.616     2407.524     1661.914     1063.810        1.104        0.257      130.008       24.174        0.035      339.929       13.599      865.489
10/15/2013  17:47:00       90.433       57.176       18.866       66.428       46.317       34.609     4412.659     2145.303     1197.750        0.978        0.388      106.992       22.894        0.046      339.908       13.564      865.490
10/15/2013  17:48:00      127.764       56.686       48.357       81.961       67.916       51.869     6717.650     4612.533     2690.343        1.795        0.701      139.774       41.696        0.089      339.892       13.535      865.484
10/15/2013  17:49:00      197.942       82.181       21.674       93.556       79.677       48.382     8752.724     6348.432     2340.811        3.192        0.872      214.324       34.683        0.026      339.893       13.535      865.483
10/15/2013  17:50:00      169.940       51.147       25.479       95.216       76.334       53.288     9066.047     5826.873     2839.599        2.494        0.887      177.470       49.914        0.079      339.831       13.431      865.476
10/15/2013  17:51:00      184.109       77.350       36.239      115.916       92.709       65.032    13436.444     8594.958     4229.133        3.372        1.313      199.697       62.198        0.097      339.835       13.438      865.475
10/15/2013  17:52:00      150.368       72.961       56.250       68.336       65.830       43.698     4669.862     4333.633     1909.520        2.100        0.546      167.135       33.954        0.041      339.805       13.388      865.490
10/15/2013  17:53:00      130.381       72.680       47.532       71.164       57.231       48.762     5064.327     3275.426     2377.752        1.763        0.536      149.270       43.578        0.085      339.827       13.425      865.502
10/15/2013  17:54:00      106.500       64.390       39.559       44.393       28.453       30.447     1970.782      809.591      927.045        1.038        0.185      124.452       20.873        0.028      339.823       13.421      865.519
10/15/2013  17:55:00      112.770       65.236       24.646       53.113       39.272       33.967     2820.952     1542.251     1153.737        1.155        0.276      130.279       23.028        0.031      339.752       13.302      865.526
10/15/2013  17:56:00      111.854       47.783       15.671       80.248       45.504       42.455     6439.741     2070.643     1802.448        1.267        0.516      121.633       29.975        0.061      339.747       13.291      865.532
10/15/2013  17:57:00      193.165      135.995       34.130      112.603       71.326       48.876    12679.487     5087.453     2388.851        3.856        1.008      236.236       39.835        0.028      339.745       13.286      865.547
10/15/2013  17:58:00      159.460      106.871       14.734       78.510       58.660       50.007     6163.816     3441.000     2500.658        2.458        0.605      191.961       33.592        0.031      339.711       13.229      865.560
10/15/2013  17:59:00      117.363       83.947        9.559       65.083       55.689       39.399     4235.833     3101.239     1552.303        1.490        0.444      144.296       22.131        0.024      339.712       13.232      865.564
10/15/2013  18:00:00      127.987       76.480       15.237       80.498       46.932       39.896     6479.893     2202.655     1591.721        1.637        0.514      149.097       22.199        0.022      339.718       13.242      865.568
10/15/2013  18:01:00      146.867       98.784       27.086       67.470       44.087       40.908     4552.150     1943.667     1673.488        2.011        0.408      176.998       20.636        0.014      339.691       13.196      865.566
10/15/2013  18:02:00       43.240       42.872       12.006       40.834       31.514       28.475     1667.398      993.130      810.829        0.366        0.174       60.891       12.405        0.042      339.595       13.037      865.564
10/15/2013  18:03:00      143.042      101.177       16.372       59.468       49.566       38.044     3536.467     2456.740     1447.353        1.920        0.372      175.208       31.835        0.033      339.683       13.182      865.563
10/15/2013  18:04:00       90.587       79.367        5.849       53.513       45.220       37.890     2863.612     2044.890     1435.689        1.044        0.317      120.438       32.868        0.074      339.645       13.120      865.565
10/15/2013  18:05:00       99.209       69.904       16.983       38.856       32.232       29.829     1509.796     1038.912      889.744        0.923        0.172      121.363       20.304        0.028      339.591       13.031      865.569
10/15/2013  18:06:00      157.649      102.663       16.201       45.654       39.673       41.360     2084.273     1573.939     1710.623        2.051        0.268      188.130       17.024        0.008      339.648       13.125      865.567
10/15/2013  18:07:00       99.465       60.136       15.843       63.709       49.370       34.003     4058.794     2437.377     1156.236        1.070        0.383      116.231       26.382        0.052      339.575       13.003      865.579
10/15/2013  18:08:00       66.572       58.251        5.075       39.311       46.669       38.027     1545.386     2178.026     1446.041        0.651        0.258       88.459       29.493        0.111      339.538       12.940      865.579
10/15/2013  18:09:00      142.346      102.134       20.864       66.756       44.364       39.969     4456.303     1968.174     1597.515        1.957        0.401      175.196       28.896        0.027      339.554       12.965      865.602
10/15/2013  18:10:00      132.743       70.092       21.406       48.464       46.444       39.563     2348.765     2157.086     1565.239        1.453        0.304      150.112       17.711        0.014      339.495       12.866      865.613
10/15/2013  18:11:00      137.757      114.117       23.383       92.060       63.601       41.759     8475.040     4045.088     1743.781        2.340        0.713      178.884       25.219        0.020      339.520       12.906      865.623
10/15/2013  18:12:00      131.204      102.072       15.721       54.367       49.728       39.788     2955.816     2472.833     1583.092        1.744        0.351      166.233       29.768        0.032      339.525       12.917      865.635
10/15/2013  18:13:00      123.248       51.931       20.798       59.124       44.768       37.620     3495.682     2004.159     1415.232        1.262        0.346      133.742       30.749        0.053      339.451       12.794      865.644
10/15/2013  18:14:00      140.119       65.599       23.395       60.360       47.713       29.861     3643.324     2276.518      891.704        1.565        0.341      154.715        8.747        0.003      339.462       12.812      865.649
10/15/2013  18:15:00      104.556       70.260       16.284       44.383       39.803       31.662     1969.857     1584.288     1002.494        1.034        0.228      125.970       19.437        0.024      339.462       12.812      865.644
10/15/2013  18:16:00      109.759       69.916       25.041       54.058       46.758       44.214     2922.268     2186.353     1954.838        1.231        0.353      130.136       32.060        0.061      339.501       12.877      865.649
10/15/2013  18:17:00      204.561      140.033       36.082       91.075       52.505       52.902     8294.684     2756.799     2798.573        3.830        0.693      247.900        9.534        0.001      339.485       12.847      865.656
10/15/2013  18:18:00      112.577       76.803       32.010       61.164       48.475       42.828     3741.063     2349.799     1834.273        1.376        0.396      136.280       36.136        0.070      339.411       12.726      865.657
10/15/2013  18:19:00      104.549       51.659        7.757       56.373       45.617       36.239     3177.910     2080.881     1313.263        1.011        0.329      116.615       30.333        0.068      339.337       12.601      865.677
10/15/2013  18:20:00      103.871       61.556       21.452       61.554       35.380       40.697     3788.928     1251.726     1656.213        1.087        0.335      120.741       17.005        0.020      339.287       12.517      865.688
10/15/2013  18:21:00      124.024       46.688       23.217       84.955       48.960       39.424     7217.404     2397.069     1554.246        1.463        0.558      132.521        8.513        0.004      339.342       12.609      865.688
10/15/2013  18:22:00      149.242       81.357       19.319       47.535       41.155       37.488     2259.616     1693.709     1405.314        1.731        0.268      169.977       18.253        0.012      339.339       12.603      865.705
10/15/2013  18:23:00      101.771       69.367       51.524       83.712       54.631       39.008     7007.660     2984.495     1521.609        1.467        0.576      123.163       33.866        0.076      339.301       12.537      865.705
10/15/2013  18:24:00      128.484       85.578       17.654       37.684       36.016       25.654     1420.112     1297.164      658.141        1.376        0.169      154.375        6.649        0.002      339.292       12.524      865.713
10/15/2013  18:25:00      148.648       54.435       31.582       69.039       58.049       39.367     4766.409     3369.697     1549.794        1.787        0.484      158.302       23.490        0.022      339.331       12.590      865.725
10/15/2013  18:26:00      159.469       85.758       23.780       60.567       51.143       41.148     3668.358     2615.643     1693.156        2.066        0.399      181.066       19.751        0.012      339.317       12.565      865.743
10/15/2013  18:27:00      119.727       84.367       17.369       51.379       37.448       46.179     2639.808     1402.338     2132.476        1.396        0.309      146.467       30.223        0.043      339.297       12.534      865.757
10/15/2013  18:28:00      115.247       58.581       11.170       69.109       44.503       31.854     4776.122     1980.548     1014.687        1.230        0.389      129.281       15.034        0.014      339.268       12.484      865.763
10/15/2013  18:29:00      126.086       79.205       16.945       43.829       27.009       30.355     1921.019      729.500      921.441        1.301        0.179      148.899       13.181        0.008      339.210       12.386      865.776
10/15/2013  18:30:00      126.024       84.209       29.495       41.645       41.039       34.025     1734.271     1684.238     1157.696        1.421        0.229      151.569       16.815        0.012      339.165       12.311      865.791
10/15/2013  18:31:00      127.969       66.762       21.617       41.840       28.077       30.283     1750.587      788.307      917.032        1.238        0.173      144.338       19.499        0.018      339.172       12.323      865.816
10/15/2013  18:32:00       86.776       55.771       32.498       36.670       28.972       24.619     1344.670      839.387      606.091        0.724        0.140      103.153       11.519        0.012      339.096       12.195      865.834
10/15/2013  18:33:00      129.054       71.985       24.378       37.552       28.135       27.791     1410.160      791.560      772.366        1.270        0.149      147.772        8.582        0.003      339.120       12.234      865.843
10/15/2013  18:34:00      129.532       98.881       36.119       69.210       51.833       31.915     4790.060     2686.640     1018.581        1.818        0.425      162.960       17.175        0.011      339.201       12.370      865.854
10/15/2013  18:35:00      159.071       88.911       26.088       50.509       36.990       44.876     2551.182     1368.295     2013.867        1.991        0.297      182.232       10.320        0.003      339.181       12.336      865.871
10/15/2013  18:36:00      121.212       50.726       21.256       52.667       42.100       33.442     2773.798     1772.390     1118.338        1.169        0.283      131.398       16.545        0.016      339.123       12.241      865.885
10/15/2013  18:37:00      144.973      100.063       36.026       61.334       46.599       39.451     3761.811     2171.434     1556.356        1.991        0.374      176.153       27.119        0.024      339.188       12.349      865.889
10/15/2013  18:38:00      139.489       74.275       27.068       41.219       38.220       29.656     1699.019     1460.752      879.453        1.487        0.202      158.032       25.179        0.025      339.185       12.344      865.891
10/15/2013  18:39:00      121.225       82.362       33.605       52.152       30.075       23.512     2719.869      904.533      552.793        1.339        0.209      146.557       22.111        0.023      339.104       12.210      865.893
10/15/2013  18:40:00      118.872       63.897       27.319       55.855       43.987       39.753     3119.833     1934.823     1580.339        1.280        0.332      134.956       20.162        0.022      339.097       12.196      865.897
10/15/2013  18:41:00      104.786       59.729       20.322       33.747       34.818       29.893     1138.892     1212.296      893.615        0.910        0.162      120.614       19.200        0.025      339.055       12.127      865.897
10/15/2013  18:42:00       89.649       71.115       13.491       52.344       36.489       29.219     2739.851     1331.415      853.757        0.910        0.246      114.431       18.784        0.027      339.037       12.096      865.902
10/15/2013  18:43:00      132.206       86.713       29.331       49.565       33.130       25.426     2456.692     1097.598      646.463        1.503        0.210      158.106       25.247        0.025      339.079       12.167      865.914
10/15/2013  18:44:00      152.567       94.608       18.469       49.421       45.879       40.133     2442.442     2104.864     1610.658        1.936        0.308      179.519       18.285        0.010      339.082       12.170      865.917
10/15/2013  18:45:00      106.385       55.198       28.808       46.449       36.419       37.824     2157.550     1326.348     1430.664        1.005        0.246      119.852       18.536        0.024      338.942       11.937      865.919
10/15/2013  18:46:00      131.899       56.687        6.780       40.639       42.159       23.153     1651.554     1777.365      536.068        1.231        0.198      143.564       17.832        0.015      338.878       11.828      865.919
10/15/2013  18:47:00      122.010       59.554       24.577       61.548       49.605       40.646     3788.170     2460.622     1652.086        1.347        0.395      135.769       29.153        0.046      338.920       11.899      865.922
10/15/2013  18:48:00      119.194       69.715       46.013       50.350       37.867       43.803     2535.152     1433.914     1918.743        1.354        0.294      138.085       27.170        0.039      338.832       11.750      865.918
10/15/2013  18:49:00      120.890       63.763       21.221       51.780       36.147       32.134     2681.187     1306.583     1032.606        1.207        0.251      136.675       17.173        0.016      338.875       11.824      865.926
10/15/2013  18:50:00      134.981       86.631       17.257       49.930       37.006       34.431     2493.028     1369.439     1185.503        1.553        0.252      160.390       16.592        0.011      338.878       11.828      865.933
10/15/2013  18:51:00      131.409       84.547       40.048       35.600       40.009       29.476     1267.376     1600.732      868.810        1.488        0.187      156.258       15.780        0.010      338.840       11.764      865.943
10/15/2013  18:52:00      175.878      111.873       32.131       65.432       43.082       35.455     4281.343     1856.054     1257.073        2.594        0.370      208.444        5.541        0.001      338.924       11.904      865.944
10/15/2013  18:53:00      146.095       90.145       15.716       56.412       53.678       40.176     3182.365     2881.371     1614.075        1.870        0.384      171.668       18.691        0.012      338.884       11.836      865.948
10/15/2013  18:54:00      167.151      113.475       32.452       81.678       60.947       52.695     6671.346     3714.592     2776.772        2.751        0.658      202.030       33.341        0.027      338.917       11.892      865.949
10/15/2013  18:55:00      126.566       73.369       26.812       36.327       33.635       30.204     1319.669     1131.313      912.263        1.274        0.168      146.295       18.219        0.016      338.832       11.752      865.952
10/15/2013  18:56:00      129.948       83.140       19.919       54.960       46.915       38.677     3020.584     2200.981     1495.884        1.546        0.336      154.268       15.961        0.011      338.877       11.825      865.960
10/15/2013  18:57:00      133.112       69.519       13.718       62.945       43.155       38.309     3962.109     1862.378     1467.574        1.501        0.365      150.173       34.058        0.051      338.854       11.789      865.959
10/15/2013  18:58:00      157.467      111.958       12.397       55.657       50.627       47.519     3097.714     2563.072     2258.078        2.270        0.396      193.211       25.815        0.018      338.844       11.770      865.966
10/15/2013  18:59:00      152.112       76.335       32.150       53.188       39.496       42.207     2829.016     1559.897     1781.441        1.808        0.309      170.191       28.224        0.028      338.810       11.713      865.981
10/15/2013  19:00:00      134.302       62.444       11.042       50.366       52.198       33.926     2536.755     2724.636     1151.001        1.423        0.321      148.109       28.790        0.038      338.773       11.651      865.992
10/15/2013  19:01:00      108.961       65.083       57.076       52.874       51.337       48.525     2795.662     2635.518     2354.651        1.357        0.389      126.919       34.611        0.074      338.767       11.642      866.010
10/15/2013  19:02:00      157.397       64.544       14.745       70.893       52.886       35.624     5025.810     2796.929     1269.051        1.912        0.455      170.117       23.913        0.020      338.835       11.755      866.032
10/15/2013  19:03:00      100.460       32.666       21.520       71.040       40.777       35.823     5046.635     1662.735     1283.281        0.981        0.400      105.638       36.966        0.122      338.801       11.699      866.056
10/15/2013  19:04:00      117.957       19.551       16.475       64.502       44.340       37.220     4160.517     1965.999     1385.335        1.104        0.376      119.566       34.280        0.082      338.875       11.823      866.062
10/15/2013  19:05:00       70.732       31.335       10.531       51.741       44.966       29.572     2677.086     2021.915      874.528        0.583        0.279       77.362       23.337        0.091      338.814       11.721      866.080
10/15/2013  19:06:00      108.553       44.557       20.591       34.166       25.621       26.694     1167.294      656.433      712.553        0.836        0.127      117.342       19.372        0.027      338.868       11.812      866.085
10/15/2013  19:07:00       93.354       14.043       13.912       48.452       34.006       29.752     2347.625     1156.420      885.171        0.675        0.219       94.404       24.383        0.067      338.843       11.771      866.096
10/15/2013  19:08:00       78.570       37.794       13.819       33.727       27.778       25.149     1137.485      771.611      632.455        0.517        0.127       87.187       20.358        0.055      338.791       11.683      866.110
10/15/2013  19:09:00       97.810       37.512        6.415       26.399       24.344       20.968      696.896      592.623      439.655        0.637        0.086      104.756       15.055        0.021      338.802       11.701      866.111
10/15/2013  19:10:00       87.871       41.561       10.061       41.083       29.811       25.858     1687.812      888.687      668.622        0.640        0.162       97.204       21.440        0.049      338.823       11.737      866.113
10/15/2013  19:11:00       63.005       26.948       19.695       30.151       16.903       15.594      909.072      285.719      243.167        0.326        0.072       68.526       16.284        0.056      338.731       11.582      866.105
10/15/2013  19:12:00       55.217       21.182        8.727       28.584       21.845       18.832      817.022      477.202      354.648        0.261        0.082       59.140       13.327        0.051      338.726       11.573      866.108
10/15/2013  19:13:00       66.666       23.401       15.881       19.960       17.533       15.071      398.404      307.412      227.140        0.309        0.047       70.654        9.807        0.019      338.739       11.596      866.107
10/15/2013  19:14:00       60.076       36.494       26.168       14.118       21.743       14.332      199.308      472.765      205.416        0.325        0.044       70.292       11.875        0.029      338.720       11.564      866.112
10/15/2013  19:15:00       46.814       13.152        9.968       15.517       17.190       11.749      240.781      295.498      138.040        0.157        0.034       48.627        9.981        0.042      338.638       11.425      866.109
10/15/2013  19:16:00       49.025       -4.770        3.040       17.852       14.692       13.475      318.700      215.844      181.587        0.158        0.036       49.257       10.424        0.045      338.764       11.636      866.112
10/15/2013  19:17:00       53.746       -8.020        4.510       18.737       17.006       13.346      351.092      289.213      178.108        0.190        0.041       54.341       11.260        0.043      338.782       11.666      866.111
10/15/2013  19:18:00       27.724       -2.447       10.507       23.665       15.587       15.191      560.015      242.968      230.759        0.096        0.052       27.832       12.862        0.214      338.709       11.545      866.111
10/15/2013  19:19:00       25.713       35.807       34.353       19.639       15.866       10.182      385.704      251.736      103.676        0.193        0.037       44.083        5.915        0.018      338.712       11.550      866.111
10/15/2013  19:20:00        1.038        4.712       13.455       15.140       16.909       12.567      229.212      285.924      157.934        0.044        0.034        4.825       10.841        5.048      338.750       11.613      866.116
10/15/2013  19:21:00       21.263      -48.013       -2.372       23.858       32.461       16.789      569.206     1053.729      281.881        0.233        0.095       52.511       17.719        0.114      338.931       11.917      866.125
10/15/2013  19:22:00        7.182       25.309       45.096       16.606       23.737       17.545      275.751      563.449      307.825        0.194        0.057       26.309       13.761        0.274      338.788       11.679      866.118
10/15/2013  19:23:00       -1.785       13.255       49.923       18.290       29.615       21.273      334.535      877.026      452.559        0.217        0.083       13.374       20.137        2.267      338.848       11.779      866.116
10/15/2013  19:24:00       35.851        7.430       18.801       28.673       26.118       20.906      822.124      682.147      437.073        0.182        0.097       36.613       21.770        0.354      338.882       11.836      866.107
10/15/2013  19:25:00       27.900        8.959       20.404       20.334       17.207       17.487      413.471      296.073      305.788        0.114        0.051       29.303       12.150        0.172      338.686       11.504      866.124
10/15/2013  19:26:00       44.741       32.146       29.508       29.402       30.125       21.007      864.500      907.509      441.301        0.306        0.111       55.091       19.228        0.122      338.684       11.501      866.125
10/15/2013  19:27:00       49.930       23.730       20.297       36.904       27.961       29.067     1361.929      781.821      844.917        0.323        0.149       55.283       23.874        0.186      338.661       11.465      866.115
10/15/2013  19:28:00       42.665       14.097       32.085       28.705       21.872       20.268      824.006      478.400      410.786        0.238        0.086       44.933        6.298        0.020      338.638       11.425      866.114
10/15/2013  19:29:00       49.693       25.097       27.535       32.658       20.113       24.724     1066.546      404.549      611.274        0.297        0.104       55.671       22.195        0.159      338.620       11.396      866.115
10/15/2013  19:30:00       21.405        1.276       12.990       22.779       28.224       19.155      518.901      796.570      366.922        0.116        0.084       21.443       14.649        0.467      338.600       11.360      866.110
10/15/2013  19:31:00       36.483       31.643       35.436       23.479       18.324       21.849      551.261      335.775      477.390        0.248        0.068       48.294       15.209        0.099      338.541       11.264      866.124
10/15/2013  19:32:00       39.201      -15.836       16.848       30.270       36.016       19.528      916.250     1297.138      381.325        0.233        0.130       42.279       17.744        0.176      338.650       11.446      866.131
10/15/2013  19:33:00       10.064       22.976       41.771       21.115       25.544       17.321      445.833      652.516      300.019        0.189        0.070       25.083       16.170        0.416      338.580       11.327      866.130
10/15/2013  19:34:00        6.448       12.019       28.940       15.354       16.363       10.375      235.734      267.733      107.635        0.082        0.031       13.639        5.555        0.166      338.483       11.164      866.145
10/15/2013  19:35:00        8.308       15.544       23.627       13.810       10.538       12.313      190.728      111.048      151.599        0.066        0.023       17.625        2.764        0.025      338.434       11.083      866.154
10/15/2013  19:36:00        5.035       15.817       39.348       15.334       16.616        8.541      235.133      276.104       72.942        0.120        0.029       16.600        7.293        0.193      338.441       11.095      866.172
10/15/2013  19:37:00       38.347      -48.882       11.537       40.887       39.430       26.500     1671.762     1554.706      702.238        0.396        0.196       62.129       30.307        0.238      338.722       11.566      866.189
10/15/2013  19:38:00       -9.509       -1.324       29.153       16.376       29.596       23.975      268.178      875.924      574.815        0.133        0.086        9.601       25.203        6.891      338.618       11.390      866.195
10/15/2013  19:39:00       20.797      -12.407        9.532       40.462       20.024       17.010     1637.144      400.957      289.340        0.150        0.116       24.216       12.251        0.256      338.648       11.443      866.205
10/15/2013  19:40:00       16.233      -24.617       18.508       22.973       32.748       23.674      527.761     1072.431      560.455        0.169        0.108       29.487       23.962        0.660      338.657       11.456      866.214
10/15/2013  19:41:00       29.393       -4.694       20.336       39.147       23.306       18.867     1532.455      543.189      355.968        0.187        0.122       29.765       17.697        0.354      338.585       11.337      866.220
10/15/2013  19:42:00       22.620        7.523       35.073       33.456       24.328       19.874     1119.302      591.842      394.976        0.195        0.105       23.838       15.838        0.441      338.547       11.273      866.207
10/15/2013  19:43:00       -0.312      -19.459        9.881       11.663       26.165       15.421      136.020      684.614      237.796        0.077        0.053       19.462       15.494        0.634      338.548       11.275      866.211
10/15/2013  19:44:00      -11.930       11.706        8.525       15.121       11.625       11.548      228.651      135.132      133.349        0.042        0.025       16.714        7.045        0.178      338.442       11.097      866.226
10/15/2013  19:45:00        0.977       12.960        8.665       19.796       27.603       28.406      391.893      761.909      806.912        0.110        0.098       12.997       19.817        2.325      338.518       11.223      866.227
10/15/2013  19:46:00        8.868        6.833       32.579       17.796       23.018       21.008      316.696      529.846      441.339        0.124        0.064       11.195       13.537        1.462      338.492       11.181      866.223
10/15/2013  19:47:00       -0.497        9.895       39.806       15.903       24.148       17.517      252.895      583.127      306.840        0.141        0.057        9.908       15.854        2.561      338.456       11.118      866.240
10/15/2013  19:48:00      -23.428      -17.009        7.999       20.447       15.922       17.407      418.079      253.525      302.987        0.094        0.049       28.952       15.357        0.281      338.357       10.953      866.239
10/15/2013  19:49:00      -70.157        2.683      -12.319       32.828       35.072       13.159     1077.677     1230.047      173.168        0.378        0.124       70.209       16.270        0.054      338.379       10.992      866.228
10/15/2013  19:50:00       62.491       -3.802       30.167       75.119       54.224       40.851     5642.934     2940.263     1668.820        0.754        0.513       62.607       29.717        0.225      338.505       11.201      866.233
10/15/2013  19:51:00       43.777      -20.999       23.218       52.643       66.357       43.160     2771.292     4403.227     1862.760        0.597        0.452       48.553       51.570        1.128      338.515       11.220      866.239
10/15/2013  19:52:00       33.368       25.669       29.167       31.084       33.378       21.979      966.204     1114.104      483.058        0.259        0.128       42.098       21.651        0.264      338.366       10.968      866.237
10/15/2013  19:53:00        3.870       16.671       41.054       22.021       31.803       26.782      484.933     1011.418      717.273        0.210        0.111       17.114       25.625        2.242      338.284       10.831      866.252
10/15/2013  19:54:00       42.038      -35.539       11.979       33.823       63.523       31.585     1144.006     4035.189      997.640        0.467        0.309       55.047       32.578        0.350      338.393       11.013      866.261
10/15/2013  19:55:00       52.174       23.654        8.069       13.294       14.272       14.759      176.735      203.683      217.823        0.197        0.030       57.286        7.750        0.018      338.249       10.771      866.271
10/15/2013  19:56:00       38.202       22.600       18.483       27.184       22.454       22.056      738.953      504.203      486.458        0.202        0.086       44.386       18.829        0.180      338.110       10.539      866.275
10/15/2013  19:57:00       44.916       16.551       12.120       20.310       18.178       12.858      412.502      330.426      165.320        0.167        0.045       47.869        8.977        0.035      338.139       10.587      866.289
10/15/2013  19:58:00       44.551      -16.632       29.471       40.450       54.447       39.889     1636.165     2964.460     1591.149        0.466        0.310       47.554       42.258        0.790      338.270       10.807      866.291
10/15/2013  19:59:00       42.084      -36.991        1.978       29.136       41.983       24.039      848.915     1762.554      577.871        0.317        0.159       56.030       21.353        0.145      338.306       10.868      866.285
10/15/2013  20:00:00       41.157      -21.124       21.815       32.712       27.298       20.347     1070.064      745.172      414.018        0.242        0.111       46.261       22.096        0.228      338.274       10.814      866.286
10/15/2013  20:01:00       -6.210        5.589       23.776        9.919       13.856        7.790       98.385      191.979       60.689        0.049        0.018        8.355        6.051        0.525      338.085       10.497      866.281
10/15/2013  20:02:00       -0.041        7.811       15.782        9.882        7.233        7.119       97.662       52.323       50.679        0.026        0.010        7.811        1.980        0.064      338.067       10.468      866.269
10/15/2013  20:03:00       24.796        2.726        8.614       24.534       18.691       12.327      601.903      349.369      151.947        0.090        0.055       24.945       14.537        0.340      338.200       10.689      866.271
10/15/2013  20:04:00       34.653      -10.823       13.280       31.206       28.002       17.542      973.799      784.132      307.732        0.178        0.103       36.304       12.399        0.117      338.217       10.719      866.276
10/15/2013  20:05:00        0.342      -32.245        5.683       21.492       22.543       16.768      461.897      508.185      281.163        0.116        0.063       32.247        8.000        0.062      338.311       10.877      866.270
10/15/2013  20:06:00      -11.545      -22.032       -2.522       14.846       21.731       10.954      220.395      472.252      119.995        0.072        0.041       24.874        7.932        0.102      338.243       10.763      866.260
10/15/2013  20:07:00        6.963       -5.873        1.699       32.780       19.252       17.298     1074.528      370.655      299.208        0.091        0.087        9.109       13.617        2.235      338.103       10.526      866.269
10/15/2013  20:08:00       23.400      -16.647       13.976       22.536       25.385       19.541      507.861      644.422      381.847        0.128        0.077       28.717       16.354        0.324      338.249       10.772      866.265
10/15/2013  20:09:00        1.948        3.044       17.286       15.186       20.086       15.555      230.604      403.467      241.946        0.059        0.044        3.614       15.761       19.016      338.069       10.469      866.262
10/15/2013  20:10:00       -2.747       14.402       22.676       10.742        9.856        6.554      115.381       97.145       42.955        0.049        0.013       14.662        5.813        0.157      337.934       10.245      866.270
10/15/2013  20:11:00        1.969       15.021       16.331       19.056       19.481       18.497      363.121      379.523      342.157        0.079        0.054       15.150       14.659        0.936      337.968       10.300      866.260
10/15/2013  20:12:00        6.793        8.409       14.747       23.481       30.880       14.379      551.354      953.603      206.764        0.102        0.086       10.810       11.179        1.069      338.098       10.519      866.261
10/15/2013  20:13:00       31.753       12.921        0.686       14.102       15.780       11.859      198.856      248.997      140.635        0.088        0.029       34.281        7.494        0.048      338.014       10.379      866.248
10/15/2013  20:14:00       48.786        2.139       13.698       19.519       41.267       17.257      380.974     1702.949      297.793        0.248        0.119       48.833       22.629        0.215      337.973       10.310      866.238
10/15/2013  20:15:00       65.991       36.273       20.804       26.584       29.699       16.910      706.695      882.043      285.953        0.399        0.094       75.303       13.185        0.031      337.857       10.114      866.232
10/15/2013  20:16:00       69.309       36.064       46.885       47.568       40.754       31.011     2262.711     1660.861      961.657        0.659        0.244       78.130       21.014        0.072      337.972       10.309      866.217
10/15/2013  20:17:00       52.889       27.783       24.797       22.946       20.579       22.145      526.501      423.515      490.409        0.281        0.072       59.742       11.057        0.034      337.964       10.293      866.217
10/15/2013  20:18:00       50.253       17.315       25.409       18.717       18.992       15.570      350.312      360.683      242.423        0.221        0.048       53.153       12.405        0.054      337.838       10.083      866.210
10/15/2013  20:19:00       66.411       35.636       22.267       17.842       20.846       15.136      318.353      434.541      229.085        0.358        0.049       75.368        9.793        0.017      337.855       10.112      866.203
10/15/2013  20:20:00       67.057       37.063       15.864       18.386       26.750       15.920      338.038      715.546      253.443        0.371        0.065       76.618        8.960        0.014      337.821       10.055      866.202
10/15/2013  20:21:00       77.935       28.321       21.486       25.905       20.324       15.826      671.057      413.075      250.452        0.434        0.067       82.922       12.675        0.023      337.719        9.883      866.199
10/15/2013  20:22:00       86.847       38.326        9.890       19.119       20.249       16.891      365.528      410.021      285.290        0.508        0.053       94.928        7.659        0.007      337.730        9.902      866.209
10/15/2013  20:23:00       74.665       32.427        9.455       20.927       16.376       15.387      437.942      268.175      236.747        0.383        0.047       81.403       11.375        0.020      337.724        9.892      866.197
10/15/2013  20:24:00       32.084       20.259       30.532       26.663       17.570       14.945      710.921      308.694      223.364        0.181        0.062       37.945        4.826        0.016      337.604        9.690      866.202
10/15/2013  20:25:00       33.097        9.710       14.233       16.148       17.907       12.921      260.751      320.674      166.951        0.107        0.037       34.492        9.724        0.079      337.644        9.756      866.186
10/15/2013  20:26:00       57.240       23.404       11.242       12.943       10.310       10.882      167.530      106.296      118.421        0.217        0.020       61.840        7.637        0.015      337.709        9.866      866.180
10/15/2013  20:27:00       22.854       -0.417        8.573       16.289       13.256       10.910      265.347      175.711      119.019        0.058        0.028       22.858        7.245        0.100      337.590        9.667      866.169
10/15/2013  20:28:00       29.719        2.385       10.459       16.191       15.725       11.461      262.148      247.289      131.344        0.082        0.032       29.815        8.072        0.073      337.621        9.718      866.172
10/15/2013  20:29:00       45.659       12.917        8.935       13.004       12.971       11.329      169.099      168.235      128.352        0.140        0.023       47.451        8.989        0.036      337.680        9.819      866.168
10/15/2013  20:30:00       62.181       22.092        6.840       16.581       12.772       11.237      274.925      163.126      126.274        0.248        0.028       65.989        9.068        0.019      337.691        9.836      866.173
10/15/2013  20:31:00       34.725        3.573        9.372       10.894       13.142       12.538      118.685      172.723      157.213        0.088        0.022       34.908        7.558        0.047      337.633        9.740      866.162
10/15/2013  20:32:00       38.954        0.885       -1.282       17.930       14.571       10.641      321.484      212.308      113.223        0.108        0.032       38.964        8.749        0.050      337.629        9.733      866.157
10/15/2013  20:33:00       53.260       18.441        2.112        9.965       11.864        9.007       99.309      140.745       81.118        0.175        0.016       56.362        5.946        0.011      337.627        9.729      866.151
10/15/2013  20:34:00       18.407       14.807        6.372       14.905       16.484        9.140      222.156      271.730       83.548        0.059        0.029       23.624        7.827        0.110      337.504        9.522      866.165
10/15/2013  20:35:00        0.454       12.282       11.175       11.595       16.518       10.174      134.447      272.828      103.511        0.039        0.026       12.290        5.681        0.214      337.386        9.324      866.166
10/15/2013  20:36:00       -5.358       15.971       32.775       10.191       14.751       10.411      103.867      217.593      108.386        0.089        0.021       16.846        8.334        0.245      337.424        9.388      866.173
10/15/2013  20:37:00       32.401       24.804       26.809       18.550       12.857       14.989      344.096      165.308      224.677        0.156        0.037       40.806        4.688        0.013      337.503        9.521      866.179
10/15/2013  20:38:00       73.069      -12.641        7.187       34.457       42.784       16.150     1187.301     1830.477      260.833        0.441        0.164       74.155       18.726        0.064      337.657        9.779      866.173
10/15/2013  20:39:00       26.443      -16.065       18.179       36.024       49.862       21.825     1297.763     2486.267      476.320        0.277        0.213       30.941       29.844        0.930      337.671        9.802      866.166
10/15/2013  20:40:00       41.054        1.102        7.034       22.475       11.892       10.441      505.123      141.431      109.008        0.125        0.038       41.068        8.956        0.048      337.651        9.769      866.163
10/15/2013  20:41:00       51.507       11.330        8.515       27.286       17.847       12.573      744.539      318.514      158.078        0.204        0.061       52.738       15.350        0.085      337.657        9.779      866.167
10/15/2013  20:42:00       45.136       24.742       14.811       15.828        7.590       13.240      250.519       57.604      175.297        0.168        0.024       51.473       10.698        0.043      337.596        9.676      866.168
10/15/2013  20:43:00       56.460       28.722        9.147       17.364       11.074       10.202      301.520      122.640      104.084        0.231        0.026       63.346        7.822        0.015      337.471        9.468      866.172
10/15/2013  20:44:00       65.002       22.665       17.505       29.184       15.945       12.865      851.707      254.246      165.503        0.316        0.064       68.840       10.209        0.022      337.443        9.421      866.179
10/15/2013  20:45:00       73.134       19.906       20.238       22.751       18.730       19.280      517.617      350.808      371.723        0.370        0.062       75.795       13.380        0.031      337.434        9.406      866.187
10/15/2013  20:46:00       64.050       27.935       23.084       32.071       20.698       18.651     1028.555      428.419      347.860        0.361        0.090       69.876       15.118        0.047      337.360        9.281      866.185
10/15/2013  20:47:00       82.327       44.083       27.104       42.402       24.690       19.115     1797.919      609.605      365.399        0.611        0.139       93.386       16.109        0.030      337.405        9.356      866.184
10/15/2013  20:48:00       55.612       18.994        7.114       21.246       20.411       17.521      451.404      416.598      306.998        0.234        0.059       58.766        8.741        0.022      337.476        9.475      866.170
10/15/2013  20:49:00       19.043      -16.685        7.250       19.386       23.666       12.642      375.830      560.078      159.821        0.089        0.055       25.319        8.743        0.119      337.353        9.269      866.176
10/15/2013  20:50:00       65.135       29.951        8.124       39.616       19.298       17.395     1569.434      372.422      302.581        0.372        0.112       71.691       16.381        0.052      337.283        9.154      866.165
10/15/2013  20:51:00       37.132       16.569       17.343       24.825       20.545       19.866      616.285      422.086      394.667        0.169        0.072       40.661       12.002        0.087      337.148        8.926      866.158
10/15/2013  20:52:00       93.813       36.719       22.306       36.023       30.671       22.183     1297.658      940.693      492.086        0.669        0.137      100.743       11.670        0.013      337.355        9.272      866.156
10/15/2013  20:53:00       62.332       30.505       23.330       32.426       22.028       26.197     1051.451      485.249      686.307        0.379        0.111       69.397       19.561        0.079      337.254        9.105      866.154
10/15/2013  20:54:00       21.679       14.505       -1.316       25.152       15.464       12.572      632.642      239.135      158.052        0.086        0.051       26.083       10.610        0.165      337.115        8.871      866.145
10/15/2013  20:55:00       14.129        9.045        5.173       16.750       11.330        8.453      280.552      128.371       71.447        0.039        0.024       16.776        4.194        0.063      336.999        8.678      866.122
10/15/2013  20:56:00       49.954       43.203       -0.927       27.185       23.289       25.268      739.026      542.359      638.467        0.314        0.096       66.045       18.796        0.081      337.076        8.805      866.120
10/15/2013  20:57:00       74.091       45.109       11.329       23.037       22.902       22.702      530.723      524.517      515.388        0.461        0.079       86.743       19.536        0.051      336.989        8.659      866.116
10/15/2013  20:58:00       70.869       44.727       15.648       34.518       21.049       17.889     1191.495      443.059      320.011        0.461        0.098       83.802       15.452        0.034      336.947        8.589      866.124
10/15/2013  20:59:00       81.460       69.143        8.950       28.575       21.400       19.761      816.521      457.963      390.513        0.658        0.083      106.847       12.489        0.014      336.928        8.557      866.116
10/15/2013  21:00:00       73.616       50.625        4.858       25.186       17.237       21.437      634.309      297.119      459.528        0.470        0.070       89.344       11.500        0.017      336.887        8.490      866.112
10/15/2013  21:01:00       66.385       49.429       18.160       34.275       19.182       16.896     1174.781      367.944      285.487        0.450        0.091       82.766        5.060        0.004      336.930        8.562      866.121
10/15/2013  21:02:00       71.400       45.524       11.171       26.373       21.260       14.253      695.540      452.008      203.138        0.432        0.068       84.678        8.303        0.010      336.955        8.603      866.133
10/15/2013  21:03:00       50.280       27.726        9.816       36.077       23.885       15.701     1301.554      570.502      246.531        0.276        0.106       57.418       11.504        0.040      336.931        8.564      866.139
10/15/2013  21:04:00       73.232       40.717        9.274       33.495       21.092       15.683     1121.896      444.879      245.946        0.446        0.091       83.790       10.394        0.015      337.009        8.694      866.146
10/15/2013  21:05:00       26.082       11.098        1.327       23.728       18.958       13.423      562.997      359.407      180.164        0.095        0.055       28.345        7.984        0.079      336.871        8.465      866.146
10/15/2013  21:06:00       42.405       36.105        4.743       18.369       12.397       10.980      337.416      153.697      120.560        0.187        0.031       55.694        9.381        0.028      336.985        8.652      866.142
10/15/2013  21:07:00       24.532       31.180       -3.775       20.254       14.742        8.701      410.225      217.334       75.705        0.115        0.035       39.674        7.927        0.040      336.996        8.672      866.155
10/15/2013  21:08:00        7.385        4.471        7.637        8.223        5.776        9.458       67.613       33.361       89.463        0.016        0.010        8.633        3.286        0.145      336.928        8.559      866.159
10/15/2013  21:09:00       22.377      -15.282        1.355       11.799       17.888       12.197      139.218      319.981      148.761        0.067        0.030       27.097        8.707        0.103      337.042        8.749      866.177
10/15/2013  21:10:00       19.560       12.737        7.690       12.728       16.223       11.164      161.996      263.197      124.637        0.058        0.027       23.342        3.413        0.021      337.037        8.741      866.184
10/15/2013  21:11:00       19.796       13.479        5.915       13.985       11.749        7.425      195.574      138.035       55.135        0.050        0.019       23.949        6.046        0.064      337.022        8.712      866.198
10/15/2013  21:12:00        8.937       24.163       -0.871       18.189       26.511       11.658      330.850      702.808      135.917        0.092        0.058       25.763       10.188        0.156      336.979        8.643      866.202
10/15/2013  21:13:00       13.772       41.361       -6.877       13.696       18.171        9.410      187.571      330.168       88.543        0.128        0.030       43.593        8.773        0.040      337.020        8.711      866.211
10/15/2013  21:14:00       10.825       52.830       -7.743       12.687       23.283       10.319      160.952      542.077      106.477        0.189        0.040       53.928       10.634        0.039      337.087        8.824      866.208
10/15/2013  21:15:00       19.561       62.987       -9.845       16.531       22.375       12.262      273.287      500.654      150.352        0.269        0.046       65.955        6.520        0.010      337.145        8.922      866.217
10/15/2013  21:16:00       11.242       52.734       -9.990       15.307       17.769        8.826      234.306      315.722       77.890        0.182        0.031       53.919        7.347        0.019      337.136        8.906      866.216
10/15/2013  21:17:00       21.747       53.861       -5.158       21.894       21.237       16.460      479.360      451.019      270.916        0.230        0.060       58.086        8.706        0.022      337.118        8.877      866.224
10/15/2013  21:18:00       12.395       72.976       -9.525       25.241       30.440       14.047      637.101      926.582      197.322        0.367        0.088       74.021       15.390        0.043      337.206        9.025      866.230
10/15/2013  21:19:00        6.971       94.892      -13.851       13.966       12.697        8.905      195.046      161.225       79.296        0.484        0.022       95.148        6.797        0.005      337.196        9.008      866.235
10/15/2013  21:20:00        9.180       89.991      -11.314       17.974       21.437       10.756      323.049      459.531      115.685        0.460        0.045       90.458       10.254        0.013      337.181        8.982      866.251
10/15/2013  21:21:00      -46.485       17.139      -14.423       24.153       33.852       21.853      583.391     1145.988      477.541        0.243        0.110       49.544       16.002        0.104      336.781        8.314      866.258
10/15/2013  21:22:00      -78.884       -7.827      -13.747       14.529       14.310       10.029      211.101      204.782      100.573        0.349        0.026       79.271        7.671        0.009      336.280        7.475      866.269
10/15/2013  21:23:00      -49.458       -4.502      -10.610       15.869       17.497        7.654      251.818      306.141       58.577        0.160        0.031       49.663        4.607        0.009      336.290        7.493      866.284
10/15/2013  21:24:00      -45.156      -17.071      -15.524       13.726       14.317        6.723      188.408      204.980       45.196        0.150        0.022       48.275        4.597        0.009      336.396        7.670      866.309
10/15/2013  21:25:00      -89.675      -11.293      -12.050       19.014       14.534       11.437      361.541      211.247      130.809        0.451        0.035       90.383        6.643        0.005      336.375        7.636      866.318
10/15/2013  21:26:00      -60.418      -19.224       -8.396       19.129       17.573       14.633      365.906      308.815      214.128        0.249        0.044       63.403        5.240        0.007      336.247        7.421      866.306
10/15/2013  21:27:00      -62.579      -11.633      -10.267       17.054       19.150       14.204      290.832      366.706      201.759        0.251        0.043       63.651       10.109        0.025      336.394        7.666      866.316
10/15/2013  21:28:00      -40.330        3.277       -2.502       11.042       10.093       13.974      121.916      101.859      195.279        0.103        0.021       40.463        3.822        0.009      336.380        7.644      866.305
10/15/2013  21:29:00      -37.828        9.405       -4.054       16.005       29.522       15.032      256.162      871.563      225.973        0.144        0.068       38.980       17.138        0.193      336.694        8.168      866.291
10/15/2013  21:30:00      -32.123       -3.843       -3.829       14.046       15.490        9.350      197.278      239.926       87.418        0.079        0.026       32.353        7.267        0.050      336.512        7.864      866.283
10/15/2013  21:31:00        0.004      106.470      -17.024       15.852       21.004       10.860      251.291      441.166      117.929        0.622        0.041      106.470        8.207        0.006      337.093        8.834      866.268
10/15/2013  21:32:00      -16.379      144.678      -19.973       21.572       15.917       13.918      465.361      253.365      193.722        1.126        0.046      145.602       12.057        0.007      337.117        8.875      866.281
10/15/2013  21:33:00       -0.819      130.451      -18.160       25.024       24.546       15.778      626.210      602.522      248.940        0.941        0.074      130.453       15.625        0.014      337.027        8.723      866.268
10/15/2013  21:34:00      -41.756       -5.566      -12.475       23.268       31.193       13.207      541.414      972.999      174.420        0.181        0.084       42.125       10.882        0.067      336.389        7.657      866.258
10/15/2013  21:35:00      -43.966      -22.642       -8.622       10.951       12.848        9.724      119.923      165.076       94.566        0.145        0.019       49.454        4.945        0.010      336.210        7.360      866.264
10/15/2013  21:36:00      -39.699      -17.368       -4.929       19.992       18.171        9.282      399.669      330.180       86.148        0.136        0.041       43.332        6.799        0.025      336.200        7.342      866.264
10/15/2013  21:37:00      -57.420       -8.910      -10.805       14.389       14.546        8.940      207.054      211.586       79.916        0.200        0.025       58.107        3.309        0.003      336.198        7.339      866.264
10/15/2013  21:38:00      -56.243        1.396       -8.187       16.997       15.069       12.661      288.913      227.075      160.299        0.195        0.034       56.260        8.817        0.025      336.139        7.241      866.279
10/15/2013  21:39:00      -43.266      -10.450      -11.705       18.225       15.450       10.092      332.160      238.711      101.848        0.140        0.034       44.511        9.302        0.044      336.083        7.146      866.286
10/15/2013  21:40:00      -42.273      -11.704       -8.452       21.092       17.496       11.925      444.875      306.104      142.214        0.144        0.045       43.863       10.109        0.053      336.301        7.510      866.294
10/15/2013  21:41:00      -53.518      -13.194       -4.374       13.440       14.850       11.739      180.625      220.521      137.814        0.180        0.027       55.121       10.920        0.039      336.214        7.365      866.296
10/15/2013  21:42:00      -57.212       -8.079      -13.255       21.512       21.097       12.959      462.783      445.098      167.924        0.229        0.054       57.780        8.845        0.023      336.204        7.348      866.299
10/15/2013  21:43:00      -43.727      -29.679      -11.985       20.506       14.518        8.644      420.488      210.765       74.718        0.182        0.035       52.848        5.995        0.013      336.124        7.214      866.305
10/15/2013  21:44:00      -15.469      -19.650        3.563       14.088       18.355       11.300      198.476      336.890      127.684        0.065        0.033       25.008        5.485        0.048      336.012        7.028      866.305
10/15/2013  21:45:00       10.537       89.422      -12.034       22.898       39.530       11.109      524.334     1562.628      123.417        0.523        0.111       90.041       11.036        0.015      336.774        8.302      866.313
10/15/2013  21:46:00      -14.508       69.886        3.195       25.265       27.868       16.615      638.300      776.631      276.049        0.340        0.085       71.376       15.496        0.047      336.601        8.012      866.315
10/15/2013  21:47:00      -55.280      -17.071       -0.958       42.429       28.952       19.765     1800.248      838.226      390.660        0.319        0.151       57.856       20.466        0.125      336.094        7.166      866.302
10/15/2013  21:48:00      -79.213      -33.742      -11.330       14.967       16.965       12.036      224.000      287.807      144.858        0.410        0.033       86.100        7.177        0.007      335.807        6.688      866.298
10/15/2013  21:49:00      -48.362      -24.601      -14.964       15.361       16.272        8.159      235.951      264.781       66.570        0.187        0.028       54.259        5.680        0.011      335.892        6.828      866.305
10/15/2013  21:50:00      -36.823      -23.139      -13.541       15.083       18.117       12.473      227.482      328.237      155.586        0.139        0.036       43.490        8.341        0.037      336.159        7.273      866.313
10/15/2013  21:51:00      -41.098      -16.841      -10.028       10.696       10.731        9.610      114.410      115.157       92.349        0.120        0.016       44.414        4.795        0.012      336.436        7.737      866.319
10/15/2013  21:52:00      -51.107       -3.683       -5.308       17.341       15.196       11.302      300.702      230.906      127.734        0.166        0.033       51.240       10.052        0.038      336.061        7.109      866.304
10/15/2013  21:53:00      -40.334       -7.170       -8.019       16.668        8.432        7.568      277.826       71.092       57.277        0.107        0.020       40.967        7.015        0.029      336.035        7.067      866.314
10/15/2013  21:54:00      -20.553        5.967       -6.049       14.938       16.932        9.372      223.139      286.699       87.832        0.055        0.030       21.402        7.868        0.135      336.415        7.702      866.290
10/15/2013  21:55:00      -35.637      -19.741       -4.250       13.206       22.673       11.645      174.392      514.051      135.600        0.125        0.041       40.739        7.031        0.030      336.256        7.436      866.279
10/15/2013  21:56:00      -13.869       26.487       -7.795       14.546       17.374        8.913      211.586      301.858       79.441        0.077        0.030       29.898        7.804        0.068      336.532        7.897      866.271
10/15/2013  21:57:00      -26.981      -22.908      -10.515       12.560       11.946       11.712      157.752      142.716      137.178        0.090        0.022       35.394        6.425        0.033      336.412        7.696      866.260
10/15/2013  21:58:00       -7.903      -17.701        1.898       10.930       12.056        7.442      119.461      145.339       55.379        0.035        0.016       19.385        4.255        0.048      336.270        7.458      866.257
10/15/2013  21:59:00        6.029       -3.276       -0.186       12.366       11.941        8.168      152.911      142.577       66.718        0.020        0.018        6.861        3.515        0.262      336.201        7.344      866.255
10/15/2013  22:00:00      -41.502       83.417      -19.347       25.832       44.302       14.716      667.292     1962.679      216.554        0.595        0.142       93.171       20.782        0.050      336.602        8.014      866.236
10/15/2013  22:01:00       -6.543      -29.419        1.722       13.176       35.674       22.559      173.599     1272.647      508.920        0.143        0.098       30.138       12.221        0.164      336.140        7.242      866.260
10/15/2013  22:02:00      -80.891      -29.195      -10.677       30.057       16.116        9.394      903.402      259.729       88.246        0.438        0.063       85.998       11.823        0.019      335.716        6.537      866.269
10/15/2013  22:03:00     -106.396      -17.991      -23.711       14.024       12.657        7.898      196.686      160.196       62.384        0.631        0.021      107.907        5.147        0.002      335.637        6.404      866.266
10/15/2013  22:04:00      -87.928      -18.638      -16.982       20.014       13.597       13.637      400.578      184.868      185.961        0.457        0.039       89.882       11.681        0.017      335.608        6.355      866.273
10/15/2013  22:05:00      -98.710       -9.566      -18.065       15.878       13.197        9.701      252.110      174.157       94.115        0.534        0.026       99.172        5.524        0.003      335.737        6.570      866.269
10/15/2013  22:06:00      -87.554      -18.396      -22.135       14.980       13.476        9.718      224.411      181.594       94.438        0.450        0.025       89.465        9.483        0.011      335.710        6.526      866.276
10/15/2013  22:07:00     -101.170      -21.679      -25.976       18.383       16.413       11.006      337.919      269.384      121.134        0.605        0.036      103.466       10.999        0.011      335.651        6.427      866.273
10/15/2013  22:08:00     -109.583       -4.645      -14.530       19.846       14.645       12.870      393.869      214.490      165.626        0.651        0.039      109.681       12.690        0.013      335.526        6.217      866.260
10/15/2013  22:09:00      -85.263        6.610      -16.592       11.248       11.225        8.156      126.523      126.007       66.520        0.395        0.016       85.519        5.610        0.004      335.639        6.408      866.272
10/15/2013  22:10:00      -61.406      -14.993      -12.191       14.456       15.702        8.599      208.965      246.553       73.941        0.234        0.026       63.210        5.772        0.008      335.665        6.450      866.271
10/15/2013  22:11:00      -70.027      -26.083      -14.267       13.700       16.578        9.574      187.681      274.835       91.665        0.317        0.028       74.727        7.936        0.011      335.629        6.390      866.273
10/15/2013  22:12:00      -78.667      -31.048      -20.635       14.750       18.292       14.596      217.548      334.596      213.055        0.417        0.038       84.572        5.798        0.005      335.662        6.446      866.278
10/15/2013  22:13:00      -85.583      -19.162      -14.388       21.122       17.060       14.134      446.138      291.031      199.772        0.442        0.047       87.702        8.981        0.010      335.489        6.158      866.273
10/15/2013  22:14:00      -90.137      -34.883      -19.936       18.254       24.755       18.321      333.225      612.803      335.661        0.551        0.064       96.651       10.078        0.011      335.554        6.265      866.289
10/15/2013  22:15:00      -93.528      -47.617       -7.739       22.342       22.726       19.052      499.151      516.461      362.962        0.623        0.069      104.952       11.936        0.013      335.548        6.256      866.286
10/15/2013  22:16:00      -94.550      -39.284      -17.965       20.065       20.807       14.047      402.598      432.913      197.307        0.592        0.052      102.386       11.384        0.012      335.533        6.231      866.279
10/15/2013  22:17:00      -89.526      -51.695      -19.598       21.235       22.225       15.723      450.908      493.968      247.213        0.613        0.060      103.380       11.755        0.013      335.505        6.183      866.271
10/15/2013  22:18:00      -72.641      -45.931      -16.752       18.874       14.556       14.279      356.218      211.864      203.894        0.422        0.039       85.944        4.537        0.003      335.496        6.167      866.251
10/15/2013  22:19:00      -73.206      -35.204       -5.761       19.553       17.346       16.827      382.327      300.869      283.139        0.380        0.048       81.231       10.834        0.018      335.504        6.181      866.246
10/15/2013  22:20:00      -76.996      -23.396      -17.547       11.603       13.987       13.370      134.625      195.638      178.750        0.365        0.025       80.472        7.906        0.010      335.572        6.295      866.233
10/15/2013  22:21:00      -75.728      -13.580      -19.002       12.808       11.865       10.754      164.052      140.777      115.645        0.335        0.021       76.936        7.554        0.010      335.562        6.277      866.230
10/15/2013  22:22:00      -30.173        1.150       -5.850       18.552        8.993        9.423      344.169       80.880       88.797        0.073        0.026       30.195        1.828        0.004      335.775        6.634      866.234
10/15/2013  22:23:00      -27.893      -26.482       -6.572       11.629       15.948       11.231      135.245      254.330      126.126        0.102        0.026       38.462        3.956        0.011      335.885        6.816      866.240
10/15/2013  22:24:00      -53.457       -8.246      -12.881       26.934       21.299       12.122      725.427      453.641      146.931        0.221        0.066       54.089        4.597        0.007      336.047        7.087      866.248
10/15/2013  22:25:00      -15.595       -6.619       -1.029       27.757        9.733       14.689      770.434       94.726      215.754        0.068        0.054       16.941       17.194        1.030      335.731        6.560      866.255
10/15/2013  22:26:00       -2.054       -9.067       -2.381       14.910       12.883       10.158      222.306      165.977      103.175        0.029        0.025        9.296       10.730        1.332      335.831        6.727      866.276
10/15/2013  22:27:00      -47.562       28.609      -15.116       20.794       48.439       12.175      432.376     2346.310      148.236        0.312        0.146       55.503       14.574        0.069      336.219        7.374      866.282
10/15/2013  22:28:00      -70.894      -26.155       -9.893       27.321       19.521       12.105      746.435      381.063      146.533        0.354        0.064       75.564       11.019        0.021      335.504        6.180      866.299
10/15/2013  22:29:00      -98.065      -32.068      -18.809       10.932       15.791       10.856      119.509      249.368      117.856        0.574        0.024      103.175        7.646        0.005      335.418        6.037      866.322
10/15/2013  22:30:00      -94.471      -41.546      -18.466       23.866       26.113       16.028      569.569      681.890      256.907        0.625        0.075      103.203       10.122        0.010      335.340        5.908      866.346
10/15/2013  22:31:00      -84.897      -14.509      -22.505       26.465       21.906       12.536      700.408      479.855      157.163        0.463        0.067       86.128       12.401        0.021      335.383        5.981      866.347
10/15/2013  22:32:00      -83.777       -6.875      -18.490       14.223        8.962        9.179      202.299       80.325       84.256        0.389        0.018       84.059        7.419        0.008      335.473        6.130      866.368
10/15/2013  22:33:00      -81.129      -21.909       -9.927       21.390       29.207       11.339      457.539      853.038      128.567        0.430        0.072       84.035        6.381        0.006      335.472        6.129      866.363
10/15/2013  22:34:00     -112.520      -27.801      -18.706       19.245       21.887       13.534      370.357      479.027      183.178        0.741        0.052      115.903        7.519        0.004      335.314        5.866      866.370
10/15/2013  22:35:00      -46.771       10.206        0.918       33.809       14.925       16.487     1143.024      222.769      271.831        0.196        0.082       47.872       17.220        0.129      335.745        6.584      866.384
10/15/2013  22:36:00      -57.019      -24.671       -5.877       24.459       28.244       16.645      598.254      797.696      277.064        0.278        0.084       62.128       20.346        0.107      335.804        6.682      866.376
10/15/2013  22:37:00     -124.908      -48.696      -21.206       18.153       18.398       13.239      329.548      338.497      175.267        0.963        0.042      134.065        5.431        0.002      335.348        5.920      866.377
10/15/2013  22:38:00     -129.819       -1.044      -16.227       28.451       29.147       16.680      809.436      849.573      278.219        0.953        0.097      129.823        8.993        0.005      335.249        5.756      866.378
10/15/2013  22:39:00      -81.555       -6.476      -21.926       21.362       20.144       16.436      456.334      405.768      270.152        0.415        0.057       81.812       13.780        0.028      335.386        5.984      866.373
10/15/2013  22:40:00      -65.578      -31.417      -15.634       12.760       13.033        9.813      162.813      169.853       96.288        0.298        0.021       72.715        6.920        0.009      335.366        5.951      866.392
10/15/2013  22:41:00      -98.649      -14.171      -14.451       22.009       13.954       11.016      484.414      194.706      121.355        0.547        0.040       99.661        6.019        0.004      335.346        5.918      866.397
10/15/2013  22:42:00     -101.318        0.889      -22.166       19.771       18.882       10.039      390.902      356.536      100.790        0.580        0.042      101.322        8.127        0.006      335.382        5.978      866.389
10/15/2013  22:43:00      -56.963       -4.437      -13.120       21.372       26.073       12.757      456.759      679.777      162.737        0.237        0.065       57.136       10.381        0.033      335.651        6.427      866.397
10/15/2013  22:44:00      -39.179      -28.904       -6.034       13.786       10.516       12.968      190.052      110.594      168.178        0.144        0.023       48.687        7.608        0.024      335.877        6.803      866.397
10/15/2013  22:45:00      -55.786      -19.033       -9.149        9.447       12.851        6.563       89.254      165.147       43.068        0.193        0.015       58.943        2.316        0.002      335.739        6.573      866.391
10/15/2013  22:46:00      -59.284       -7.955      -12.405       12.236       10.961        8.714      149.731      120.141       75.940        0.204        0.017       59.816        5.164        0.007      335.530        6.226      866.387
10/15/2013  22:47:00      -24.739      -28.039       -4.062       14.914       10.639       10.657      222.436      113.197      113.572        0.093        0.022       37.393        7.670        0.042      335.529        6.222      866.389
10/15/2013  22:48:00      -38.269      -27.846      -10.377       14.042        8.505        7.568      197.183       72.328       57.268        0.134        0.016       47.328        3.306        0.005      335.703        6.514      866.401
10/15/2013  22:49:00      -60.941      -29.286      -12.011       12.133       16.421        9.647      147.208      269.635       93.069        0.261        0.025       67.613        6.479        0.009      335.424        6.048      866.417
10/15/2013  22:50:00      -70.963      -12.210      -21.109       13.776       11.051        7.925      189.790      122.126       62.798        0.300        0.019       72.006        7.630        0.011      335.359        5.939      866.429
10/15/2013  22:51:00      -93.606      -15.778      -23.071       12.814       13.919       11.201      164.189      193.751      125.465        0.501        0.024       94.927        7.535        0.006      335.224        5.714      866.435
10/15/2013  22:52:00      -76.291       -5.774      -16.554       15.939       14.733        9.518      254.037      217.064       90.602        0.334        0.028       76.509        6.837        0.008      335.252        5.764      866.433
10/15/2013  22:53:00      -55.967      -30.857      -14.499       15.746       15.235       13.440      247.923      232.120      180.622        0.248        0.033       63.910        8.344        0.017      335.327        5.886      866.438
10/15/2013  22:54:00      -52.828      -18.677       -9.707       28.924       12.098        9.776      836.618      146.370       95.563        0.216        0.054       56.033       14.162        0.064      335.329        5.888      866.458
10/15/2013  22:55:00      -77.155      -22.673      -15.542       18.305       14.896       11.044      335.058      221.895      121.981        0.369        0.034       80.417        6.599        0.007      335.401        6.010      866.475
10/15/2013  22:56:00      -62.960       -8.201      -13.688       15.679       14.151        9.540      245.824      200.252       91.012        0.238        0.027       63.492        7.101        0.013      335.410        6.025      866.466
10/15/2013  22:57:00      -66.018      -19.379      -17.435       17.020       11.056        9.046      289.696      122.234       81.824        0.277        0.025       68.803        7.997        0.014      335.282        5.812      866.465
10/15/2013  22:58:00      -78.899       -9.714      -13.258       14.146       16.207       11.052      200.099      262.677      122.156        0.354        0.029       79.495        4.324        0.003      335.241        5.744      866.474
10/15/2013  22:59:00      -73.031       -3.563      -13.655       20.548       23.701       15.956      422.231      561.745      254.593        0.339        0.062       73.118       12.400        0.029      335.427        6.055      866.451
10/15/2013  23:00:00      -43.060      -34.090       -5.242       26.847       14.110       15.783      720.764      199.089      249.094        0.211        0.058       54.920        9.804        0.032      335.271        5.792      866.462
10/15/2013  23:01:00     -126.629      -51.750      -18.907       28.051       14.719       14.725      786.872      216.663      216.811        1.015        0.061      136.796       13.035        0.009      335.056        5.438      866.481
10/15/2013  23:02:00     -130.701       -1.725      -21.586       25.268       27.278       17.420      638.460      744.091      303.452        0.962        0.084      130.712       16.221        0.015      334.971        5.295      866.481
10/15/2013  23:03:00      -95.097       16.425      -18.874       25.915       16.056       13.468      671.595      257.810      181.383        0.539        0.056       96.505       12.499        0.017      335.072        5.463      866.478
10/15/2013  23:04:00      -34.624       36.501      -10.674       14.317       12.818        6.403      204.991      164.308       40.994        0.153        0.021       50.310        4.991        0.010      335.942        6.912      866.476
10/15/2013  23:05:00      -52.626       17.908      -12.009       12.659       22.320        8.936      160.259      498.186       79.848        0.199        0.037       55.590        8.615        0.024      335.525        6.216      866.480
10/15/2013  23:06:00      -47.172      -14.699      -12.194        8.840       10.472        8.279       78.137      109.664       68.536        0.142        0.013       49.409        5.877        0.014      335.338        5.905      866.471
10/15/2013  23:07:00      -61.037      -22.205      -15.633        9.300       12.297        7.535       86.483      151.223       56.783        0.238        0.015       64.950        4.467        0.005      335.258        5.772      866.449
10/15/2013  23:08:00      -67.226      -25.120      -15.680       19.943       24.557       11.236      397.732      603.070      126.245        0.326        0.056       71.765        9.974        0.019      335.087        5.488      866.437
10/15/2013  23:09:00      -81.763      -14.396      -20.237       21.250       17.633       11.911      451.577      310.925      141.862        0.410        0.045       83.021        9.671        0.014      335.136        5.570      866.444
10/15/2013  23:10:00     -103.589       -7.450      -21.441       18.072       17.018       12.049      326.606      289.607      145.174        0.600        0.038      103.857        8.161        0.006      335.060        5.443      866.440
10/15/2013  23:11:00      -94.497      -21.471      -20.740       19.716       19.548       13.829      388.712      382.115      191.244        0.539        0.048       96.906       10.449        0.012      335.010        5.362      866.446
10/15/2013  23:12:00      -87.714      -24.399      -19.948       18.210       23.163       14.366      331.592      536.523      206.380        0.488        0.054       91.044       12.153        0.018      335.033        5.399      866.438
10/15/2013  23:13:00      -79.056       -4.925       -9.689       20.688       18.173       18.295      427.997      330.268      334.707        0.373        0.055       79.209       14.209        0.032      335.076        5.472      866.432
10/15/2013  23:14:00      -59.452       -4.461      -12.729       15.559       13.366        9.929      242.077      178.655       98.590        0.212        0.026       59.620        9.174        0.024      335.313        5.863      866.417
10/15/2013  23:15:00      -19.968      -14.937        2.779       16.712       16.290        8.947      279.278      265.370       80.053        0.063        0.031       24.936        8.173        0.107      335.356        5.935      866.415
10/15/2013  23:16:00       -7.582        1.907        3.347       19.797       17.198       14.431      391.923      295.782      208.258        0.048        0.045        7.818       11.468        2.152      335.547        6.253      866.423
10/15/2013  23:17:00      -28.006      -13.972        1.217       14.797       13.103       10.935      218.944      171.685      119.563        0.075        0.026       31.297        7.384        0.056      335.543        6.246      866.420
10/15/2013  23:18:00      -29.437       13.667       -5.309       30.330       29.001       12.174      919.925      841.040      148.198        0.149        0.095       32.455        5.420        0.028      335.601        6.344      866.415
10/15/2013  23:19:00        8.334      106.260      -12.991       23.393       19.493       10.080      547.235      379.968      101.605        0.628        0.051      106.586        9.107        0.007      336.255        7.434      866.420
10/15/2013  23:20:00       -2.301      118.962      -14.112       30.181       19.271       15.004      910.910      371.379      225.130        0.793        0.075      118.984       12.811        0.012      336.069        7.125      866.430
10/15/2013  23:21:00      -28.307       44.425       -2.478       21.435       46.014       19.302      459.440     2117.288      372.584        0.286        0.147       52.677       15.872        0.091      335.686        6.486      866.421
10/15/2013  23:22:00      -76.776       -4.574      -17.188       12.055       11.154        9.587      145.326      124.403       91.908        0.329        0.018       76.912        6.112        0.006      334.880        5.144      866.410
10/15/2013  23:23:00      -80.092       -2.537      -17.509       15.516       16.128        8.255      240.745      260.107       68.149        0.365        0.028       80.132        4.454        0.003      334.832        5.067      866.421
10/15/2013  23:24:00      -75.825      -24.959      -13.806       16.195       14.316       11.939      262.292      204.959      142.544        0.359        0.030       79.827        2.386        0.001      334.867        5.123      866.426
10/15/2013  23:25:00      -74.326      -17.236       -4.554       10.696       18.713       12.760      114.415      350.185      162.821        0.323        0.031       76.298        9.249        0.015      334.956        5.270      866.415
10/15/2013  23:26:00      -74.708       -5.805      -11.761       17.702       11.635       11.068      313.352      135.383      122.507        0.316        0.029       74.933        4.950        0.004      334.988        5.323      866.397
10/15/2013  23:27:00      -62.923      -10.092       -9.994       20.939       21.145       12.844      438.447      447.106      164.978        0.261        0.053       63.728       13.663        0.046      334.899        5.176      866.386
10/15/2013  23:28:00      -42.191      -17.094      -14.005       21.413       16.863       10.277      458.501      284.353      105.613        0.156        0.042       45.522        5.130        0.013      334.901        5.180      866.375
10/15/2013  23:29:00      -50.923      -29.875      -12.197       26.899       20.976       15.860      723.568      440.007      251.552        0.252        0.071       59.040       12.965        0.048      335.076        5.470      866.369
10/15/2013  23:30:00      -79.463      -38.202      -18.112       24.921       18.047       14.957      621.045      325.704      223.716        0.464        0.059       88.169        8.688        0.010      334.847        5.089      866.357
10/15/2013  23:31:00      -92.718      -56.427      -16.721       20.145       19.725       14.269      405.809      389.075      203.602        0.653        0.050      108.538       12.184        0.013      334.820        5.045      866.368
10/15/2013  23:32:00      -89.112      -36.095      -13.114       25.375       33.849       16.045      643.880     1145.761      257.434        0.573        0.102       96.144       12.699        0.017      334.748        4.924      866.375
10/15/2013  23:33:00      -76.646       -5.543      -19.152       17.334       24.401       12.171      300.451      595.403      148.129        0.366        0.052       76.846       10.765        0.020      334.930        5.229      866.368
10/15/2013  23:34:00      -94.458      -19.161      -18.799       18.945       16.040       10.967      358.927      257.283      120.267        0.519        0.037       96.381        4.348        0.002      334.921        5.213      866.367
10/15/2013  23:35:00      -80.470      -51.418      -28.798       26.613       24.822       22.166      708.227      616.135      491.321        0.588        0.091       95.495       12.638        0.018      334.857        5.106      866.369
10/15/2013  23:36:00      -92.465      -55.236      -13.333       13.168       17.637       11.205      173.395      311.049      125.548        0.619        0.030      107.707        7.598        0.005      334.719        4.878      866.356
10/15/2013  23:37:00      -90.728      -38.463      -20.316       16.468       20.380       14.065      271.185      415.328      197.810        0.550        0.044       98.544        7.184        0.005      334.876        5.138      866.344
10/15/2013  23:38:00      -78.847      -59.336      -17.801       33.858       25.982       22.850     1146.378      675.069      522.141        0.620        0.117       98.680       15.349        0.024      334.853        5.100      866.350
10/15/2013  23:39:00     -108.252      -52.674      -23.462       20.241       21.779       11.150      409.683      474.307      124.329        0.803        0.050      120.387        6.638        0.003      334.777        4.974      866.344
10/15/2013  23:40:00     -116.921      -45.066      -18.959       22.188       29.911       13.492      492.296      894.666      182.027        0.881        0.078      125.305       11.754        0.009      334.786        4.989      866.330
10/15/2013  23:41:00      -97.083      -22.952      -29.454       26.043       24.324       10.805      678.236      591.678      116.750        0.610        0.069       99.759        6.299        0.004      334.772        4.965      866.313
10/15/2013  23:42:00      -87.694      -48.908      -23.265       16.217       16.136        9.975      263.002      260.360       99.508        0.562        0.031      100.410        8.492        0.007      334.778        4.975      866.310
10/15/2013  23:43:00      -92.622      -23.950      -22.390       16.157       17.356       11.758      261.046      301.217      138.254        0.518        0.035       95.668        4.813        0.003      334.818        5.042      866.300
10/15/2013  23:44:00      -81.626      -18.415      -14.738       15.079       19.867       12.535      227.366      394.692      157.117        0.400        0.039       83.677        8.983        0.012      334.833        5.068      866.289
10/15/2013  23:45:00      -85.994       11.998      -16.179       10.940       11.001        8.708      119.676      121.014       75.828        0.406        0.016       86.827        4.391        0.003      334.979        5.309      866.276
10/15/2013  23:46:00      -56.055      -16.482       -9.138       23.244       18.599       11.525      540.277      345.923      132.835        0.226        0.051       58.428       14.432        0.061      335.077        5.473      866.245
10/15/2013  23:47:00      -29.792       -4.954      -12.622       14.081       21.986       12.271      198.286      483.367      150.589        0.095        0.042       30.201       13.143        0.189      335.262        5.780      866.235
10/15/2013  23:48:00      -31.705      -18.056       -4.370       25.830       28.230       18.260      667.168      796.948      333.446        0.157        0.090       36.485       17.552        0.231      335.502        6.178      866.217
10/15/2013  23:49:00      -38.533      -31.543      -13.853       28.273       22.144       13.077      799.337      490.356      171.005        0.207        0.073       49.797        7.132        0.021      335.089        5.493      866.218
10/15/2013  23:50:00      -88.034      -40.433      -18.663       30.918       18.044       13.363      955.908      325.585      178.574        0.560        0.073       96.875        5.493        0.003      334.803        5.017      866.236
10/15/2013  23:51:00     -109.804      -17.240      -19.889       25.047       22.928       19.601      627.337      525.683      384.207        0.714        0.077      111.149       12.782        0.013      334.662        4.782      866.251
10/15/2013  23:52:00     -126.487      -18.103      -28.305       27.193       23.651       15.307      739.435      559.350      234.295        0.933        0.077      127.775       12.760        0.010      334.585        4.654      866.251
10/15/2013  23:53:00      -92.306      -12.999      -19.286       18.305       19.141       14.521      335.086      366.375      210.850        0.499        0.046       93.217        9.827        0.011      334.561        4.616      866.252
10/15/2013  23:54:00     -108.401      -12.334      -15.283       31.078       21.482       17.670      965.819      461.489      312.229        0.694        0.087      109.100       15.976        0.021      334.706        4.855      866.245
10/15/2013  23:55:00      -88.250      -22.473      -20.617       22.682       23.698       14.722      514.471      561.572      216.742        0.501        0.065       91.066       16.322        0.032      334.717        4.874      866.231
10/15/2013  23:56:00     -102.976       -5.067      -18.921       19.367       25.489       16.518      375.086      649.679      272.842        0.614        0.065      103.100       15.396        0.022      334.754        4.934      866.224
10/15/2013  23:57:00      -85.098       -2.755      -13.212       19.593       22.603       13.773      383.882      510.917      189.706        0.425        0.054       85.143        7.549        0.008      334.721        4.881      866.203
10/15/2013  23:58:00      -61.110      -21.368       -8.204       13.655       17.458       12.159      186.460      304.785      147.850        0.245        0.032       64.738        5.055        0.006      334.882        5.148      866.182
10/15/2013  23:59:00      -65.944      -22.183       -5.642       17.323       21.936       10.862      300.097      481.192      117.987        0.289        0.045       69.575       10.998        0.025      334.863        5.117      866.179
